[[{"header":{"parameterUnit":"m.s-1","parameterCategory":1,"la1":30.6,"la2":28.766,"lo1":-90.7593,"lo2":-88.6598,"dy":0.0162,"dx":0.0183,"nx":116,"ny":114,"refTime":"2023-06-28T12:00:00:Z","depth":0,"parameterNumber":2,"parameterNumberName":"U-component_of_WINDS"},"data":[0.0,0.0,0.0,0.0,0.0,0.0,0.0,0.0,0.0,0.0,0.0,0.0,0.0,0.0,0.0,0.0,0.0,0.0,0.0,0.0,0.0,0.0,0.0,0.0,0.0,0.0,0.0,0.0,0.0,0.0,0.0,0.0,0.0,0.0,0.0,0.0,0.0,0.0,0.0,0.0,0.0,0.0,0.0,0.0,0.0,0.0,0.0,0.0,0.0,0.0,0.0,0.0,0.0,0.0,0.0,0.0,0.0,0.0,0.0,0.0,0.0,0.0,0.0,0.0,0.0,0.0,0.0,0.0,0.0,0.0,0.0,0.0,0.0,0.0,0.0,0.0,0.0,0.0,0.0,0.0,0.0,0.0,0.0,0.0,0.0,0.0,0.0,0.0,0.0,0.0,0.0,0.0,0.0,0.0,0.0,0.0,0.0,0.0,0.0,0.0,0.0,0.0,0.0,0.0,0.0,0.0,0.0,0.0,0.0,0.0,0.0,0.0,0.0,0.0,0.0,0.0,0.0,0.0,0.0,0.0,0.0,0.0,0.0,0.0,0.0,0.0,0.0,0.0,0.0,0.0,0.0,0.0,0.0,0.0,0.0,0.0,0.0,0.0,0.0,0.0,0.0,0.0,0.0,0.0,0.0,0.0,0.0,0.0,0.0,0.0,0.0,0.0,0.0,0.0,0.0,0.0,0.0,0.0,0.0,0.0,0.0,0.0,0.0,0.0,0.0,0.0,0.0,0.0,0.0,0.0,0.0,0.0,0.0,0.0,0.0,0.0,0.0,0.0,0.0,0.0,0.0,0.0,0.0,0.0,0.0,0.0,0.0,0.0,0.0,0.0,0.0,0.0,0.0,0.0,0.0,0.0,0.0,0.0,0.0,0.0,0.0,0.0,0.0,0.0,0.0,0.0,0.0,0.0,0.0,0.0,0.0,0.0,0.0,0.0,0.0,0.0,0.0,0.0,0.0,0.0,0.0,0.0,0.0,0.0,0.0,0.0,0.0,0.0,0.0,0.0,0.0,0.0,0.0,0.0,0.0,0.0,0.0,0.0,0.0,0.0,0.0,0.0,0.0,0.0,0.0,0.0,0.0,0.0,0.0,0.0,0.0,0.0,0.0,0.0,0.0,0.0,0.0,0.0,0.0,0.0,0.0,0.0,0.0,0.0,0.0,0.0,0.0,0.0,0.0,0.0,0.0,0.0,0.0,0.0,0.0,0.0,0.0,0.0,0.0,0.0,0.0,0.0,0.0,0.0,0.0,0.0,0.0,0.0,0.0,0.0,0.0,0.0,0.0,0.0,0.0,0.0,0.0,0.0,0.0,0.0,0.0,0.0,0.0,0.0,0.0,0.0,0.0,0.0,0.0,0.0,0.0,0.0,0.0,0.0,0.0,0.0,0.0,0.0,0.0,0.0,0.0,0.0,0.0,0.0,0.0,0.0,0.0,0.0,0.0,0.0,0.0,0.0,0.0,0.0,0.0,0.0,0.0,0.0,0.0,0.0,0.0,0.0,0.0,0.0,0.0,0.0,0.0,0.0,0.0,0.0,0.0,0.0,0.0,0.0,0.0,0.0,0.0,0.0,0.0,0.0,0.0,0.0,0.0,0.0,0.0,0.0,0.0,0.0,0.0,0.0,0.0,0.0,0.0,0.0,0.0,0.0,0.0,0.0,0.0,0.0,0.0,0.0,0.0,0.0,0.0,0.0,0.0,0.0,0.0,0.0,0.0,0.0,0.0,0.0,0.0,0.0,0.0,0.0,0.0,0.0,0.0,0.0,0.0,0.0,0.0,0.0,0.0,0.0,0.0,0.0,0.0,0.0,0.0,0.0,0.0,0.0,0.0,0.0,0.0,0.0,0.0,0.0,0.0,0.0,0.0,0.0,0.0,0.0,0.0,0.0,0.0,0.0,0.0,0.0,0.0,0.0,0.0,0.0,0.0,0.0,0.0,0.0,0.0,0.0,0.0,0.0,0.0,0.0,0.0,0.0,0.0,0.0,0.0,0.0,0.0,0.0,0.0,0.0,0.0,0.0,0.0,0.0,0.0,0.0,0.0,0.0,0.0,0.0,0.0,0.0,0.0,0.0,0.0,0.0,0.0,0.0,0.0,0.0,0.0,0.0,0.0,0.0,0.0,0.0,0.0,0.0,0.0,0.0,0.0,0.0,0.0,0.0,0.0,0.0,0.0,0.0,0.0,0.0,0.0,0.0,0.0,0.0,0.0,0.0,0.0,0.0,0.0,0.0,0.0,0.0,0.0,0.0,0.0,0.0,0.0,0.0,0.0,0.0,0.0,0.0,0.0,0.0,0.0,0.0,0.0,0.0,0.0,0.0,0.0,0.0,0.0,0.0,0.0,0.0,0.0,0.0,0.0,0.0,0.0,0.0,0.0,0.0,0.0,0.0,0.0,0.0,0.0,0.0,0.0,0.0,0.0,0.0,0.0,0.0,0.0,0.0,0.0,0.0,0.0,0.0,0.0,0.0,0.0,0.0,0.0,0.0,0.0,0.0,0.0,0.0,0.0,0.0,0.0,0.0,0.0,0.0,0.0,0.0,0.0,0.0,0.0,0.0,0.0,0.0,0.0,0.0,0.0,0.0,0.0,0.0,0.0,0.0,0.0,0.0,0.0,0.0,0.0,0.0,0.0,0.0,0.0,0.0,0.0,0.0,0.0,0.0,0.0,0.0,0.0,0.0,0.0,0.0,0.0,0.0,0.0,0.0,0.0,0.0,0.0,0.0,0.0,0.0,0.0,0.0,0.0,0.0,0.0,0.0,0.0,0.0,0.0,0.0,0.0,0.0,0.0,0.0,0.0,0.0,0.0,0.0,0.0,0.0,0.0,0.0,0.0,0.0,0.0,0.0,0.0,0.0,0.0,0.0,0.0,0.0,0.0,0.0,0.0,0.0,0.0,0.0,0.0,0.0,0.0,0.0,0.0,0.0,0.0,0.0,0.0,0.0,0.0,0.0,0.0,0.0,0.0,0.0,0.0,0.0,0.0,0.0,0.0,0.0,0.0,0.0,0.0,0.0,0.0,0.0,0.0,0.0,0.0,0.0,0.0,0.0,0.0,0.0,0.0,0.0,0.0,0.0,0.0,0.0,0.0,0.0,0.0,0.0,0.0,0.0,0.0,0.0,0.0,0.0,0.0,0.0,0.0,0.0,0.0,0.0,0.0,0.0,0.0,0.0,0.0,0.0,0.0,0.0,0.0,0.0,0.0,0.0,0.0,0.0,0.0,0.0,0.0,0.0,0.0,0.0,0.0,0.0,0.0,0.0,0.0,0.0,0.0,0.0,0.0,0.0,0.0,0.0,0.0,0.0,0.0,0.0,0.0,0.0,0.0,0.0,0.0,0.0,0.0,0.0,0.0,0.0,0.0,0.0,0.0,0.0,0.0,0.0,0.0,0.0,0.0,0.0,0.0,0.0,0.0,0.0,0.0,0.0,0.0,0.0,0.0,0.0,0.0,0.0,0.0,0.0,0.0,0.0,0.0,0.0,0.0,0.0,0.0,0.0,0.0,0.0,0.0,0.0,0.0,0.0,0.0,0.0,0.0,0.0,0.0,0.0,0.0,0.0,0.0,0.0,0.0,0.0,0.0,0.0,0.0,0.0,0.0,0.0,0.0,0.0,0.0,0.0,0.0,0.0,0.0,0.0,0.0,0.0,0.0,0.0,0.0,0.0,0.0,0.0,0.0,0.0,0.0,0.0,0.0,0.0,0.0,0.0,0.0,0.0,0.0,0.0,0.0,0.0,0.0,0.0,0.0,0.0,0.0,0.0,0.0,0.0,0.0,0.0,0.0,0.0,0.0,0.0,0.0,0.0,0.0,0.0,0.0,0.0,0.0,0.0,0.0,0.0,0.0,0.0,0.0,0.0,0.0,0.0,0.0,0.0,0.0,0.0,0.0,0.0,0.0,0.0,0.0,0.0,0.0,0.0,0.0,0.0,0.0,0.0,0.0,0.0,0.0,0.0,0.0,0.0,0.0,0.0,0.0,0.0,0.0,0.0,0.0,0.0,0.0,0.0,0.0,0.0,0.0,0.0,0.0,0.0,0.0,0.0,0.0,0.0,0.0,0.0,0.0,0.0,0.0,0.0,0.0,0.0,0.0,0.0,0.0,0.0,0.0,0.0,0.0,0.0,0.0,0.0,0.0,0.0,0.0,0.0,0.0,0.0,0.0,0.0,0.0,0.0,0.0,0.0,0.0,0.0,0.0,0.0,0.0,0.0,0.0,0.0,0.0,0.0,0.0,0.0,0.0,0.0,0.0,0.0,0.0,0.0,0.0,0.0,0.0,0.0,0.0,0.0,0.0,0.0,0.0,0.0,0.0,0.0,0.0,0.0,0.0,0.0,0.0,0.0,0.0,0.0,0.0,0.0,0.0,0.0,0.0,0.0,0.0,0.0,0.0,0.0,0.0,0.0,0.0,0.0,0.0,0.0,0.0,0.0,0.0,0.0,0.0,0.0,0.0,0.0,0.0,0.0,0.0,0.0,0.0,0.0,0.0,0.0,0.0,0.0,0.0,0.0,0.0,0.0,0.0,0.0,0.0,0.0,0.0,0.0,0.0,0.0,0.0,0.0,0.0,0.0,0.0,0.0,0.0,0.0,0.0,0.0,0.0,0.0,0.0,0.0,0.0,0.0,0.0,0.0,0.0,0.0,0.0,0.0,0.0,0.0,0.0,0.0,0.0,0.0,0.0,0.0,0.0,0.0,0.0,0.0,0.0,0.0,0.0,0.0,0.0,0.0,0.0,0.0,0.0,0.0,0.0,0.0,0.0,0.0,0.0,0.0,0.0,0.0,0.0,0.0,0.0,0.0,0.0,0.0,0.0,0.0,0.0,0.0,0.0,0.0,0.0,0.0,0.0,0.0,0.0,0.0,0.0,0.0,0.0,0.0,0.0,0.0,0.0,0.0,0.0,0.0,0.0,0.0,0.0,0.0,0.0,0.0,0.0,0.0,0.0,0.0,0.0,0.0,0.0,0.0,0.0,0.0,0.0,0.0,0.0,0.0,0.0,0.0,0.0,0.0,0.0,0.0,0.0,0.0,0.0,0.0,0.0,0.0,0.0,0.0,0.0,0.0,0.0,0.0,0.0,0.0,0.0,0.0,0.0,0.0,0.0,0.0,0.0,0.0,0.0,0.0,0.0,0.0,0.0,0.0,0.0,0.0,0.0,0.0,0.0,0.0,0.0,0.0,0.0,0.0,0.0,0.0,0.0,0.0,0.0,0.0,0.0,0.0,0.0,0.0,0.0,0.0,0.0,0.0,0.0,0.0,0.0,0.0,0.0,0.0,0.0,0.0,0.0,0.0,0.0,0.0,0.0,0.0,0.0,0.0,0.0,0.0,0.0,0.0,0.0,0.0,0.0,0.0,0.0,0.0,0.0,0.0,0.0,0.0,0.0,0.0,0.0,0.0,0.0,0.0,0.0,0.0,0.0,0.0,0.0,0.0,0.0,0.0,0.0,0.0,0.0,0.0,0.0,0.0,0.0,0.0,0.0,0.0,0.0,0.0,0.0,0.0,0.0,0.0,0.0,0.0,0.0,0.0,0.0,0.0,0.0,0.0,0.0,0.0,0.0,0.0,0.0,0.0,0.0,0.0,0.0,0.0,0.0,0.0,0.0,0.0,0.0,0.0,0.0,0.0,0.0,0.0,0.0,0.0,0.0,0.0,0.0,0.0,0.0,0.0,0.0,0.0,0.0,0.0,0.0,0.0,0.0,0.0,0.0,0.0,0.0,0.0,0.0,0.0,0.0,0.0,0.0,0.0,0.0,0.0,0.0,0.0,0.0,0.0,0.0,0.0,0.0,0.0,0.0,0.0,0.0,0.0,0.0,0.0,0.0,0.0,0.0,0.0,0.0,0.0,0.0,0.0,0.0,0.0,0.0,0.0,0.0,0.0,0.0,0.0,0.0,0.0,0.0,0.0,0.0,0.0,0.0,0.0,0.0,0.0,0.0,0.0,0.0,0.0,0.0,0.0,0.0,0.0,0.0,0.0,0.0,0.0,0.0,0.0,0.0,0.0,0.0,0.0,0.0,0.0,0.0,0.0,0.0,0.0,0.0,0.0,0.0,0.0,0.0,0.0,-2.0973,0.0,0.0,0.0,0.0,0.0,0.0,0.0,0.0,0.0,0.0,0.0,0.0,0.0,0.0,0.0,0.0,0.0,0.0,0.0,0.0,0.0,0.0,0.0,0.0,0.0,0.0,0.0,0.0,0.0,0.0,0.0,0.0,0.0,0.0,0.0,0.0,0.0,0.0,0.0,0.0,0.0,0.0,0.0,0.0,0.0,0.0,0.0,0.0,0.0,0.0,0.0,0.0,0.0,0.0,0.0,0.0,0.0,0.0,0.0,0.0,0.0,0.0,0.0,0.0,0.0,0.0,0.0,0.0,0.0,0.0,0.0,0.0,0.0,0.0,0.0,0.0,0.0,0.0,0.0,0.0,0.0,0.0,0.0,0.0,0.0,0.0,0.0,0.0,0.0,0.0,0.0,0.0,0.0,0.0,0.0,0.0,0.0,0.0,0.0,0.0,0.0,0.0,0.0,0.0,0.0,0.0,0.0,0.0,0.0,0.0,0.0,0.0,0.0,0.0,0.0,0.0,-2.125,0.0,0.0,0.0,0.0,0.0,0.0,0.0,0.0,0.0,0.0,0.0,0.0,0.0,0.0,0.0,0.0,0.0,0.0,0.0,0.0,0.0,0.0,0.0,0.0,0.0,0.0,0.0,0.0,0.0,0.0,0.0,0.0,0.0,0.0,0.0,0.0,0.0,0.0,0.0,0.0,0.0,0.0,0.0,0.0,0.0,0.0,0.0,0.0,0.0,0.0,0.0,0.0,0.0,0.0,0.0,0.0,0.0,0.0,0.0,0.0,0.0,0.0,0.0,0.0,0.0,0.0,0.0,0.0,0.0,0.0,0.0,0.0,0.0,0.0,0.0,0.0,0.0,0.0,0.0,0.0,0.0,0.0,0.0,0.0,0.0,0.0,0.0,0.0,0.0,0.0,0.0,0.0,0.0,0.0,0.0,0.0,0.0,0.0,0.0,0.0,0.0,0.0,0.0,0.0,0.0,0.0,0.0,0.0,-2.4492,-2.4753,-2.5154,-2.5073,-2.5033,-2.4892,-2.2618,-2.1193,-2.0464,-2.0862,0.0,0.0,0.0,0.0,0.0,0.0,0.0,0.0,0.0,0.0,0.0,0.0,0.0,0.0,0.0,0.0,0.0,0.0,0.0,0.0,0.0,0.0,0.0,0.0,0.0,0.0,0.0,0.0,0.0,0.0,0.0,0.0,0.0,0.0,0.0,0.0,0.0,0.0,-0.9337,-0.9309,-0.9477,-0.9818,0.0,0.0,0.0,0.0,0.0,0.0,0.0,0.0,0.0,0.0,0.0,0.0,0.0,0.0,0.0,0.0,0.0,0.0,0.0,0.0,0.0,0.0,0.0,0.0,0.0,0.0,0.0,0.0,0.0,0.0,0.0,0.0,0.0,0.0,0.0,0.0,0.0,0.0,0.0,0.0,0.0,0.0,0.0,0.0,-1.4527,-1.6207,0.0,0.0,0.0,0.0,0.0,0.0,0.0,0.0,0.0,0.0,0.0,0.0,0.0,-2.4349,-2.5385,-2.6236,-2.6642,-2.6519,-2.6785,-2.6638,-2.6086,-2.5682,-2.5515,-2.547,-2.4535,0.0,-2.2531,-2.1628,0.0,0.0,0.0,0.0,0.0,0.0,0.0,0.0,0.0,0.0,0.0,0.0,0.0,0.0,0.0,0.0,0.0,0.0,0.0,0.0,0.0,0.0,0.0,0.0,0.0,0.0,0.0,0.0,0.0,0.0,0.0,0.0,0.0,0.0,0.0,0.0,-0.9159,-0.9032,-0.8841,-0.9118,-0.8977,-0.8544,-0.8606,-0.8825,-0.9176,-0.8551,0.0,0.0,0.0,0.0,0.0,0.0,0.0,0.0,0.0,0.0,0.0,0.0,0.0,0.0,0.0,0.0,0.0,0.0,0.0,0.0,0.0,0.0,0.0,0.0,0.0,0.0,0.0,0.0,0.0,0.0,0.0,0.0,0.0,0.0,0.0,0.0,0.0,0.0,0.0,-1.3972,-1.4954,-1.5377,-1.684,-1.7872,0.0,0.0,0.0,0.0,0.0,0.0,0.0,0.0,0.0,-2.4412,-2.5183,-2.6184,-2.7423,-2.7841,-2.8358,-2.8935,-2.9088,-2.9182,-2.9221,-2.8636,-2.8353,-2.8308,-2.7305,-2.6376,-2.5415,-2.3046,-2.1789,-2.1368,0.0,0.0,0.0,0.0,-2.1023,-2.0925,0.0,0.0,0.0,0.0,0.0,0.0,0.0,0.0,0.0,0.0,0.0,0.0,0.0,0.0,0.0,-0.8288,0.0,0.0,0.0,0.0,0.0,0.0,0.0,0.0,0.0,0.0,0.0,0.0,-0.9486,-0.9238,-0.9108,-0.9066,-0.8578,-0.7794,-0.7579,-0.7719,-0.8167,-0.7471,-0.7405,0.0,0.0,0.0,0.0,0.0,0.0,0.0,0.0,0.0,0.0,0.0,0.0,0.0,0.0,0.0,0.0,0.0,0.0,0.0,0.0,0.0,0.0,0.0,0.0,0.0,0.0,0.0,0.0,0.0,0.0,0.0,0.0,0.0,0.0,0.0,0.0,0.0,0.0,-1.438,-1.5296,-1.4776,-1.6872,-1.8312,0.0,0.0,0.0,0.0,0.0,0.0,-2.3189,-2.4496,-2.555,-2.6226,-2.7314,-2.8427,-2.9594,-2.9774,-3.0328,-3.127,-3.127,-3.1539,-3.2018,-3.133,-3.1016,-3.0941,-2.9654,-2.8712,-2.7895,-2.4717,-2.3041,-2.2383,-2.171,-2.1455,-2.1479,-2.1767,-2.1705,-2.1554,0.0,0.0,0.0,0.0,0.0,0.0,0.0,0.0,0.0,0.0,0.0,0.0,0.0,0.0,-0.9326,-0.994,-0.9767,-0.9376,0.0,0.0,0.0,0.0,0.0,0.0,0.0,0.0,0.0,-1.0107,-0.8836,-0.9066,-1.0484,-0.895,-0.826,-0.8098,-0.7211,-0.7403,-0.8524,-0.7652,-0.7535,-0.7925,0.0,0.0,0.0,0.0,0.0,0.0,0.0,0.0,0.0,0.0,0.0,0.0,0.0,0.0,0.0,0.0,0.0,0.0,0.0,0.0,0.0,0.0,0.0,0.0,0.0,0.0,0.0,0.0,0.0,0.0,0.0,0.0,0.0,0.0,0.0,0.0,0.0,0.0,0.0,-1.4775,-1.7182,0.0,0.0,0.0,0.0,-2.2154,-2.3165,-2.4258,-2.5449,-2.6456,-2.7569,-2.8854,-3.0454,-3.1614,-3.2317,-3.2946,-3.329,-3.335,-3.335,-3.3365,-3.338,-3.2721,-3.2407,-3.2332,-3.0986,-3.0058,-2.9265,-2.6572,-2.5076,-2.4418,-2.3729,-2.3445,-2.346,-2.3488,-2.3488,-2.346,0.0,0.0,0.0,0.0,0.0,0.0,0.0,0.0,0.0,0.0,0.0,0.0,0.0,-0.8825,-0.9042,-0.965,-0.9164,-0.8967,-0.9291,0.0,0.0,0.0,0.0,0.0,0.0,0.0,-0.7923,-0.8874,-0.9663,-1.0182,-1.0493,-0.9981,-0.9361,-0.8683,-0.7494,-0.7229,-0.7604,-0.693,-0.6838,-0.7145,-0.6683,-0.723,0.0,0.0,0.0,0.0,0.0,0.0,0.0,0.0,0.0,0.0,0.0,0.0,0.0,0.0,0.0,0.0,0.0,0.0,0.0,0.0,0.0,0.0,0.0,0.0,0.0,0.0,0.0,0.0,0.0,0.0,0.0,0.0,0.0,0.0,0.0,0.0,0.0,-1.8484,-2.0655,0.0,-2.1945,-2.2273,-2.3075,-2.4452,-2.4939,-2.568,-2.6733,-2.807,-2.9408,-3.0779,-3.1918,-3.3162,-3.4427,-3.4681,-3.4786,-3.4786,-3.4786,-3.4786,-3.4756,-3.4083,-3.3784,-3.3709,-3.2377,-3.1674,-3.133,-2.9505,-2.7874,-2.6408,-2.5315,-2.4896,-2.4837,-2.4418,-2.4253,-2.4224,0.0,0.0,0.0,0.0,0.0,0.0,0.0,0.0,0.0,0.0,0.0,-0.8862,-0.897,-0.9129,-0.9562,-1.0265,-0.9604,-0.9178,-0.9265,0.0,0.0,0.0,0.0,0.0,0.0,-0.7321,-0.7711,-0.8625,-0.934,-0.9844,-1.0009,-0.9716,-0.925,-0.8539,-0.7652,-0.7295,-0.7268,-0.6878,-0.6706,-0.6577,-0.6364,-0.7011,-0.8083,0.0,0.0,0.0,0.0,0.0,0.0,0.0,0.0,0.0,0.0,0.0,0.0,0.0,0.0,0.0,0.0,0.0,0.0,0.0,0.0,0.0,0.0,0.0,0.0,0.0,0.0,0.0,0.0,0.0,0.0,0.0,0.0,0.0,0.0,0.0,-2.0945,-2.1126,-2.3133,-2.4469,-2.4293,-2.4268,-2.4899,-2.6464,-2.6775,-2.7291,-2.8132,-2.9462,-3.0774,-3.2055,-3.2936,-3.4068,-3.5504,-3.5504,-3.5504,-3.5504,-3.5504,-3.5504,-3.5489,-3.4801,-3.4472,-3.4412,-3.308,-3.2512,-3.2422,-3.1315,-3.0088,-2.8771,-2.7455,-2.6946,-2.6871,-2.6213,-2.5816,-2.5448,0.0,0.0,0.0,0.0,0.0,0.0,0.0,0.0,0.0,0.0,0.0,-0.9045,-0.969,-1.0275,-1.0981,-1.179,-1.1062,-0.9958,-0.8533,-0.8643,0.0,0.0,0.0,0.0,-0.7308,-0.7153,-0.7872,-0.9399,-0.7951,-0.7934,-0.9258,-0.816,-0.7698,-0.7698,-0.7607,-0.7607,-0.7607,-0.7611,-0.7187,-0.6502,-0.6342,-0.6638,-0.7086,0.0,0.0,0.0,0.0,0.0,0.0,0.0,0.0,0.0,0.0,0.0,0.0,0.0,0.0,0.0,0.0,0.0,0.0,0.0,0.0,0.0,0.0,0.0,0.0,0.0,0.0,0.0,0.0,0.0,0.0,0.0,0.0,0.0,-1.8034,-2.1021,-2.2938,-2.243,-2.4384,-2.5536,-2.5021,-2.5937,-2.7005,-2.8072,-2.8649,-2.9202,-2.9831,-3.0696,-3.1683,-3.2593,-3.3518,-3.4461,-3.5504,-3.5504,-3.5504,-3.5504,-3.5504,-3.5504,-3.5489,-3.4816,-3.4502,-3.4442,-3.314,-3.2572,-3.2527,-3.1839,-3.1497,-3.1377,-3.0118,-2.9609,-2.952,-2.8846,-2.8125,-2.7066,0.0,0.0,0.0,0.0,0.0,0.0,0.0,0.0,0.0,0.0,-0.9368,-0.9451,-1.0446,-1.0575,-1.0981,-1.179,-1.0398,-0.9482,-0.9605,0.0,0.0,0.0,0.0,0.0,-0.7312,-0.7058,-0.7264,-0.797,-0.8666,-0.9259,-0.9638,-0.9358,-0.9172,-0.9172,-0.8225,-0.7753,-0.776,-0.7872,-0.7736,-0.7404,-0.6932,-0.7067,-0.7545,0.0,0.0,0.0,0.0,0.0,0.0,0.0,0.0,0.0,0.0,0.0,0.0,0.0,0.0,0.0,0.0,0.0,0.0,0.0,0.0,0.0,0.0,0.0,0.0,0.0,0.0,0.0,0.0,0.0,0.0,0.0,0.0,-2.0279,-2.0602,-2.2753,-2.4855,-2.6293,-2.7786,-2.8586,-2.8436,-2.8699,-2.9001,-2.9302,-2.9465,-2.9897,-3.0758,-3.1044,-3.196,-3.3533,-3.3876,-3.4461,-3.5504,-3.5504,-3.5504,-3.5504,-3.5504,-3.5504,-3.5489,-3.531,-3.522,-3.5175,-3.4307,-3.3933,-3.3844,-3.2706,-3.2243,-3.2108,-3.0776,-3.0253,-3.0118,-2.9011,-2.7496,-2.5813,0.0,0.0,0.0,0.0,0.0,0.0,0.0,0.0,0.0,0.0,-0.9658,-0.991,-1.0659,-1.053,-1.0803,-1.1962,-1.0332,-0.9323,-0.9449,0.0,0.0,0.0,0.0,-0.7329,-0.7058,-0.7052,-0.7258,-0.7556,-0.8482,-0.8991,-0.9065,-0.9065,-0.9065,-0.8968,-0.8195,-0.7906,-0.7913,-0.8001,-0.7987,-0.7875,-0.7533,-0.7513,-0.7756,-0.7281,-0.7517,-0.7973,-0.8,-0.8453,-0.9195,-1.0398,0.0,0.0,0.0,0.0,0.0,0.0,0.0,0.0,0.0,0.0,0.0,0.0,0.0,0.0,0.0,0.0,0.0,0.0,0.0,0.0,0.0,0.0,0.0,0.0,-1.994,-2.1816,-2.3178,-2.4792,-2.6574,-2.855,-2.9402,-2.9792,-2.9792,-2.9792,-2.9792,-2.9792,-2.9792,-3.0075,-3.0558,-3.097,-3.1888,-3.338,-3.3808,-3.4461,-3.5504,-3.5504,-3.5504,-3.5504,-3.5504,-3.5504,-3.5504,-3.5504,-3.5504,-3.5474,-3.4771,-3.4472,-3.4382,-3.3051,-3.2512,0.0,0.0,0.0,0.0,0.0,-2.6749,-2.4813,0.0,0.0,0.0,0.0,0.0,0.0,0.0,0.0,0.0,0.0,0.0,-1.0386,-1.047,-1.0286,-1.0613,-1.1907,-1.0594,-0.9369,0.0,0.0,0.0,0.0,0.0,-0.7187,-0.6793,-0.7227,-0.7577,-0.7838,-0.7838,-0.7906,-0.8038,-0.8038,-0.8038,-0.8237,-0.8038,-0.8038,-0.8237,-0.8038,-0.8038,-0.8038,-0.8038,-0.7936,-0.7729,-0.7204,-0.7146,-0.7361,-0.7627,-0.8282,-0.9279,-1.0312,0.0,0.0,0.0,0.0,0.0,0.0,0.0,0.0,0.0,0.0,0.0,0.0,0.0,0.0,0.0,0.0,0.0,0.0,0.0,0.0,0.0,0.0,0.0,0.0,-2.0879,-2.2514,-2.5525,-2.6644,-2.7831,-2.9561,-2.9792,-2.9792,-2.9792,-2.9792,-2.9792,-2.9792,-2.9792,-2.9856,-3.0075,0.0,0.0,0.0,0.0,-3.4727,-3.5609,-3.5549,-3.5504,-3.5504,-3.5504,-3.5504,-3.5504,-3.5504,-3.5504,-3.5474,-3.4861,-3.4592,-3.4487,-3.3245,-3.2587,-3.2318,-3.1604,-3.1261,-3.0849,-2.822,-2.6,-2.4097,0.0,0.0,0.0,0.0,0.0,0.0,0.0,0.0,0.0,-1.0572,-1.053,-1.0455,-1.027,-1.0303,-1.0461,-1.0792,-1.0103,-0.9255,0.0,0.0,0.0,0.0,0.0,0.0,-0.7417,-0.7743,-0.7936,-0.7994,-0.7994,-0.8011,-0.8038,-0.8038,-0.8531,-0.9608,-0.8531,-0.8627,-0.9509,-0.8432,-0.8038,-0.8038,-0.8038,-0.7879,-0.7628,-0.7512,-0.735,-0.7153,-0.7093,-0.808,-0.9553,-1.0238,-1.1179,-1.2234,-1.3145,0.0,0.0,0.0,0.0,0.0,0.0,0.0,0.0,0.0,0.0,0.0,0.0,0.0,0.0,0.0,0.0,0.0,0.0,0.0,0.0,-2.1318,-2.2227,-2.3791,-2.6495,-2.6738,-2.744,-2.9534,-2.9792,-2.9792,-2.9792,-2.9792,-2.9792,-2.9792,-2.9792,-3.0432,-3.1974,-3.27,-3.3916,-3.5701,-3.5918,-3.6134,-3.6297,-3.5774,-3.5504,-3.5504,0.0,0.0,-3.5504,-3.5504,-3.5504,-3.5489,-3.537,-3.531,-3.5235,-3.4427,-3.304,-3.1366,-3.0756,-2.9871,-2.8856,-2.7689,-2.5968,-2.4266,0.0,0.0,0.0,0.0,0.0,0.0,0.0,0.0,0.0,0.0,-1.1185,-1.1178,-1.111,-1.0805,-1.0837,-1.1442,-1.0416,0.0,0.0,0.0,0.0,0.0,0.0,0.0,0.0,-0.7926,-0.8038,-0.8038,-0.8038,-0.8038,-0.8038,-0.8038,-0.8333,-0.892,-0.8336,-0.8333,-0.892,-0.8233,-0.8038,-0.8038,-0.8038,-0.795,-0.7821,-0.7821,-0.8101,-0.8482,-0.8234,-0.9466,-1.1273,-1.1316,-1.2143,-1.3174,-1.3437,-1.3195,-1.2782,0.0,0.0,0.0,0.0,0.0,0.0,0.0,0.0,0.0,0.0,0.0,0.0,0.0,0.0,-1.8916,0.0,0.0,-2.1894,-2.2978,-2.3516,-2.4466,-2.6333,-2.6929,-2.7868,-2.9608,-2.9792,-2.9792,-2.9792,-2.9792,-2.9792,-2.9792,-3.056,-3.1428,-3.2347,-3.3935,-3.5225,-3.6197,-3.6722,-3.6941,-3.6941,-3.6626,-3.6312,-3.5998,-3.5998,-3.5818,-3.5504,-3.5504,-3.5504,-3.5439,-3.4986,-3.5052,-3.5379,-3.4292,-3.2946,-3.1516,-2.9987,-2.8934,-2.8172,-2.7346,-2.6056,-2.4648,0.0,0.0,0.0,0.0,0.0,0.0,0.0,0.0,0.0,0.0,0.0,-1.1856,-1.1814,-1.131,-1.1265,0.0,0.0,0.0,0.0,0.0,0.0,0.0,0.0,0.0,0.0,0.0,-0.8038,-0.8038,-0.8038,-0.8038,-0.8038,-0.8233,-0.8531,-0.8726,-0.8528,-0.8531,-0.8726,-0.8233,-0.8058,-0.8082,-0.8052,-0.8058,-0.8082,-0.8347,-0.9,-0.99,-0.9746,-1.1005,-1.2738,-1.2365,-1.3081,-1.3941,-1.3581,-1.3601,-1.3539,-1.2448,-1.2721,0.0,0.0,0.0,0.0,0.0,0.0,0.0,0.0,0.0,-1.8652,-1.916,-1.9883,-2.0771,-2.1924,-2.2549,-2.3242,-2.4365,-2.4541,-2.4993,-2.642,-2.7382,-2.8372,-2.982,-2.9955,-2.9955,-2.9955,-2.9955,-2.9955,-2.9955,-3.1409,-3.2478,-3.2617,-3.4857,-3.6245,-3.6459,-3.7223,-3.7599,-3.7599,-3.7479,-3.7165,-3.6656,-3.6552,-3.6207,-3.5684,-3.5564,-3.5359,-3.5133,-3.4177,-3.4177,-3.4795,-3.3245,-3.2273,-3.1537,-2.9293,-2.8359,-2.8111,-2.7072,-2.6018,-2.4975,0.0,0.0,0.0,0.0,0.0,0.0,0.0,0.0,0.0,0.0,0.0,0.0,0.0,0.0,0.0,0.0,0.0,0.0,0.0,0.0,0.0,0.0,0.0,0.0,0.0,0.0,0.0,-0.8038,-0.8038,-0.8038,-0.8038,-0.9217,-1.0391,-1.1458,-1.0288,-1.0386,-1.1263,-0.9019,-0.8119,-0.8235,-0.8096,-0.8123,-0.833,-0.9375,-0.9701,-0.9627,-1.0622,-1.1336,-1.1859,-1.2026,-1.2788,-1.3774,-1.4229,-1.3988,-1.3487,-1.2891,0.0,-1.2217,-1.2512,-1.3096,-1.4098,-1.5972,-1.6224,-1.6895,0.0,0.0,-2.0518,-2.1348,-2.1894,-2.2383,-2.292,-2.3672,-2.4375,-2.4912,-2.5,-2.5805,-2.7962,-2.812,-2.851,-3.0343,-3.052,-3.052,-3.052,-3.052,-3.052,-3.052,-3.2006,-3.3282,-3.408,-3.5889,-3.7302,-3.8132,-3.8202,-3.8287,-3.8287,-3.7704,-3.7375,-3.73,-3.6746,-3.6447,-3.6357,-3.5774,-3.4986,-3.4109,-3.3171,-3.282,-3.2848,-3.1294,-3.0668,-3.0405,-2.8779,-2.8293,-2.8237,-2.6394,-2.5353,-2.476,0.0,0.0,0.0,0.0,0.0,0.0,0.0,0.0,0.0,0.0,0.0,0.0,0.0,0.0,0.0,0.0,0.0,0.0,0.0,0.0,0.0,0.0,0.0,0.0,0.0,0.0,0.0,0.0,-0.8038,-0.8432,-0.9217,-0.9706,-1.0681,-1.1848,-1.0583,-1.0293,-1.0681,-0.8825,-0.8075,-0.813,-0.8065,-0.8079,-0.8306,-0.9974,-1.0242,-0.9766,-1.0994,-1.1862,0.0,0.0,-1.3358,-1.4073,-1.4543,-1.4519,-1.3959,-1.281,-1.2471,0.0,-1.3381,-1.4474,0.0,0.0,-1.7667,-1.961,-2.0251,-2.1272,-2.2236,-2.2861,-2.3525,-2.4053,-2.4238,-2.4775,-2.5244,0.0,-2.5459,-2.5914,-2.7274,-2.7953,-2.8699,-2.9844,-3.0369,-3.0495,-3.0168,-3.0131,-3.0269,-3.0595,-3.2097,-3.3614,-3.4941,-3.6959,-3.8368,-3.8934,-3.9364,-3.9379,-3.899,-3.8706,-3.8377,-3.7973,-3.733,-3.6836,-3.6462,-3.5804,-3.4624,-3.3171,-3.2749,-3.2321,-3.1729,-3.115,-3.0837,-3.0711,-2.9147,-2.8442,-2.8119,-2.6993,-2.6349,-2.5936,0.0,0.0,0.0,0.0,0.0,0.0,0.0,0.0,0.0,0.0,0.0,0.0,0.0,0.0,0.0,0.0,0.0,0.0,0.0,0.0,0.0,0.0,0.0,0.0,0.0,0.0,0.0,0.0,-0.9114,-0.9608,-1.0485,-1.0872,-1.1556,-1.2431,-1.1458,-1.0872,-1.0485,-0.9118,-0.8357,-0.8099,-0.8058,-0.811,-0.8517,-1.0177,-1.0463,-1.0085,-1.1393,-1.2094,0.0,0.0,-1.323,-1.3894,-1.4184,-1.4364,-1.4253,-1.3372,-1.344,-1.3852,-1.4258,0.0,0.0,-1.6691,-1.9154,-2.1501,-2.082,-2.2111,-2.3584,-2.3896,-2.4453,-2.4893,-2.4893,-2.5156,-2.541,-2.5537,-2.5557,-2.5899,-2.7101,-2.805,-2.8885,-2.9786,-3.0338,-3.0407,-2.9842,-3.0068,-3.0394,-3.0796,-3.2685,-3.4281,-3.5186,-3.7619,-3.894,-3.8958,-3.9727,-3.9903,-3.9424,-3.9424,-3.917,-3.8661,-3.7823,-3.7029,-3.6348,-3.4937,-3.3547,-3.2177,-3.1974,-3.1402,-3.0833,-3.0833,-3.0833,-3.0719,-2.9606,-2.8825,-2.8285,-2.7883,-2.7334,-2.6648,0.0,0.0,0.0,0.0,0.0,0.0,0.0,0.0,0.0,0.0,0.0,0.0,0.0,0.0,0.0,0.0,0.0,0.0,0.0,0.0,0.0,0.0,0.0,0.0,0.0,0.0,0.0,0.0,0.0,-1.1755,-1.1853,-1.3199,-1.3776,-1.3878,-1.3776,-1.3102,-1.1755,-1.0485,-0.9314,-0.8252,-0.8099,-0.8532,-0.9374,-0.9995,-1.0249,-1.0541,-1.1813,0.0,0.0,0.0,-1.1667,-1.2781,-1.2624,-1.3317,0.0,-1.5049,-1.5707,0.0,0.0,0.0,-1.7395,-1.9353,-2.0513,-2.1612,-2.3239,-2.4053,-2.4385,-2.4394,-2.4414,-2.4434,-2.4434,-2.4443,-2.459,-2.5019,-2.5088,-2.5896,-2.823,-2.8589,-2.9109,-3.0425,-3.0633,-3.0407,0.0,-3.0733,-3.1348,-3.1361,-3.4313,-3.5694,-3.4802,-3.7677,-3.8885,-3.7904,-3.8885,-3.9439,-3.9424,-3.9424,-3.9409,-3.9364,-3.8048,-3.6946,-3.5913,-3.2782,-3.1315,-3.118,-3.0279,-2.9869,-2.9856,-2.9856,-2.9856,-2.9869,-2.9779,-2.9415,-2.89,-2.8888,-2.7833,-2.642,0.0,0.0,0.0,0.0,0.0,0.0,0.0,0.0,0.0,0.0,0.0,0.0,0.0,0.0,0.0,0.0,0.0,0.0,0.0,0.0,0.0,0.0,0.0,0.0,0.0,0.0,0.0,0.0,0.0,0.0,-1.2625,-1.3084,-1.3833,-1.4871,-1.4002,-1.3429,-1.3091,-1.0821,-0.9656,-0.9194,-0.8512,-0.8409,-0.882,-0.9881,-0.9954,-0.9627,0.0,0.0,0.0,0.0,-1.2019,-1.3006,-1.3092,0.0,0.0,-1.4701,-1.5237,-1.5942,0.0,0.0,-1.9871,-2.0657,-2.2326,-2.3696,-2.3505,-2.4383,-2.5205,-2.4912,-2.4619,-2.4336,-2.4053,-2.4004,-2.4043,-2.4199,-2.4697,-2.5674,-2.7348,-2.8165,-2.8982,-2.9995,-3.0394,0.0,0.0,0.0,0.0,-3.1336,-3.2423,-3.3522,-3.4624,-3.7174,-3.8367,-3.7857,-3.9697,-3.9773,-3.7843,-3.8178,-3.7649,-3.6194,-3.5324,-3.4469,-3.3704,-3.2004,-3.118,-3.118,-3.0216,-2.9792,-2.9792,-2.9792,-2.9792,-2.9792,-2.9792,-2.944,-2.8925,-2.8925,-2.8348,-2.7519,0.0,0.0,0.0,0.0,0.0,0.0,0.0,0.0,0.0,0.0,0.0,0.0,0.0,0.0,0.0,0.0,0.0,0.0,0.0,0.0,0.0,0.0,0.0,0.0,0.0,0.0,0.0,0.0,0.0,0.0,-1.3128,-1.3555,-1.3972,-1.4456,-1.3999,-1.3426,-1.2852,-1.099,-0.992,-0.9437,-0.8658,-0.8569,-0.8859,-0.9748,-0.9876,0.0,0.0,0.0,0.0,0.0,0.0,-1.3201,-1.3131,-1.4145,-1.5364,-1.5331,-1.6201,-1.7629,-1.9515,-2.081,-2.1804,-2.2479,-2.3868,-2.4869,-2.4078,-2.4689,-2.5244,-2.4336,-2.3935,-2.3516,-2.2773,-2.251,-2.2607,-2.3232,-2.3672,-2.4645,-2.6509,-2.7656,-2.8671,-2.9646,-3.0418,-3.0746,0.0,0.0,0.0,-3.1336,-3.2148,-3.3014,-3.4069,-3.6252,-3.7201,-3.6674,-3.8529,-3.8601,-3.676,-3.7068,-3.6324,-3.4505,-3.3731,-3.2968,-3.2033,-3.1329,-3.089,-3.0696,-3.0075,-2.9792,-2.9792,-2.9792,-2.9792,-2.9792,-2.9792,-2.9566,-2.9239,-2.9239,-2.9013,-2.8649,0.0,0.0,0.0,0.0,0.0,0.0,0.0,0.0,0.0,0.0,0.0,0.0,0.0,0.0,0.0,0.0,0.0,0.0,0.0,0.0,0.0,0.0,0.0,0.0,0.0,0.0,0.0,0.0,0.0,0.0,-1.3353,-1.4448,-1.4164,-1.2864,-1.3908,-1.325,-1.1272,-1.0941,-1.0135,-0.8944,-0.856,0.0,-0.9496,-0.9633,0.0,0.0,0.0,0.0,0.0,0.0,0.0,0.0,0.0,0.0,-1.7344,-1.7002,-1.8672,-2.082,-2.1709,-2.2295,-2.3037,-2.4687,-2.5088,-2.5068,-2.5068,-2.5019,-2.4502,-2.2822,-2.2422,-2.1992,0.0,0.0,-2.0459,-2.2139,-2.2168,-2.2964,-2.5654,-2.7183,-2.8418,0.0,0.0,0.0,0.0,0.0,0.0,-3.1512,0.0,-3.4191,-3.3154,-3.5087,-3.5722,-3.4746,-3.5695,-3.6225,-3.6077,-3.5971,-3.5393,-3.4293,-3.3403,-3.2354,-3.1211,-3.0815,-3.0331,-2.9829,-2.9804,-2.9792,-2.9792,-2.9792,-2.9792,-2.9792,-2.9792,-2.9792,-2.9792,-2.9792,-2.9792,-2.9641,0.0,0.0,0.0,0.0,0.0,0.0,0.0,0.0,0.0,0.0,0.0,0.0,0.0,0.0,0.0,0.0,0.0,0.0,0.0,0.0,0.0,0.0,0.0,0.0,0.0,0.0,0.0,0.0,0.0,0.0,-1.3431,-1.3781,-1.3824,0.0,-1.3945,-1.3542,-1.2709,-1.1573,-1.0583,-0.9737,0.0,-0.9086,-0.9808,0.0,0.0,0.0,0.0,0.0,0.0,0.0,0.0,0.0,0.0,-1.667,-1.8018,-1.8857,-2.0264,-2.1738,-2.2588,-2.3603,-2.46,-2.5371,-2.5312,-2.5068,-2.5068,-2.4326,-2.335,-2.2266,-2.126,-2.0283,0.0,0.0,0.0,-2.0937,-2.2324,0.0,-2.5363,-2.7542,0.0,-2.9579,0.0,-3.2001,-3.2001,-3.2001,0.0,0.0,-3.3389,-3.3398,-3.3081,-3.5227,-3.5871,-3.4772,-3.6198,-3.6141,-3.446,-3.3247,-3.2632,-3.2774,-3.212,-3.1627,-3.1334,-3.08,-3.0545,-3.0382,-2.9967,-2.9792,-2.9792,-2.9792,-2.9792,-2.9792,-2.9792,-2.9792,-2.9792,-2.9792,-2.9792,-2.9754,0.0,0.0,0.0,0.0,0.0,0.0,0.0,0.0,0.0,0.0,0.0,0.0,0.0,0.0,0.0,0.0,0.0,0.0,0.0,0.0,0.0,0.0,0.0,0.0,0.0,0.0,0.0,0.0,0.0,0.0,0.0,-1.3246,-1.3243,-1.2773,-1.3238,-1.3164,-1.2545,0.0,0.0,0.0,0.0,0.0,0.0,0.0,0.0,0.0,0.0,0.0,0.0,0.0,0.0,-1.6465,-1.71,-1.8135,-1.9346,-2.0459,0.0,-2.2666,-2.3701,-2.4512,-2.5176,-2.5625,-2.54,-2.4873,-2.4111,-2.3252,-2.2148,-2.0518,-1.959,0.0,0.0,0.0,0.0,0.0,0.0,0.0,-2.4654,-2.7176,-2.898,0.0,-3.1527,0.0,-3.2955,-3.3169,-3.3583,0.0,-3.3746,-3.3545,-3.3784,-3.5058,-3.5318,-3.4353,-3.5279,-3.5002,-3.3545,-3.2333,-3.1901,-3.2215,-3.1901,-3.1625,-3.1386,-3.1336,-3.1185,-3.0922,0.0,-3.0156,-3.0131,-2.9892,-2.9792,-2.9792,-2.9792,-2.9792,-2.9792,-2.9792,-2.9792,-2.9792,0.0,0.0,0.0,0.0,0.0,0.0,0.0,0.0,0.0,0.0,0.0,0.0,0.0,0.0,0.0,0.0,0.0,0.0,0.0,0.0,0.0,0.0,0.0,0.0,0.0,0.0,0.0,0.0,0.0,0.0,0.0,0.0,0.0,0.0,0.0,0.0,0.0,0.0,0.0,0.0,0.0,0.0,0.0,0.0,0.0,0.0,0.0,0.0,0.0,0.0,-1.6602,-1.7305,-1.8164,-1.9531,-2.0996,-2.1885,-2.2695,-2.3564,-2.4746,-2.5117,-2.5234,-2.5566,-2.5273,-2.4463,-2.2803,-2.1973,-2.084,-1.835,0.0,-1.749,-1.6631,-1.6621,-1.7346,-1.9492,0.0,-2.1183,-2.4185,-2.6683,-2.8587,-2.9659,-3.2207,-3.396,-3.411,-3.4487,-3.4776,-3.4926,-3.4424,-3.4299,-3.47,-3.4788,-3.455,-3.3922,-3.3897,-3.3633,-3.3081,-3.2579,-3.2328,-3.2328,-3.2328,-3.2077,-3.1625,-3.2026,-3.1913,-3.1361,-3.0922,-3.0683,-3.057,-3.0093,-2.9942,-2.9993,-2.9854,-2.9829,-2.9892,-2.9817,-2.9792,-2.9792,0.0,0.0,0.0,0.0,0.0,0.0,0.0,0.0,0.0,0.0,0.0,0.0,0.0,0.0,0.0,0.0,0.0,0.0,0.0,0.0,0.0,0.0,0.0,0.0,0.0,0.0,0.0,0.0,0.0,0.0,0.0,0.0,0.0,0.0,0.0,0.0,0.0,0.0,0.0,0.0,0.0,0.0,0.0,0.0,0.0,0.0,0.0,0.0,0.0,0.0,-1.7842,-1.9512,-2.04,-2.1367,-2.2344,-2.3203,-2.3809,-2.4326,-2.4912,-2.5342,-2.5557,-2.5254,-2.459,-2.3662,-2.2305,-2.082,0.0,0.0,0.0,-1.6143,-1.5283,-1.6006,0.0,-1.9102,0.0,0.0,0.0,0.0,-2.9374,0.0,0.0,0.0,0.0,0.0,0.0,0.0,0.0,-3.5102,-3.4738,-3.5152,-3.4939,-3.3935,-3.3897,-3.3633,-3.3081,-3.298,-3.293,-3.293,-3.293,-3.288,-3.2767,-3.239,-3.1913,-3.1386,-3.1298,0.0,-3.0608,-3.0507,-3.0721,-3.1022,-3.0143,-3.0068,-3.0419,-2.9955,-2.9792,-2.9792,0.0,0.0,0.0,0.0,0.0,0.0,0.0,0.0,0.0,0.0,0.0,0.0,0.0,0.0,0.0,0.0,0.0,0.0,0.0,0.0,0.0,0.0,0.0,0.0,0.0,0.0,0.0,0.0,0.0,0.0,0.0,0.0,0.0,0.0,0.0,0.0,0.0,0.0,0.0,0.0,0.0,0.0,0.0,0.0,0.0,0.0,0.0,0.0,0.0,0.0,-1.7324,-1.9228,-2.1016,-2.2158,-2.3008,-2.3867,-2.4258,-2.456,-2.5234,-2.5576,-2.5635,-2.5176,-2.4248,-2.2998,-2.126,0.0,0.0,0.0,0.0,-1.5273,-1.4863,0.0,0.0,0.0,0.0,0.0,0.0,0.0,0.0,0.0,0.0,0.0,0.0,0.0,0.0,0.0,0.0,-3.5855,-3.5592,-3.5554,-3.5177,-3.4349,-3.4048,-3.3633,-3.3081,-3.3081,-3.3081,-3.3081,-3.3081,-3.3081,-3.3068,-3.2792,-3.2516,-3.2252,-3.1951,-3.1675,-3.1424,-3.1135,-3.1173,-3.1311,-3.0532,-3.0382,-3.0557,-2.9993,-2.9792,-2.9792,0.0,0.0,0.0,0.0,0.0,0.0,0.0,0.0,0.0,0.0,0.0,0.0,0.0,0.0,0.0,0.0,0.0,0.0,0.0,0.0,0.0,0.0,0.0,0.0,0.0,0.0,0.0,0.0,0.0,0.0,0.0,0.0,0.0,0.0,0.0,0.0,0.0,0.0,0.0,0.0,0.0,0.0,0.0,0.0,0.0,0.0,0.0,0.0,0.0,0.0,-1.6475,-1.7852,-2.0328,-2.1889,-2.3018,-2.3789,-2.4199,-2.459,-2.5381,-2.5596,-2.5488,-2.5039,-2.3887,-2.2324,-2.0254,-1.8789,0.0,0.0,-1.4863,-1.4893,-1.4805,0.0,0.0,0.0,0.0,0.0,0.0,0.0,0.0,0.0,0.0,0.0,0.0,0.0,0.0,0.0,0.0,0.0,-3.6358,-3.5956,-3.5416,-3.4751,-3.4299,-3.3759,-3.3081,-3.3081,-3.3081,-3.3081,-3.3081,-3.3081,-3.3081,-3.3081,-3.3006,-3.2867,-3.2541,-3.2328,-3.2177,-3.175,-3.1637,-3.1675,-3.0909,-3.0683,-3.0708,-3.003,-2.9792,-2.9792,0.0,0.0,0.0,0.0,0.0,0.0,0.0,0.0,0.0,0.0,0.0,0.0,0.0,0.0,0.0,0.0,0.0,0.0,0.0,0.0,0.0,0.0,0.0,0.0,0.0,0.0,0.0,0.0,0.0,0.0,0.0,0.0,0.0,0.0,0.0,0.0,0.0,0.0,0.0,0.0,0.0,0.0,0.0,0.0,0.0,0.0,0.0,0.0,0.0,0.0,0.0,-1.6009,-1.8009,-2.0216,-2.209,-2.2549,0.0,0.0,-2.5,-2.5127,-2.5019,-2.459,-2.3232,-2.1533,-1.9746,0.0,0.0,0.0,-1.5088,-1.5234,-1.4853,-1.5127,0.0,0.0,0.0,0.0,0.0,0.0,0.0,0.0,0.0,0.0,0.0,0.0,0.0,0.0,0.0,0.0,-3.6358,-3.632,-3.5805,-3.4751,-3.4675,-3.4135,-3.3081,-3.3081,-3.3081,-3.3081,-3.3081,-3.3081,-3.3081,-3.3081,-3.2792,-3.2315,-3.2792,-3.2704,0.0,-3.2152,-3.2453,-3.2767,-3.1223,-3.0896,-3.1198,-3.0168,-2.9792,-2.9792,0.0,0.0,0.0,0.0,0.0,0.0,0.0,0.0,0.0,0.0,0.0,0.0,0.0,0.0,0.0,0.0,0.0,0.0,0.0,0.0,0.0,0.0,0.0,0.0,0.0,0.0,0.0,0.0,0.0,0.0,0.0,0.0,0.0,0.0,0.0,0.0,0.0,0.0,0.0,0.0,0.0,0.0,0.0,0.0,0.0,0.0,0.0,0.0,0.0,0.0,0.0,0.0,-1.5646,-1.7145,0.0,0.0,-2.208,-2.3154,-2.4355,-2.4678,-2.4639,-2.4463,-2.2949,-2.1103,-1.9629,0.0,0.0,-1.5088,-1.4922,-1.498,-1.4814,-1.4922,-1.5651,0.0,0.0,0.0,0.0,0.0,0.0,0.0,0.0,0.0,0.0,0.0,0.0,0.0,0.0,0.0,-3.5893,-3.5868,-3.5366,-3.4261,-3.4223,-3.3859,-3.3081,-3.3081,-3.3081,-3.3081,-3.3081,-3.3081,-3.3081,-3.3081,-3.2955,-3.2754,-3.298,-3.2943,0.0,-3.2729,-3.2867,-3.2943,-3.1599,-3.121,-3.126,-3.0193,-2.9792,-2.9792,0.0,0.0,0.0,0.0,0.0,0.0,0.0,0.0,0.0,0.0,0.0,0.0,0.0,0.0,0.0,0.0,0.0,0.0,0.0,0.0,0.0,0.0,0.0,0.0,0.0,0.0,0.0,0.0,0.0,0.0,0.0,0.0,0.0,0.0,0.0,0.0,0.0,0.0,0.0,0.0,0.0,0.0,0.0,0.0,0.0,0.0,0.0,0.0,0.0,0.0,0.0,0.0,0.0,0.0,0.0,0.0,-2.073,-2.2207,-2.3359,-2.4277,-2.4905,-2.4556,-2.2918,-2.0991,0.0,0.0,-1.6074,-1.5156,-1.4873,-1.487,-1.5223,-1.5299,-1.5838,0.0,0.0,0.0,0.0,0.0,0.0,0.0,0.0,0.0,0.0,0.0,0.0,0.0,0.0,0.0,-3.5341,-3.5303,-3.4864,-3.3935,-3.3897,-3.3633,-3.3081,-3.3081,-3.3081,-3.3081,-3.3081,-3.3081,-3.3081,-3.3081,-3.3081,-3.3081,-3.3081,-3.3081,0.0,-3.3081,-3.3081,-3.2968,-3.1825,-3.1386,-3.126,-3.0193,-2.9792,-2.9792,0.0,0.0,0.0,0.0,0.0,0.0,0.0,0.0,0.0,0.0,0.0,0.0,0.0,0.0,0.0,0.0,0.0,0.0,0.0,0.0,0.0,0.0,0.0,0.0,0.0,0.0,0.0,0.0,0.0,0.0,0.0,0.0,0.0,0.0,0.0,0.0,0.0,0.0,0.0,0.0,0.0,0.0,0.0,0.0,0.0,0.0,0.0,0.0,0.0,0.0,0.0,0.0,0.0,0.0,0.0,0.0,-1.9596,-2.1963,-2.1895,-2.4064,-2.5986,-2.4914,-2.3098,-2.1352,0.0,0.0,-1.542,-1.541,-1.5078,-1.5127,-1.6285,-1.6482,-1.6978,-1.8447,0.0,0.0,0.0,0.0,0.0,0.0,0.0,0.0,0.0,0.0,0.0,0.0,0.0,0.0,-3.4788,-3.4726,-3.4474,-3.3922,-3.3897,-3.3633,-3.3081,-3.3081,-3.3081,-3.3081,-3.3081,-3.3081,-3.3081,-3.3081,-3.3081,-3.3081,-3.3081,-3.3081,0.0,-3.3081,-3.3081,-3.2968,-3.1825,-3.1386,-3.126,-3.0193,-2.9792,-2.9792,0.0,0.0,0.0,0.0,0.0,0.0,0.0,0.0,0.0,0.0,0.0,0.0,0.0,0.0,0.0,0.0,0.0,0.0,0.0,0.0,0.0,0.0,0.0,0.0,0.0,0.0,0.0,0.0,0.0,0.0,0.0,0.0,0.0,0.0,0.0,0.0,0.0,0.0,0.0,0.0,0.0,0.0,0.0,0.0,0.0,0.0,0.0,0.0,0.0,0.0,0.0,0.0,0.0,0.0,0.0,0.0,0.0,0.0,-1.9066,-2.0429,-2.1597,-2.1248,-2.0056,-1.8718,-1.8114,0.0,-1.4902,-1.46,-1.4434,-1.4681,-1.5862,-1.6111,-1.6808,-1.8979,-1.9471,0.0,0.0,0.0,0.0,0.0,0.0,0.0,0.0,0.0,0.0,0.0,0.0,-3.4926,-3.4198,-3.4161,-3.3909,-3.3357,-3.3332,-3.3257,-3.3081,-3.3081,-3.3081,-3.3081,-3.3081,-3.3081,-3.3081,-3.3081,-3.2855,-3.2503,-3.2905,-3.2855,-3.2491,-3.2491,-3.2491,-3.2378,-3.1286,-3.0859,-3.0771,-3.0055,-2.9792,-2.9792,0.0,0.0,0.0,0.0,0.0,0.0,0.0,0.0,0.0,0.0,0.0,0.0,0.0,0.0,0.0,0.0,0.0,0.0,0.0,0.0,0.0,0.0,0.0,0.0,0.0,0.0,0.0,0.0,0.0,0.0,0.0,0.0,0.0,0.0,0.0,0.0,0.0,0.0,0.0,0.0,0.0,0.0,-1.2881,0.0,0.0,0.0,0.0,0.0,0.0,0.0,0.0,0.0,0.0,0.0,0.0,0.0,-1.4336,0.0,0.0,-1.8613,-1.9876,-1.941,-1.849,-1.7525,-1.7074,0.0,-1.4268,-1.4107,-1.4152,-1.4572,-1.5806,-1.6339,-1.7255,-1.9059,-1.9721,0.0,0.0,0.0,0.0,0.0,0.0,0.0,0.0,0.0,0.0,0.0,-3.4613,-3.4487,-3.3935,-3.3897,-3.3646,-3.3093,-3.3081,-3.3081,-3.3081,-3.3081,-3.3081,-3.3081,-3.3081,-3.2968,-3.2754,-3.2754,-3.2441,-3.1926,-3.2277,-3.224,0.0,-3.1901,-3.1901,-3.1813,-3.0959,-3.062,-3.0557,-2.9993,-2.9792,-2.9792,0.0,0.0,0.0,0.0,0.0,0.0,0.0,0.0,0.0,0.0,0.0,0.0,0.0,0.0,0.0,0.0,0.0,0.0,0.0,0.0,0.0,0.0,0.0,0.0,0.0,0.0,0.0,0.0,-0.8784,-0.8784,-0.8804,0.0,0.0,0.0,0.0,0.0,0.0,0.0,0.0,0.0,0.0,0.0,0.0,0.0,0.0,0.0,0.0,0.0,0.0,0.0,0.0,0.0,0.0,0.0,0.0,0.0,0.0,0.0,0.0,0.0,0.0,0.0,-1.7959,-1.7313,-1.6759,0.0,0.0,0.0,-1.4164,-1.4665,-1.597,-1.703,-1.8005,-1.9008,0.0,0.0,0.0,0.0,0.0,0.0,0.0,0.0,0.0,0.0,0.0,-3.3684,-3.4198,-3.4261,-3.3746,-3.3721,-3.3483,-3.2968,-3.2955,-3.2993,-3.3081,-3.3081,-3.3056,-3.3018,-3.3056,-3.2754,-3.2152,-3.219,-3.1888,0.0,-3.1373,-3.1373,-3.1336,-3.1336,-3.1336,-3.1286,-3.0758,-3.0557,-3.0495,-2.998,-2.9792,-2.9792,0.0,0.0,0.0,0.0,0.0,0.0,0.0,0.0,0.0,0.0,0.0,0.0,0.0,0.0,0.0,0.0,0.0,0.0,0.0,0.0,0.0,0.0,0.0,0.0,0.0,0.0,0.0,-0.8804,-0.8584,-0.8591,-0.8804,-0.8804,0.0,0.0,0.0,0.0,0.0,0.0,0.0,0.0,0.0,0.0,0.0,0.0,0.0,0.0,-1.1484,-1.1275,0.0,0.0,0.0,0.0,0.0,0.0,0.0,0.0,-1.2144,-1.241,-1.3404,0.0,-1.5698,-1.5139,-1.4835,-1.4705,0.0,0.0,0.0,0.0,0.0,-1.3831,-1.5616,-1.5879,-1.6886,0.0,0.0,0.0,0.0,0.0,0.0,0.0,0.0,0.0,0.0,0.0,0.0,-3.1964,-3.2102,-3.2114,-3.1989,-3.1989,-3.1913,-3.1788,-3.1788,-3.2202,-3.3068,-3.3081,-3.2855,-3.2416,-3.2867,-3.2554,-3.1599,-3.2026,-3.1687,-3.0821,-3.1223,-3.1173,-3.0796,-3.0796,-3.0796,-3.0746,-3.0193,-2.9993,-2.9967,-2.9842,-2.9792,-2.9792,0.0,0.0,0.0,0.0,0.0,0.0,0.0,0.0,0.0,0.0,0.0,0.0,0.0,0.0,0.0,0.0,0.0,0.0,0.0,0.0,0.0,0.0,0.0,0.0,0.0,0.0,0.0,0.0,0.0,-0.8651,0.0,0.0,0.0,0.0,0.0,0.0,0.0,0.0,0.0,0.0,-1.1823,0.0,0.0,0.0,0.0,0.0,-1.1065,-1.0813,0.0,-1.0415,-1.0568,-1.0771,0.0,0.0,0.0,0.0,-1.1566,-1.1873,-1.2304,-1.3154,-1.3922,-1.3738,-1.3677,-1.3677,0.0,0.0,0.0,0.0,0.0,0.0,-1.4976,0.0,0.0,0.0,0.0,0.0,0.0,0.0,0.0,0.0,0.0,0.0,0.0,0.0,-3.1135,-3.1373,-3.1386,-3.1386,-3.1386,-3.1386,-3.1386,-3.1386,-3.1386,-3.1687,-3.2303,-3.2303,-3.2152,-3.1838,-3.2152,-3.1863,-3.1047,-3.1336,-3.1022,-3.0256,-3.0532,-3.0495,-3.0231,-3.0231,-3.0231,-3.0206,-2.9905,-2.9792,-2.9792,-2.9792,-2.9792,-2.9792,0.0,0.0,0.0,0.0,0.0,0.0,0.0,0.0,0.0,0.0,0.0,0.0,0.0,0.0,0.0,0.0,0.0,0.0,0.0,0.0,0.0,0.0,0.0,0.0,0.0,0.0,0.0,0.0,0.0,0.0,0.0,0.0,0.0,0.0,0.0,0.0,0.0,0.0,0.0,0.0,-1.1316,0.0,0.0,0.0,0.0,0.0,0.0,0.0,0.0,-0.9865,-1.0012,-1.0415,-0.9814,0.0,0.0,0.0,0.0,0.0,-1.1663,-1.2448,-1.3221,-1.3377,-1.3506,-1.3584,0.0,0.0,0.0,0.0,0.0,0.0,0.0,0.0,0.0,0.0,0.0,0.0,0.0,0.0,0.0,0.0,0.0,0.0,0.0,-3.0495,-3.067,-3.111,-3.1148,-3.1148,-3.1148,-3.1148,-3.1148,-3.1148,-3.1148,-3.1148,-3.1148,-3.1311,-3.1348,-3.1273,-3.1348,-3.1072,-3.0495,-3.057,-3.0319,-2.9792,0.0,0.0,-2.9792,-2.9792,-2.9792,-2.9792,-2.9792,-2.9792,-2.9792,-2.9792,-2.9792,-2.9792,0.0,0.0,0.0,0.0,0.0,0.0,0.0,0.0,0.0,0.0,0.0,0.0,0.0,0.0,0.0,0.0,0.0,0.0,0.0,0.0,0.0,0.0,0.0,0.0,0.0,0.0,0.0,0.0,0.0,0.0,-0.8029,-0.859,-0.8804,0.0,0.0,0.0,0.0,-0.9961,-1.0261,-1.0762,-1.0312,0.0,0.0,0.0,0.0,0.0,0.0,0.0,0.0,-0.9008,-0.9008,-0.9113,-0.9008,0.0,0.0,0.0,0.0,0.0,-1.1149,-1.1589,-1.1983,-1.28,-1.3516,-1.3945,0.0,0.0,0.0,0.0,0.0,0.0,0.0,0.0,0.0,0.0,0.0,0.0,0.0,0.0,0.0,0.0,0.0,0.0,-2.9905,-2.9917,-2.9955,-3.003,-3.0043,-3.0043,-3.0043,-3.0043,-3.0043,-3.0043,-3.0043,-3.0043,-3.0043,-3.0934,-3.1173,-3.0733,-3.1185,-3.0871,-2.993,-3.0407,-3.0319,-2.9792,0.0,-2.9792,-2.9792,-2.9792,-2.9792,-2.9792,-2.9792,-2.9792,-2.9792,-2.9792,-2.9792,-2.9792,0.0,0.0,0.0,0.0,0.0,0.0,0.0,0.0,0.0,0.0,0.0,0.0,0.0,0.0,0.0,0.0,0.0,0.0,0.0,0.0,0.0,0.0,0.0,0.0,0.0,0.0,0.0,0.0,0.0,-0.7935,-0.7833,-0.8485,-0.8804,-0.8804,0.0,0.0,0.0,-0.9263,-0.9465,-0.9718,0.0,0.0,0.0,0.0,0.0,0.0,0.0,0.0,0.0,0.0,-0.8804,-0.8804,-0.8804,0.0,0.0,0.0,0.0,0.0,-1.036,-1.127,-1.1974,-1.179,-1.2498,-1.3265,0.0,0.0,0.0,0.0,0.0,0.0,0.0,0.0,0.0,0.0,0.0,0.0,0.0,0.0,0.0,0.0,0.0,-2.8786,-2.9677,-2.9792,-2.9792,-2.9792,-2.9792,-2.9792,-2.9792,-2.9792,-2.9792,-2.9792,-2.9792,-2.9792,-2.9792,-3.0281,-3.0407,-3.0168,-3.0419,-3.0269,-2.9804,-3.0055,-3.003,-2.9792,0.0,-2.9792,-2.9792,-2.9792,-2.9792,-2.9792,-2.9792,-2.9792,-2.9792,-2.9792,-2.9792,-2.9792,0.0,0.0,0.0,0.0,0.0,0.0,0.0,0.0,0.0,0.0,0.0,0.0,0.0,0.0,0.0,0.0,0.0,0.0,0.0,0.0,0.0,0.0,0.0,0.0,0.0,0.0,0.0,-0.712,-0.7359,-0.745,-0.7456,-0.789,-0.8164,0.0,0.0,0.0,0.0,-0.8533,-0.8646,-0.8857,0.0,0.0,0.0,0.0,0.0,0.0,0.0,0.0,0.0,0.0,0.0,0.0,0.0,0.0,0.0,-0.8804,-0.9159,-0.9577,-0.9657,-1.0737,-1.1679,-1.0892,0.0,0.0,0.0,0.0,0.0,0.0,0.0,0.0,0.0,0.0,0.0,0.0,0.0,0.0,0.0,0.0,0.0,0.0,0.0,-2.7746,-2.9238,-2.9209,-2.9209,-2.9792,-2.9534,-2.9534,-2.9792,-2.9792,-2.9792,-2.9792,-2.9792,-2.9792,-2.9792,-2.9792,-2.9792,-2.9792,-2.9792,-2.9792,-2.9792,-2.9792,-2.9792,-2.9792,-2.9792,-2.9792,-2.9792,-2.9792,-2.9792,-2.9792,-2.9792,-2.9792,-2.9792,-2.9792,-2.9792,-2.9792,0.0,0.0,0.0,0.0,0.0,0.0,0.0,0.0,0.0,0.0,0.0,0.0,0.0,0.0,0.0,0.0,0.0,0.0,0.0,0.0,0.0,0.0,0.0,0.0,0.0,-0.6817,-0.6779,-0.6671,-0.6686,-0.6696,-0.6647,-0.6234,-0.6276,0.0,0.0,0.0,0.0,-0.7777,-0.8156,-0.8804,-0.8857,0.0,0.0,0.0,0.0,0.0,0.0,0.0,0.0,0.0,0.0,0.0,0.0,0.0,-0.8804,-0.8804,-0.8857,-0.8918,-0.9186,-0.9596,-1.0075,-1.0256,0.0,0.0,-1.2694,0.0,0.0,0.0,0.0,0.0,0.0,0.0,0.0,0.0,0.0,0.0,0.0,0.0,0.0,0.0,-2.6591,-2.7012,-2.8084,-2.729,-2.7557,-2.9624,-2.8846,-2.8676,-2.9714,-2.9792,-2.9792,-2.9792,-2.9792,-2.9792,-2.9792,-2.9792,-2.9792,-2.9792,-2.9792,-2.9792,-2.9792,-2.9792,-2.9792,-2.9792,-2.9792,-2.9792,-2.9792,-2.9792,-2.9792,-2.9792,-2.9792,-2.9792,-2.9792,-2.9792,-2.9792,-2.9792,0.0,0.0,0.0,0.0,0.0,0.0,0.0,0.0,0.0,0.0,0.0,0.0,0.0,0.0,0.0,0.0,0.0,0.0,0.0,0.0,0.0,0.0,0.0,-0.6299,-0.6539,-0.6378,-0.6187,-0.5923,-0.5923,-0.5923,-0.5928,-0.6174,0.0,0.0,0.0,0.0,0.0,-0.7503,-0.7883,-0.8156,-0.8593,-0.8804,0.0,0.0,0.0,0.0,0.0,0.0,0.0,0.0,-0.8804,-0.8804,0.0,0.0,-0.8804,-0.8804,-0.8804,-0.8831,-0.8938,-0.9348,-0.974,-0.9464,0.0,0.0,0.0,0.0,0.0,0.0,0.0,0.0,0.0,0.0,0.0,0.0,0.0,0.0,0.0,0.0,-2.5022,-2.5979,-2.5442,-2.5524,-2.6565,-2.6538,-2.7001,-2.8137,-2.7855,-2.7956,-2.8687,-2.9063,-2.9101,-2.875,-2.9076,-2.9089,-2.875,-2.875,-2.875,-2.875,-2.9453,-2.9792,-2.9792,-2.9792,-2.9792,-2.9792,-2.9792,-2.9792,-2.9792,-2.9792,-2.9792,-2.9792,-2.9792,-2.9792,-2.9792,-2.9792,-2.9792,-2.9792,0.0,0.0,0.0,0.0,0.0,0.0,0.0,0.0,0.0,0.0,0.0,0.0,0.0,0.0,0.0,0.0,0.0,0.0,0.0,0.0,0.0,0.0,0.0,-0.6078,-0.5855,-0.5694,-0.5539,-0.54,-0.5245,-0.5164,-0.5218,0.0,0.0,0.0,0.0,0.0,0.0,0.0,-0.7122,-0.7402,-0.8156,-0.848,0.0,0.0,0.0,0.0,0.0,0.0,0.0,0.0,0.0,0.0,0.0,0.0,0.0,0.0,-0.8744,-0.8671,-0.8671,-0.9167,-0.9562,0.0,0.0,0.0,0.0,0.0,0.0,0.0,0.0,0.0,0.0,0.0,0.0,0.0,0.0,0.0,0.0,0.0,-2.3398,-2.4433,-2.3906,-2.3906,-2.4938,-2.5093,-2.5462,-2.6555,-2.6597,-2.6919,-2.757,-2.83,-2.8499,-2.8109,-2.8473,-2.8486,-2.8109,-2.8109,-2.8109,-2.8109,-2.8888,-2.9352,-2.9515,-2.9515,-2.9616,-2.9779,-2.9603,-2.9616,-2.9792,-2.9792,-2.9792,-2.9792,-2.9792,-2.9792,-2.9792,-2.9792,-2.9792,-2.9792,0.0,0.0,0.0,0.0,0.0,0.0,0.0,0.0,0.0,0.0,0.0,0.0,0.0,0.0,0.0,0.0,0.0,0.0,0.0,0.0,0.0,0.0,0.0,-0.5727,-0.4713,-0.4718,-0.4803,-0.5112,-0.4707,-0.4519,-0.4515,0.0,0.0,0.0,0.0,0.0,0.0,0.0,0.0,-0.6642,-0.7396,-0.767,-0.7777,0.0,0.0,0.0,0.0,0.0,0.0,0.0,-0.8804,0.0,0.0,0.0,0.0,0.0,-0.8604,-0.8427,-0.8427,-0.8912,0.0,0.0,0.0,0.0,0.0,0.0,0.0,0.0,0.0,0.0,0.0,0.0,0.0,0.0,0.0,0.0,0.0,-2.1602,-2.1875,-2.1875,-2.1875,-2.2349,-2.3332,-2.2503,-2.2829,-2.5015,-2.5071,-2.5447,-2.6502,-2.7533,-2.8097,-2.8084,-2.8097,-2.8097,-2.8084,-2.8084,-2.8084,-2.8084,-2.8097,-2.8386,-2.8925,-2.8925,-2.9239,-2.9754,-2.9176,-2.9252,-2.9792,-2.9792,-2.9792,-2.9792,-2.9792,-2.9792,-2.9792,-2.9792,-2.9792,-2.9792,0.0,0.0,0.0,0.0,0.0,0.0,0.0,0.0,0.0,0.0,0.0,0.0,0.0,0.0,0.0,0.0,0.0,0.0,0.0,0.0,0.0,0.0,0.0,0.0,0.0,0.0,-0.4554,-0.4332,-0.4445,-0.4409,0.0,0.0,0.0,-0.4519,0.0,0.0,0.0,0.0,0.0,-0.5873,-0.6637,-0.7136,-0.7477,0.0,0.0,0.0,0.0,0.0,0.0,0.0,0.0,0.0,0.0,0.0,0.0,-0.8804,-0.8744,-0.8677,-0.8677,0.0,0.0,0.0,0.0,0.0,0.0,0.0,0.0,0.0,0.0,0.0,0.0,0.0,0.0,0.0,0.0,0.0,-2.0684,-2.0879,-2.0957,-2.0957,-2.124,-2.1497,-2.188,-2.1853,-2.2301,-2.3353,-2.3399,-2.3711,-2.4408,-2.5704,-2.6275,-2.5924,-2.6949,-2.7344,-2.6954,-2.6942,-2.6942,-2.6954,-2.7344,-2.7821,-2.8348,-2.8348,-2.8649,-2.9176,-2.9001,-2.9252,-2.9792,-2.9792,-2.9792,-2.9792,-2.9792,-2.9792,-2.9792,-2.9792,-2.9792,-2.9792,0.0,0.0,0.0,0.0,0.0,0.0,0.0,0.0,0.0,0.0,0.0,0.0,0.0,0.0,0.0,0.0,0.0,0.0,0.0,0.0,0.0,0.0,0.0,0.0,0.0,-0.4625,-0.4181,0.0,0.0,0.0,0.0,0.0,0.0,-0.4519,0.0,0.0,0.0,0.0,0.0,-0.5167,-0.5873,-0.6289,-0.6581,0.0,0.0,0.0,0.0,0.0,0.0,0.0,0.0,0.0,0.0,0.0,0.0,-0.8671,-0.855,-0.8457,-0.8457,0.0,0.0,0.0,0.0,0.0,0.0,0.0,0.0,0.0,0.0,0.0,0.0,0.0,0.0,0.0,0.0,-1.9561,-2.0,-2.0059,-2.0117,-2.0283,-2.04,-2.0527,-2.0693,-2.0947,-2.1214,-2.1527,-2.2122,-2.255,-2.2861,-2.453,-2.5313,-2.5016,-2.6276,-2.6652,-2.5886,-2.6314,-2.6314,-2.5886,-2.6652,-2.6905,-2.6857,-2.7053,-2.7447,-2.805,-2.8662,-2.9252,-2.9792,-2.9792,-2.9792,-2.9792,-2.9792,-2.9792,-2.9792,-2.9792,-2.9792,-2.9792,0.0,0.0,0.0,0.0,0.0,0.0,0.0,0.0,0.0,0.0,0.0,0.0,0.0,0.0,0.0,0.0,0.0,0.0,0.0,0.0,0.0,0.0,0.0,0.0,0.0,0.0,0.0,0.0,0.0,0.0,0.0,0.0,-0.4338,-0.4519,0.0,-0.4519,0.0,0.0,-0.4512,-0.4549,-0.514,-0.5349,-0.5383,-0.663,0.0,0.0,0.0,0.0,0.0,0.0,0.0,0.0,0.0,0.0,-0.8758,-0.849,-0.8203,-0.7928,0.0,0.0,0.0,0.0,0.0,0.0,0.0,0.0,0.0,0.0,0.0,0.0,0.0,0.0,0.0,0.0,-1.8672,-1.8818,-1.918,-1.9268,-1.9414,-1.9756,-1.9502,-1.9434,-1.9814,-1.9853,-1.9853,-1.9853,-2.1019,-2.1782,-2.1824,-2.3604,-2.4732,-2.4862,-2.5734,-2.5804,-2.5004,-2.5886,-2.5873,-2.5004,-2.6025,-2.5955,-2.4874,-2.554,-2.6139,-2.6701,-2.8124,-2.9074,-2.9549,-2.9654,-2.9666,-2.9716,-2.9716,-2.9741,-2.9792,-2.9792,-2.9792,-2.9792,0.0,0.0,0.0,0.0,0.0,0.0,0.0,0.0,0.0,0.0,0.0,0.0,0.0,0.0,0.0,0.0,0.0,0.0,0.0,0.0,0.0,0.0,0.0,0.0,0.0,0.0,0.0,0.0,0.0,0.0,0.0,0.0,0.0,-0.4519,0.0,-0.4519,0.0,0.0,-0.4399,-0.4294,-0.4396,-0.4637,-0.4905,-0.5394,-0.576,0.0,0.0,0.0,0.0,0.0,0.0,0.0,-0.8738,-0.8804,-0.8798,-0.8731,-0.8504,-0.833,0.0,0.0,0.0,0.0,0.0,0.0,0.0,0.0,0.0,0.0,0.0,0.0,0.0,0.0,0.0,0.0,-1.8926,-1.9062,-1.8818,-1.9072,-1.9189,-1.8936,-1.9131,-1.9316,-1.9414,-1.9424,-1.9424,-1.9424,-1.9723,-1.9984,-2.0321,-2.1502,-2.2688,-2.3806,-2.4036,-2.4409,-2.5004,-2.5229,-2.5229,-2.5004,-2.6025,-2.5569,-2.3891,-2.5608,-2.6418,-2.6598,-2.7339,-2.7705,-2.7854,-2.8325,-2.8725,-2.9114,-2.9114,-2.939,-2.9792,-2.9792,-2.9792,-2.9792,0.0,0.0,0.0,0.0,0.0,0.0,0.0,0.0,0.0,0.0,0.0,0.0,0.0,0.0,0.0,0.0,0.0,0.0,0.0,0.0,0.0,0.0,0.0,0.0,0.0,0.0,0.0,0.0,0.0,0.0,0.0,0.0,0.0,-0.4519,0.0,-0.4519,0.0,0.0,-0.4317,-0.4187,-0.4117,-0.4147,-0.4311,-0.4733,-0.4976,-0.5186,-0.61,0.0,0.0,0.0,0.0,0.0,0.0,0.0,-0.8778,-0.8644,-0.849,-0.8377,0.0,0.0,0.0,0.0,0.0,0.0,0.0,0.0,0.0,0.0,0.0,0.0,0.0,0.0,0.0,-1.8379,-1.8525,-1.8594,-1.8369,-1.8525,-1.8672,-1.8643,-1.8662,-1.876,-1.8955,-1.8975,-1.8975,-1.8975,-1.917,-1.9385,-1.96,-2.0544,-2.1434,-2.2176,-2.2677,-2.2891,-2.2973,-2.3397,-2.3607,-2.3607,-2.4354,-2.4319,-2.3514,-2.4097,-2.4522,-2.4822,-2.5532,-2.6312,-2.6995,-2.7271,-2.7804,-2.8561,-2.8825,-2.9114,-2.9415,-2.9691,-2.9792,-2.9792,0.0,0.0,0.0,0.0,0.0,0.0,0.0,0.0,0.0,0.0,0.0,0.0,0.0,0.0,0.0,0.0,0.0,0.0,0.0,0.0,0.0,0.0,0.0,0.0,0.0,0.0,0.0,0.0,0.0,0.0,0.0,0.0,0.0,-0.4519,0.0,0.0,0.0,0.0,0.0,0.0,-0.402,-0.3927,-0.3839,-0.4349,-0.4459,-0.4455,-0.5262,-0.606,-0.679,-0.7141,0.0,0.0,0.0,0.0,-0.8758,-0.8517,-0.8417,-0.8337,0.0,0.0,0.0,0.0,0.0,0.0,0.0,0.0,0.0,0.0,0.0,0.0,0.0,0.0,0.0,-1.7891,-1.79,-1.793,-1.7998,-1.8008,-1.8135,-1.8486,-1.8223,-1.8144,-1.8496,-1.8525,-1.8525,-1.8525,-1.8867,-1.9102,-1.917,-1.9941,-2.054,-2.0755,-2.1366,-2.1446,-2.0836,-2.1574,-2.1909,-2.1771,-2.2332,-2.2744,-2.2977,-2.202,-2.1991,-2.2896,-2.3722,-2.4782,-2.5908,-2.6052,-2.6697,-2.7777,-2.8226,-2.8537,-2.8837,-2.9327,-2.9503,-2.9515,0.0,0.0,0.0,0.0,0.0,0.0,0.0,0.0,0.0,0.0,0.0,0.0,0.0,0.0,0.0,0.0,0.0,0.0,-0.3929,0.0,0.0,-0.413,0.0,0.0,0.0,0.0,0.0,0.0,0.0,0.0,0.0,0.0,0.0,0.0,0.0,0.0,0.0,0.0,0.0,0.0,0.0,0.0,-0.3792,-0.3886,-0.3955,-0.4136,-0.4628,-0.4983,-0.5327,-0.6121,-0.6888,0.0,0.0,0.0,-0.8798,-0.8758,-0.8571,0.0,0.0,0.0,0.0,0.0,0.0,0.0,0.0,0.0,0.0,0.0,0.0,0.0,0.0,0.0,0.0,-1.7402,-1.7471,-1.7598,-1.7959,-1.8008,-1.8037,-1.8086,-1.8047,-1.8037,-1.8086,-1.8096,-1.8096,-1.8096,-1.8144,-1.834,-1.8701,-1.8791,-1.9515,-2.0744,-2.0063,-2.0063,-2.0755,-2.0896,-2.0966,-2.0966,-2.103,-2.1083,-2.1147,-2.0091,-2.0747,-2.273,-2.2886,-2.2995,-2.3249,-2.3735,-2.4777,-2.608,-2.6152,-2.7005,-2.8222,-2.8298,-2.8335,-2.8398,0.0,0.0,0.0,0.0,0.0,0.0,0.0,0.0,0.0,0.0,0.0,0.0,0.0,0.0,0.0,-0.3581,-0.3671,-0.3781,-0.3996,-0.4195,-0.427,-0.4197,-0.413,0.0,0.0,0.0,0.0,0.0,0.0,0.0,0.0,-0.4519,-0.4519,0.0,0.0,0.0,0.0,0.0,0.0,0.0,0.0,0.0,0.0,0.0,-0.386,-0.3832,-0.4171,-0.4656,-0.517,-0.5551,-0.6233,-0.6992,-0.7522,0.0,0.0,0.0,0.0,0.0,0.0,0.0,0.0,0.0,0.0,0.0,0.0,0.0,0.0,0.0,0.0,0.0,0.0,0.0,-1.6797,-1.6982,-1.7021,-1.708,-1.7266,-1.7295,-1.7383,-1.7627,-1.7656,-1.7754,-1.7988,-1.8008,-1.8008,-1.8008,-1.8008,-1.7988,-1.7939,-1.8154,-1.8468,-1.8887,-1.8646,-1.8666,-1.8887,-1.913,-1.9373,-1.9535,-2.0087,-2.0151,-1.9919,-1.9495,-1.9885,-2.0777,-2.0777,-2.121,-2.2018,-2.2252,-2.3172,-2.4526,-2.4814,-2.5737,-2.6822,-2.7127,-2.7236,-2.7347,0.0,0.0,0.0,0.0,0.0,0.0,0.0,0.0,0.0,0.0,0.0,0.0,0.0,0.0,0.0,0.0,-0.3407,-0.3602,-0.3702,-0.4197,-0.4416,-0.4207,-0.42,-0.42,0.0,0.0,0.0,0.0,0.0,0.0,-0.4519,-0.4522,-0.4522,0.0,-0.4477,0.0,0.0,0.0,0.0,0.0,0.0,0.0,0.0,0.0,0.0,0.0,-0.3941,-0.4415,-0.5028,-0.5072,-0.565,-0.6411,-0.6945,-0.7177,0.0,0.0,0.0,0.0,0.0,0.0,0.0,0.0,0.0,0.0,0.0,0.0,0.0,0.0,0.0,0.0,0.0,0.0,-1.6182,-1.6504,-1.6475,-1.6475,-1.6699,-1.6665,-1.6855,-1.7178,-1.7217,-1.7344,-1.7656,-1.7686,-1.7734,-1.7842,-1.7754,-1.7598,-1.7393,-1.7578,-1.7539,-1.7227,-1.7519,-1.7539,-1.7227,-1.7529,-1.7842,-1.8154,-1.8805,-1.897,-1.8809,-1.8809,-1.8857,-1.8975,-1.9189,-2.0099,-2.1356,-2.1146,-2.1839,-2.318,-2.3544,-2.4351,-2.5295,-2.5917,-2.6208,-2.638,0.0,0.0,0.0,0.0,0.0,0.0,0.0,0.0,0.0,0.0,0.0,0.0,0.0,-0.3581,-0.3134,-0.198,-0.2952,-0.3219,-0.2382,-0.3694,-0.4426,-0.4217,-0.421,0.0,-0.4197,0.0,0.0,0.0,0.0,0.0,-0.4519,-0.4473,-0.4477,-0.4477,-0.448,-0.3688,-0.2338,0.0,0.0,0.0,0.0,0.0,0.0,0.0,0.0,0.0,0.0,0.0,-0.4267,-0.4457,-0.4995,-0.5567,-0.5448,-0.6267,-0.7294,0.0,0.0,0.0,0.0,0.0,0.0,0.0,0.0,0.0,0.0,0.0,0.0,0.0,0.0,0.0,0.0,0.0,-1.4668,-1.5898,-1.5752,-1.5771,-1.6548,-1.6665,-1.6738,-1.6758,-1.6768,-1.6714,-1.6797,-1.6797,-1.6973,-1.7383,-1.7031,-1.6973,-1.7363,-1.7012,-1.6787,-1.6768,-1.6787,-1.6787,-1.6768,-1.6787,-1.6807,-1.6826,-1.6826,-1.7061,-1.748,-1.748,-1.7695,-1.8115,-1.8936,-2.0015,-2.1125,-2.0342,-2.0818,-2.2103,-2.2134,-2.2734,-2.3706,-2.4706,-2.5088,-2.5302,0.0,0.0,0.0,0.0,0.0,0.0,0.0,0.0,0.0,0.0,0.0,0.0,0.0,-0.3595,-0.3116,-0.1914,-0.2924,-0.2814,-0.0889,-0.1312,-0.1987,-0.2867,-0.364,-0.4055,-0.4194,-0.4197,0.0,0.0,0.0,-0.4522,-0.4473,-0.4477,-0.3968,-0.307,-0.4042,-0.4216,-0.3535,-0.16,0.0,0.0,0.0,0.0,0.0,0.0,0.0,0.0,0.0,0.0,0.0,-0.4307,-0.4544,-0.4922,-0.523,-0.5502,-0.5878,0.0,0.0,0.0,0.0,0.0,0.0,0.0,0.0,0.0,0.0,0.0,0.0,0.0,0.0,0.0,0.0,0.0,0.0,-1.4746,-1.4697,-1.4642,-1.4963,-1.5303,-1.5586,-1.585,-1.6133,-1.6416,-1.6636,-1.6665,-1.6797,-1.6953,-1.6816,-1.667,-1.6543,-1.666,-1.6602,-1.6309,-1.6582,-1.6665,-1.6665,-1.6445,-1.6445,-1.6665,-1.6665,-1.6963,-1.7383,-1.7383,-1.7929,-1.8798,-1.8596,-1.8832,-1.9503,-1.9164,-1.9555,-2.0266,-2.0537,-2.1236,-2.2291,-2.3548,-2.4036,-2.4288,0.0,0.0,0.0,0.0,0.0,0.0,0.0,0.0,0.0,0.0,0.0,0.0,0.0,0.0,-0.2971,-0.1327,-0.192,-0.171,-0.0112,-0.0,-0.0422,-0.1406,-0.2566,-0.3468,-0.4068,-0.4073,0.0,0.0,0.0,0.0,0.0,0.0,-0.3956,-0.3028,-0.4033,0.0,0.0,0.0,0.0,-0.1667,0.0,0.0,-0.4003,0.0,0.0,0.0,0.0,0.0,0.0,0.0,0.0,-0.4393,0.0,0.0,0.0,0.0,0.0,0.0,0.0,0.0,0.0,0.0,0.0,0.0,0.0,0.0,0.0,0.0,0.0,0.0,0.0,0.0,0.0,-1.4038,-1.4014,-1.3975,-1.4058,-1.4385,-1.4668,-1.4951,-1.5234,-1.5596,-1.6035,-1.6074,-1.6191,-1.6484,-1.6377,0.0,-1.6135,-1.6201,-1.6152,-1.585,-1.6133,-1.6289,-1.6289,-1.5996,-1.5996,-1.6289,-1.6289,-1.6514,-1.6943,-1.71,-1.771,-1.8639,-1.821,-1.838,-1.9034,-1.8703,-1.8896,-1.9316,-1.959,-2.0132,-2.0886,-2.2407,-2.3133,-2.3568,0.0,0.0,0.0,0.0,0.0,0.0,0.0,0.0,0.0,0.0,0.0,0.0,0.0,0.0,0.0,-0.0212,-0.0,-0.0,-0.0,-0.0,-0.0,-0.0,-0.1117,-0.2422,-0.3886,-0.3832,0.0,0.0,0.0,0.0,0.0,0.0,-0.4436,0.0,-0.4515,-0.4518,-0.4497,0.0,-0.4501,-0.4453,0.0,-0.4019,-0.4157,0.0,0.0,0.0,-0.4009,-0.4009,0.0,0.0,0.0,0.0,0.0,0.0,0.0,0.0,0.0,0.0,0.0,0.0,0.0,0.0,0.0,0.0,0.0,0.0,0.0,0.0,0.0,0.0,0.0,0.0,0.0,-1.3965,-1.375,-1.3633,-1.398,-1.4048,-1.4058,-1.4058,-1.4077,-1.4297,-1.4727,-1.4766,-1.5117,-1.5957,-1.5615,-1.5566,-1.6016,-1.5644,-1.541,-1.541,-1.541,-1.541,-1.541,-1.541,-1.541,-1.541,-1.541,-1.5644,-1.6135,-1.6514,-1.6953,-1.7393,-1.7793,-1.8662,-1.9713,-1.8944,-1.8867,-1.9248,-1.9268,-1.9268,-1.9476,-2.1274,-2.236,-2.3081,0.0,0.0,0.0,0.0,0.0,0.0,0.0,0.0,0.0,0.0,0.0,0.0,0.0,0.0,-0.0709,-0.0053,-0.0,-0.0,-0.0,-0.0,-0.0,-0.0,-0.0303,-0.1613,-0.3932,-0.3896,0.0,0.0,0.0,0.0,0.0,0.0,0.0,0.0,-0.4497,-0.4504,-0.4487,-0.4504,0.0,0.0,-0.4227,-0.4055,0.0,0.0,0.0,0.0,0.0,-0.3768,-0.3856,0.0,-0.4002,-0.4127,0.0,0.0,0.0,0.0,0.0,0.0,-0.7768,0.0,0.0,0.0,0.0,0.0,0.0,0.0,0.0,0.0,0.0,0.0,0.0,0.0,0.0,0.0,-1.3135,-1.3096,-1.3213,-1.3486,-1.3682,-1.3682,-1.3902,-1.4126,-1.4297,-1.4307,-1.4321,0.0,-1.4391,-1.4524,-1.4699,-1.5176,-1.541,-1.541,-1.541,-1.541,-1.541,-1.541,-1.541,-1.541,-1.541,-1.5644,-1.6125,-1.6191,-1.6494,-1.6924,-1.7031,-1.7278,-1.7621,-1.7997,-1.8252,-1.8389,-1.8701,-1.8818,-1.899,-2.0547,-2.1396,-2.201,0.0,0.0,0.0,0.0,0.0,0.0,0.0,0.0,0.0,0.0,0.0,0.0,0.0,0.0,-0.0,-0.0,-0.0,-0.0,-0.0,-0.0,-0.0,-0.0,-0.0,-0.1024,-0.3184,-0.3692,0.0,0.0,0.0,0.0,0.0,0.0,0.0,0.0,0.0,0.0,0.0,0.0,0.0,0.0,-0.4197,0.0,0.0,-0.3877,-0.3778,0.0,0.0,0.0,-0.387,-0.3744,-0.3863,0.0,0.0,0.0,0.0,0.0,0.0,0.0,0.0,0.0,0.0,0.0,0.0,0.0,-1.2064,-1.218,-1.2246,0.0,0.0,0.0,0.0,0.0,0.0,0.0,-1.2881,-1.2881,-1.2881,-1.3096,-1.3242,-1.3242,-1.3467,-1.3682,-1.3857,-1.3604,-1.3446,-1.3412,-1.3552,-1.3921,-1.4408,-1.4917,-1.5146,-1.5146,-1.5146,-1.5146,-1.5146,-1.5146,-1.5234,-1.541,-1.541,-1.5547,-1.5791,-1.6037,-1.6211,-1.6465,-1.665,-1.6665,-1.6714,-1.7275,-1.748,-1.7519,-1.7949,-1.8115,-1.8301,-1.9675,-2.046,-2.0991,0.0,0.0,0.0,0.0,0.0,0.0,0.0,0.0,0.0,0.0,0.0,0.0,0.0,0.0,0.0,0.0,-0.0,-0.0,-0.0,-0.0,-0.0,-0.0,-0.0,-0.062,-0.1916,-0.3296,-0.411,0.0,0.0,0.0,0.0,0.0,0.0,0.0,0.0,0.0,0.0,0.0,0.0,-0.4416,-0.4151,-0.4076,0.0,0.0,-0.389,0.0,-0.3839,-0.387,-0.3934,-0.3687,-0.3697,0.0,0.0,0.0,0.0,0.0,-0.5413,0.0,0.0,0.0,0.0,0.0,0.0,0.0,-1.2229,-1.2219,-1.2129,-1.1822,-1.1753,0.0,0.0,0.0,0.0,0.0,-1.2881,-1.2881,-1.2881,-1.2881,-1.2881,-1.2881,-1.2881,-1.3027,-1.3398,-1.2805,-1.2545,-1.2878,-1.295,-1.3442,-1.4619,-1.4687,-1.4717,-1.4717,-1.4717,-1.4717,-1.4717,-1.4717,-1.4922,-1.5342,-1.5342,-1.5371,-1.542,-1.5811,-1.5986,-1.6016,-1.6406,-1.6582,-1.6582,-1.6582,-1.6578,-1.6714,-1.7158,-1.7314,-1.7484,-1.8674,-1.9385,-1.9986,-0.3581,0.0,0.0,0.0,0.0,0.0,0.0,0.0,0.0,0.0,0.0,0.0,0.0,0.0,0.0,0.0,-0.0,-0.0,-0.0,-0.0,-0.0,-0.0,-0.0,-0.011,-0.0442,-0.3038,-0.434,0.0,0.0,0.0,0.0,0.0,0.0,0.0,0.0,0.0,0.0,0.0,0.0,-0.4234,-0.4174,0.0,-0.4177,-0.4043,-0.3917,-0.3832,-0.3802,-0.3737,-0.3676,0.0,-0.3849,-0.3995,0.0,0.0,0.0,0.0,0.0,0.0,0.0,0.0,0.0,0.0,0.0,0.0,-1.2493,-1.248,-1.2305,0.0,-1.2675,0.0,0.0,0.0,0.0,0.0,-1.2881,-1.2881,-1.2881,-1.2881,-1.2881,-1.2881,-1.2881,-1.291,-1.2998,-1.2367,-1.1849,-1.1662,-1.1957,-1.2634,-1.3717,-1.4072,-1.4258,-1.4258,-1.4258,-1.4258,-1.4258,-1.4258,-1.4473,-1.4902,-1.4902,-1.5088,-1.541,-1.5498,-1.5537,-1.5537,-1.5635,-1.5664,-1.5664,-1.5664,-1.6094,-1.6738,-1.6826,-1.6855,-1.6914,-1.753,-1.8031,-1.8516,-0.3581,0.0,0.0,0.0,0.0,0.0,0.0,0.0,0.0,0.0,0.0,0.0,0.0,0.0,0.0,0.0,0.0,0.0,0.0,-0.0,-0.0,-0.0,-0.0,-0.0,-0.0,-0.1461,-0.2922,0.0,0.0,0.0,0.0,0.0,0.0,0.0,0.0,0.0,0.0,0.0,-0.4423,-0.4341,-0.4143,0.0,-0.4066,-0.3965,-0.3907,-0.3907,-0.3907,-0.3812,-0.3697,-0.3768,-0.3894,0.0,0.0,-0.4284,-0.4519,0.0,-0.55,-0.6588,0.0,0.0,0.0,-1.057,0.0,0.0,0.0,-1.2393,-1.2227,-1.2227,-1.2263,-1.2295,-1.252,0.0,0.0,-1.2842,-1.2881,-1.2881,-1.2881,-1.2881,-1.2881,-1.2881,-1.2881,-1.2881,-1.2881,-1.194,-1.1243,-1.1077,-1.1565,-1.2314,-1.3455,-1.3711,-1.3818,-1.3818,-1.3818,-1.3818,-1.3818,-1.3818,-1.4033,-1.4463,-1.4678,-1.4775,-1.4795,-1.5215,-1.5293,-1.5107,-1.5322,-1.541,-1.541,-1.541,-1.5674,-1.6094,-1.6318,-1.6396,-1.6475,-1.7139,-1.7519,-1.7764,-0.3581,0.0,0.0,0.0,0.0,0.0,0.0,0.0,0.0,0.0,0.0,0.0,0.0,0.0,0.0,0.0,0.0,0.0,0.0,0.0,-0.0,-0.0,-0.0,-0.0,-0.0,-0.0271,-0.1631,0.0,0.0,0.0,0.0,0.0,0.0,0.0,0.0,0.0,0.0,0.0,0.0,-0.4358,0.0,-0.408,-0.409,-0.3938,-0.3958,-0.4056,-0.3995,-0.388,-0.3754,-0.3782,0.0,-0.4026,-0.4056,-0.4246,0.0,0.0,0.0,0.0,0.0,0.0,0.0,0.0,0.0,-1.1889,0.0,0.0,0.0,-1.1939,-1.1861,0.0,0.0,0.0,0.0,0.0,0.0,0.0,0.0,-1.2773,0.0,-1.2881,-1.2881,-1.2881,-1.2881,-1.1642,-1.0864,-1.0965,-1.1266,-1.1968,-1.3319,-1.3278,-1.3217,-1.3389,-1.3389,-1.3389,-1.3389,-1.3389,-1.3603,-1.397,-1.4375,-1.4394,-1.4107,-1.4932,-1.5107,-1.4805,-1.5234,-1.541,-1.541,-1.541,-1.541,-1.5449,-1.5801,-1.5998,-1.6035,-1.6836,-1.7129,-1.7197,-0.3581,-0.3792,0.0,0.0,0.0,0.0,0.0,0.0,0.0,0.0,0.0,0.0,0.0,0.0,0.0,0.0,0.0,0.0,-0.0,0.0,0.0,-0.0,-0.0,-0.0,-0.0,-0.126,-0.2112,-0.2454,0.0,0.0,0.0,0.0,0.0,0.0,-0.4321,0.0,0.0,0.0,-0.4143,0.0,-0.413,-0.4297,0.0,-0.425,-0.4157,-0.4133,-0.3914,-0.3727,-0.3626,0.0,-0.3894,-0.4043,0.0,-0.4331,-0.4519,0.0,0.0,0.0,0.0,0.0,0.0,0.0,-1.1316,0.0,0.0,0.0,-1.2793,-1.2744,0.0,0.0,0.0,0.0,0.0,0.0,0.0,0.0,-1.1861,-1.243,-1.2881,-1.2881,-1.2881,-1.2881,-1.2881,-1.1642,-1.1065,-1.1665,-1.0661,-1.0905,-1.2851,-1.236,-1.2302,-1.2949,-1.2949,-1.2949,-1.2949,-1.2949,-1.3164,-1.3584,-1.3633,-1.3818,-1.4097,-1.4639,-1.4834,-1.4805,-1.5234,-1.541,-1.541,-1.541,-1.541,-1.542,-1.5469,-1.5488,-1.5547,-1.6035,-1.6272,-1.6328,-0.3721,-0.3802,0.0,0.0,0.0,0.0,0.0,0.0,0.0,0.0,0.0,0.0,0.0,0.0,0.0,0.0,0.0,-0.2639,0.0,0.0,0.0,0.0,-0.1668,0.0,-0.0055,-0.1442,-0.2625,-0.3527,-0.4193,0.0,0.0,0.0,0.0,0.0,-0.422,0.0,-0.4206,0.0,0.0,0.0,0.0,0.0,0.0,-0.4304,-0.4197,-0.4167,-0.4002,-0.3829,-0.3714,0.0,-0.3894,0.0,0.0,0.0,0.0,0.0,0.0,0.0,0.0,0.0,0.0,0.0,0.0,0.0,-1.2618,0.0,-1.2881,0.0,0.0,0.0,0.0,0.0,0.0,0.0,-1.2168,0.0,0.0,0.0,-1.2207,0.0,0.0,0.0,-1.2295,-1.2098,-1.194,-1.1814,-1.1692,-1.1959,-1.2832,-1.2618,-1.2559,-1.2881,-1.2881,-1.2881,-1.2881,-1.2881,-1.2969,-1.3145,-1.3389,-1.3477,-1.3428,-1.4102,-1.4404,-1.4434,-1.4863,-1.5186,-1.541,-1.541,-1.541,-1.541,-1.541,-1.541,-1.5498,-1.6191,-1.6455,-1.6572,-0.3931,0.0,0.0,0.0,0.0,0.0,0.0,0.0,0.0,0.0,0.0,0.0,-0.0616,-0.0616,0.0,0.0,0.0,-0.4048,0.0,0.0,-0.1056,0.0,0.0,0.0,0.0,-0.2279,-0.3352,-0.449,-0.448,0.0,0.0,0.0,0.0,0.0,0.0,-0.4133,-0.404,0.0,0.0,-0.415,-0.4389,-0.4519,-0.4508,-0.4345,-0.4204,-0.4123,-0.4056,-0.3985,-0.386,-0.39,-0.3988,0.0,-0.426,0.0,0.0,0.0,0.0,0.0,-0.6588,0.0,0.0,0.0,0.0,0.0,0.0,0.0,0.0,0.0,0.0,0.0,0.0,0.0,0.0,0.0,0.0,-1.1665,0.0,0.0,0.0,0.0,0.0,0.0,0.0,-1.2129,-1.2205,-1.212,-1.2153,-1.2396,-1.2871,-1.2715,-1.2666,-1.2881,-1.2881,-1.2881,-1.2881,-1.2881,-1.2881,-1.2881,-1.3193,-1.3174,-1.29,-1.3633,-1.397,-1.4107,-1.46,-1.5029,-1.541,-1.541,-1.541,-1.541,-1.541,-1.541,-1.5488,-1.6133,-1.6445,-1.666,-0.4153,-0.4345,0.0,0.0,0.0,0.0,0.0,0.0,0.0,0.0,0.0,0.0,0.0,0.0,0.0,0.0,0.0,-0.2905,-0.4383,0.0,-0.3698,0.0,0.0,-0.2916,0.0,0.0,-0.4421,-0.448,-0.4525,-0.4519,0.0,0.0,0.0,0.0,0.0,-0.419,-0.4187,-0.4194,-0.411,-0.4053,-0.4345,-0.4519,-0.4519,0.0,-0.4277,-0.4046,-0.4137,0.0,0.0,-0.413,-0.4184,0.0,0.0,0.0,0.0,0.0,0.0,0.0,0.0,0.0,0.0,-1.0618,0.0,0.0,0.0,0.0,-1.2881,0.0,0.0,0.0,0.0,0.0,0.0,0.0,0.0,0.0,0.0,0.0,0.0,0.0,0.0,0.0,0.0,-1.1259,-1.126,-1.2764,-1.1248,-1.105,-1.2803,-1.2236,-1.2187,-1.2881,-1.2881,-1.2881,-1.2881,-1.2881,-1.2881,-1.2881,-1.2891,-1.2891,-1.29,-1.333,-1.375,-1.4107,-1.46,-1.5029,-1.541,-1.541,-1.541,-1.541,-1.541,-1.541,-1.542,-1.5449,-1.5723,-1.6152,0.0,0.0,0.0,0.0,0.0,0.0,0.0,-0.3907,0.0,0.0,0.0,0.0,0.0,0.0,-0.3697,0.0,0.0,-0.3971,-0.4484,-0.4484,0.0,0.0,0.0,-0.3953,0.0,0.0,-0.4473,-0.448,-0.4522,-0.4519,0.0,0.0,0.0,0.0,0.0,-0.414,0.0,0.0,0.0,0.0,0.0,-0.4172,-0.4192,0.0,-0.4341,-0.4127,-0.4177,-0.41,0.0,-0.4143,-0.4197,-0.422,-0.4419,-0.4519,-0.4519,-0.4519,-0.55,-0.6588,0.0,0.0,-0.9309,-0.9961,0.0,0.0,0.0,0.0,0.0,0.0,0.0,0.0,0.0,0.0,0.0,0.0,0.0,0.0,0.0,0.0,0.0,0.0,0.0,0.0,0.0,0.0,-1.2004,-1.2832,-1.2338,-1.2261,-1.2871,-1.2666,-1.2657,-1.2881,-1.2881,-1.2881,-1.2881,-1.2881,-1.3018,-1.3291,-1.3018,-1.3174,-1.3711,-1.3574,-1.3896,-1.457,-1.4717,-1.5029,-1.541,-1.541,-1.541,-1.541,-1.541,-1.541,-1.5449,-1.5732,-1.5937,-1.6223,-0.4498,0.0,0.0,0.0,0.0,0.0,0.0,0.0,0.0,0.0,-0.4531,0.0,-0.449,0.0,-0.4484,0.0,-0.4477,-0.4473,-0.4473,-0.4473,0.0,-0.4473,-0.4473,0.0,0.0,0.0,0.0,-0.4473,-0.4522,-0.4519,0.0,0.0,0.0,0.0,0.0,0.0,0.0,0.0,-0.4012,0.0,0.0,-0.4019,0.0,0.0,-0.428,-0.4197,0.0,-0.4164,-0.4192,-0.429,-0.4324,-0.4341,-0.4433,-0.4519,-0.4519,-0.4519,-0.55,-0.6588,-0.6588,-0.767,0.0,-0.9614,-0.9814,0.0,-1.1216,0.0,-1.1922,0.0,0.0,0.0,0.0,0.0,0.0,0.0,0.0,0.0,0.0,-1.084,0.0,0.0,0.0,0.0,0.0,0.0,-1.207,-1.2822,-1.2744,-1.2715,0.0,-1.2881,-1.2881,-1.2881,-1.2881,-1.2881,-1.2881,-1.2881,-1.3096,-1.3506,-1.3232,-1.3467,-1.4068,-1.3857,-1.4111,-1.4785,-1.4785,-1.5029,-1.541,-1.541,-1.541,-1.541,-1.541,-1.541,-1.5449,-1.5723,-1.5988,-1.6253,0.0,0.0,0.0,0.0,-0.4519,0.0,0.0,0.0,-0.464,0.0,-0.4602,-0.4633,-0.4536,-0.4519,-0.4519,-0.4519,-0.4519,0.0,-0.4519,-0.4519,0.0,0.0,-0.4519,-0.4519,-0.4519,0.0,0.0,0.0,0.0,0.0,0.0,0.0,0.0,0.0,-0.4519,0.0,-0.4184,-0.4184,-0.4093,-0.3999,-0.3999,-0.4002,-0.4009,-0.3999,-0.4046,-0.4184,-0.4184,-0.4328,-0.4508,-0.4508,-0.4508,-0.4508,-0.4515,-0.4519,-0.4519,-0.4519,-0.55,-0.6588,-0.6588,-0.767,-0.8956,-0.9614,-0.9762,0.0,0.0,0.0,-1.1724,0.0,0.0,0.0,0.0,0.0,0.0,0.0,0.0,0.0,0.0,0.0,0.0,0.0,0.0,0.0,0.0,-1.1201,-1.1504,-1.2783,-1.25,0.0,0.0,-1.2881,-1.2881,-1.2881,-1.2881,-1.2881,-1.2881,-1.2881,-1.3105,-1.3535,-1.3516,-1.375,-1.4145,-1.4116,-1.4404,-1.4814,-1.4814,-1.5039,-1.541,-1.541,-1.541,-1.541,-1.541,-1.541,-1.541,-1.541,-1.5693,-1.6243,-0.4519,-0.4519,-0.4519,0.0,-0.4519,-0.4519,0.0,0.0,0.0,0.0,-0.4599,-0.4633,-0.4536,-0.4519,-0.4519,-0.4519,-0.4519,0.0,0.0,0.0,0.0,-0.4519,-0.4519,-0.4519,-0.4519,-0.4519,0.0,-0.4519,0.0,0.0,-0.4519,0.0,0.0,0.0,0.0,0.0,-0.4026,-0.4026,-0.3931,-0.3693,-0.3693,-0.3754,-0.3839,0.0,-0.3853,-0.4026,-0.4026,-0.4175,-0.4304,-0.4304,-0.4304,-0.4321,-0.4429,-0.4519,-0.4519,-0.4519,-0.55,-0.6588,-0.6588,-0.767,-0.8857,-0.9008,-0.9061,-0.9211,-0.9917,0.0,0.0,0.0,0.0,0.0,0.0,0.0,0.0,0.0,0.0,0.0,0.0,0.0,0.0,-1.2002,0.0,0.0,-1.1596,-1.1758,-1.2168,-1.2832,-1.2773,0.0,0.0,0.0,-1.2881,-1.2881,-1.2881,-1.2881,-1.2881,-1.2881,-1.3252,-1.3912,-1.3652,-1.4062,-1.5078,-1.4766,-1.4853,-1.5254,-1.5254,-1.5312,-1.541,-1.541,-1.541,-1.541,-1.541,-1.541,-1.541,-1.541,-1.5693,-1.6154,-0.4519,0.0,0.0,-0.4519,0.0,0.0,-0.4562,0.0,0.0,-0.4572,-0.4636,0.0,-0.4536,-0.4519,-0.4519,-0.4519,-0.4519,0.0,-0.4519,0.0,0.0,-0.4519,-0.4519,-0.4519,-0.4519,-0.4519,0.0,-0.4519,0.0,0.0,-0.4519,0.0,0.0,0.0,0.0,-0.4372,0.0,-0.4073,-0.3924,-0.3768,-0.37,-0.3721,0.0,-0.3704,-0.3775,-0.3914,-0.3849,-0.4009,-0.4197,-0.4197,-0.4237,-0.4345,-0.4362,-0.4412,-0.4519,-0.4519,-0.55,-0.6588,-0.6588,-0.767,-0.8804,-0.8804,-0.8804,-0.891,-0.9256,-0.9614,-0.9917,0.0,-1.0618,-1.0914,0.0,0.0,0.0,0.0,0.0,0.0,0.0,0.0,0.0,0.0,-1.1724,0.0,-1.1602,-1.1963,-1.2412,-1.2842,-1.2881,0.0,0.0,0.0,-1.2881,-1.2881,-1.3057,-1.3066,-1.2881,-1.3242,-1.3662,-1.4077,-1.4092,-1.4541,-1.54,-1.5166,-1.5186,-1.541,-1.541,-1.541,-1.541,-1.541,-1.541,-1.541,-1.541,-1.541,-1.541,-1.541,-1.5693,-1.6125,0.0,0.0,0.0,0.0,0.0,0.0,0.0,-0.4731,0.0,-0.4694,0.0,-0.4633,-0.4536,-0.4519,-0.4519,-0.4519,0.0,-0.4519,-0.4519,-0.4519,-0.4519,-0.4625,-0.4574,-0.4519,-0.4625,-0.4574,0.0,0.0,0.0,0.0,0.0,0.0,0.0,0.0,0.0,0.0,0.0,-0.4107,-0.3988,-0.3978,-0.3843,-0.3792,-0.3792,-0.3792,-0.3778,-0.3751,-0.3646,-0.387,-0.4164,-0.4143,-0.4297,-0.4412,-0.4234,-0.4345,-0.4515,-0.4494,-0.5479,-0.6583,-0.6607,-0.7641,-0.8804,-0.8804,-0.8804,-0.8804,-0.8804,-0.9256,-0.9666,-0.9666,-1.0115,-1.0568,-1.0661,0.0,0.0,0.0,0.0,0.0,0.0,0.0,0.0,0.0,0.0,0.0,-1.1608,-1.1986,-1.2393,-1.2773,0.0,0.0,0.0,0.0,-1.2881,-1.2881,-1.3232,-1.3271,-1.2969,-1.3633,-1.4053,-1.4228,-1.4551,-1.4951,-1.541,-1.541,-1.541,-1.541,-1.541,-1.541,-1.541,-1.541,-1.541,-1.541,-1.541,-1.541,-1.541,-1.541,-1.5693,-1.6125,0.0,0.0,0.0,0.0,0.0,-0.4772,-0.5016,-0.4955,-0.4833,-0.4707,-0.4691,-0.4633,-0.4536,-0.4519,-0.4519,-0.4519,-0.4519,0.0,0.0,0.0,0.0,-0.5324,-0.4787,-0.4732,-0.5328,-0.4787,-0.4519,0.0,-0.4519,-0.4519,-0.4519,0.0,0.0,0.0,0.0,0.0,-0.4087,-0.3907,0.0,-0.3829,-0.3802,-0.3792,-0.3792,-0.3792,-0.3721,-0.3629,-0.3721,-0.3887,-0.4039,-0.3914,-0.4056,-0.4231,-0.4204,-0.4345,-0.4494,-0.4321,-0.5383,-0.6602,-0.6467,-0.7611,-0.8804,-0.8804,-0.8804,-0.8804,-0.8804,-0.891,-0.8956,-0.8956,-0.9061,-0.9309,-0.9865,-1.0367,0.0,0.0,0.0,0.0,0.0,0.0,0.0,0.0,0.0,-1.1165,0.0,-1.2035,-1.2209,0.0,0.0,0.0,0.0,0.0,-1.2881,0.0,-1.2959,-1.3125,0.0,0.0,-1.3633,-1.4668,-1.4385,-1.4658,-1.541,-1.541,-1.541,-1.541,-1.541,-1.541,-1.541,-1.541,-1.541,-1.541,-1.541,-1.541,-1.541,-1.541,-1.5693,-1.6125,0.0,0.0,0.0,0.0,0.0,0.0,0.0,-0.5074,0.0,-0.4826,-0.467,-0.4545,-0.4525,-0.4519,-0.4519,-0.4519,-0.4519,-0.4519,-0.4519,-0.4519,-0.4787,-0.5487,-0.5218,0.0,-0.5487,-0.5164,-0.4842,-0.4519,-0.4519,-0.4519,-0.4519,0.0,0.0,0.0,0.0,-0.4436,0.0,0.0,0.0,-0.4131,-0.406,-0.4029,-0.4029,-0.4029,-0.3887,-0.3697,-0.3768,-0.389,-0.4009,-0.3934,-0.406,-0.4197,-0.4197,-0.4345,-0.4501,-0.4379,-0.5433,-0.6563,-0.6511,-0.7629,-0.8804,-0.8804,-0.8804,-0.8804,-0.8804,-0.8804,-0.8804,-0.8804,-0.8804,-0.891,-0.9211,-0.9814,0.0,0.0,0.0,0.0,0.0,0.0,0.0,0.0,0.0,0.0,0.0,0.0,0.0,0.0,0.0,0.0,0.0,0.0,-1.2881,0.0,0.0,0.0,-1.3184,0.0,-1.3838,-1.4453,-1.4463,-1.4805,-1.541,-1.541,-1.541,-1.541,-1.541,-1.541,-1.541,-1.541,-1.541,-1.541,-1.541,-1.541,-1.541,-1.541,-1.5537,-1.5723,0.0,-0.4823,0.0,0.0,-0.4965,0.0,-0.5111,-0.5131,-0.5081,-0.4938,-0.468,-0.4556,-0.4522,-0.4519,-0.4519,-0.4519,-0.4519,-0.4519,-0.4519,-0.4519,-0.4787,-0.5487,-0.5378,-0.5378,-0.5487,-0.5378,-0.5003,0.0,-0.4519,-0.4519,-0.4519,-0.4519,0.0,0.0,0.0,0.0,0.0,0.0,-0.4314,-0.4406,-0.4241,-0.4197,-0.4197,-0.4197,-0.4026,-0.3836,-0.3802,-0.387,-0.3972,-0.3972,-0.4043,-0.4197,-0.4197,-0.4324,-0.4416,-0.4416,-0.5362,-0.6411,-0.6528,-0.7522,-0.8586,-0.8752,-0.8804,-0.8804,-0.8804,-0.8804,-0.8804,-0.8804,-0.8699,-0.8586,-0.8586,-0.8883,-0.9183,0.0,0.0,0.0,0.0,0.0,0.0,0.0,0.0,0.0,-1.009,0.0,0.0,0.0,0.0,0.0,-1.2871,0.0,0.0,0.0,0.0,-1.3262,-1.3018,0.0,-1.4092,-1.4277,-1.4619,-1.501,-1.541,-1.541,-1.541,-1.541,-1.541,-1.541,-1.541,-1.541,-1.541,-1.541,-1.541,-1.541,-1.541,-1.541,-1.541,-1.541,0.0,0.0,0.0,0.0,0.0,0.0,-0.5128,-0.5131,-0.5081,-0.4938,-0.4772,-0.4616,-0.4532,-0.4519,-0.4519,-0.4519,-0.4519,-0.4519,-0.4519,-0.4519,-0.4787,-0.5487,-0.4893,-0.4897,-0.5483,-0.4893,-0.457,0.0,-0.4519,-0.4519,-0.4519,-0.4519,0.0,0.0,0.0,0.0,-0.4214,-0.42,-0.4204,-0.4214,-0.42,-0.4197,-0.4197,-0.4197,-0.4093,-0.3978,-0.3839,-0.3799,-0.3812,-0.3812,-0.4009,-0.4197,-0.4197,-0.4204,-0.4214,-0.4214,-0.4889,-0.572,-0.6285,-0.7117,-0.7943,-0.8646,-0.8804,-0.8804,-0.8804,-0.8804,-0.8804,-0.8804,-0.8268,-0.7777,-0.7777,-0.7289,-0.7122,0.0,0.0,0.0,0.0,0.0,-0.891,0.0,0.0,0.0,0.0,-0.9915,0.0,0.0,-1.1757,0.0,0.0,0.0,0.0,-1.2881,-1.292,-1.3105,-1.3447,-1.3525,-1.3955,-1.4727,-1.4766,-1.501,-1.541,-1.541,-1.541,-1.541,-1.541,-1.541,-1.541,-1.541,-1.541,-1.541,-1.541,-1.541,-1.541,-1.541,-1.541,-1.541,0.0,0.0,0.0,0.0,0.0,0.0,0.0,-0.5057,-0.4952,-0.4802,-0.4728,-0.4633,-0.4536,-0.4519,-0.4519,-0.4519,-0.4519,-0.4519,-0.4519,-0.4519,-0.4787,-0.5487,-0.5218,-0.5218,-0.5487,-0.5218,-0.4893,0.0,0.0,-0.4519,-0.4519,-0.4519,-0.4519,-0.4519,-0.4519,-0.4429,-0.4375,-0.4375,-0.4375,-0.4375,-0.4375,-0.4375,-0.4375,-0.4375,-0.4284,-0.4086,-0.3982,-0.3927,-0.3927,-0.3927,-0.3948,-0.4005,-0.4137,-0.4197,-0.421,-0.4351,-0.4899,-0.5634,-0.6313,-0.6785,-0.7343,-0.848,-0.848,-0.8262,-0.8699,-0.848,-0.8268,-0.8699,-0.8209,-0.7563,-0.7128,-0.6804,-0.6696,-0.6966,0.0,0.0,0.0,0.0,0.0,0.0,0.0,0.0,0.0,0.0,0.0,0.0,0.0,0.0,0.0,0.0,0.0,-1.2881,0.0,-1.2959,-1.3135,-1.3135,-1.3428,-1.4014,-1.4277,-1.4619,-1.5039,-1.5293,-1.541,-1.541,-1.541,-1.541,-1.541,-1.541,-1.5108,-1.4688,-1.4688,-1.4392,-1.3965,-1.3965,-1.4273,-1.4725,-0.5418,0.0,-0.5179,0.0,-0.5189,-0.5067,-0.5121,-0.5047,-0.4968,-0.5002,-0.5031,-0.4969,-0.4805,-0.5007,-0.5007,-0.4787,-0.4787,-0.4736,-0.4519,-0.4519,-0.4736,-0.5164,-0.5218,0.0,-0.5218,-0.5218,-0.4948,-0.4519,-0.4519,-0.4519,-0.4519,-0.4519,-0.4519,-0.4519,-0.4519,-0.4519,-0.4519,-0.4519,-0.4519,-0.4519,-0.4519,-0.4519,-0.4519,-0.4519,-0.4399,-0.429,-0.409,-0.4036,-0.403,-0.4036,-0.3948,-0.391,-0.4216,-0.4231,-0.4224,-0.4419,-0.4842,-0.5382,-0.6091,-0.6258,-0.6583,-0.783,-0.7777,-0.7509,-0.8049,-0.7723,-0.7509,-0.8049,-0.7557,-0.6902,-0.6367,-0.6095,-0.6041,-0.6258,0.0,0.0,0.0,-0.8156,0.0,0.0,-0.8804,-0.8804,-0.8804,-0.9211,0.0,0.0,0.0,0.0,0.0,0.0,0.0,0.0,0.0,0.0,-1.2559,-1.2693,-1.2903,-1.3198,-1.382,-1.4365,-1.4805,-1.5215,-1.541,-1.541,-1.541,-1.5294,-1.505,-1.505,-1.4569,-1.3855,-1.3855,-1.3485,-1.3009,-1.3252,-1.3726,-1.4249,-0.5332,-0.5237,-0.5179,-0.5335,-0.5425,-0.5304,-0.5152,-0.5128,-0.5268,-0.5706,-0.5772,-0.5697,-0.5508,-0.615,-0.6258,-0.5542,-0.5483,-0.5218,-0.4519,-0.4519,-0.4519,0.0,0.0,-0.4519,-0.4519,-0.4519,-0.4519,-0.4519,0.0,0.0,-0.4519,-0.4519,-0.4519,-0.4519,-0.4519,-0.4519,-0.4519,-0.4519,-0.4519,-0.4519,-0.4519,-0.4519,-0.4519,-0.4519,-0.4515,-0.4494,-0.4244,-0.419,-0.417,-0.402,-0.4019,-0.407,-0.4365,-0.4362,-0.4224,-0.4419,-0.4519,-0.468,-0.5324,-0.5487,-0.5706,-0.6421,-0.6642,-0.6588,-0.6642,-0.6642,-0.6588,-0.6642,-0.6036,-0.5538,-0.5542,-0.4948,-0.4732,-0.5433,-0.5542,0.0,0.0,-0.7723,0.0,-0.8699,-0.8804,-0.8804,-0.8804,-0.8811,0.0,0.0,0.0,0.0,0.0,0.0,0.0,-1.1814,-1.1814,0.0,-1.1814,-1.228,-1.2507,-1.2507,-1.3609,-1.4365,-1.4805,-1.5215,-1.541,-1.541,-1.541,-1.4932,-1.4204,-1.4204,-1.3726,-1.3009,-1.3009,-1.3009,-1.313,-1.3906,-1.4204,-1.4323,-0.5418,-0.5237,-0.5145,-0.5196,-0.5036,-0.4887,-0.484,-0.4741,-0.4923,-0.5536,-0.6023,-0.6499,-0.6966,-0.6745,-0.648,0.0,-0.6253,-0.5928,0.0,-0.5164,-0.5003,-0.4515,-0.4519,-0.4519,-0.4519,-0.4519,-0.4519,-0.4519,0.0,-0.4519,-0.4519,-0.4519,-0.4519,-0.4519,-0.4519,-0.4519,-0.4519,-0.4519,-0.4519,-0.4519,-0.4519,-0.4519,-0.4519,-0.4519,-0.4519,-0.4498,-0.4247,-0.4197,-0.4187,-0.414,-0.4123,-0.4157,-0.4402,-0.4365,-0.4224,-0.4419,-0.4519,-0.4625,-0.5324,-0.5164,-0.5113,-0.6317,-0.6204,-0.5982,-0.6475,-0.6588,-0.6312,-0.5391,-0.5328,-0.5378,-0.4893,-0.4625,-0.457,-0.4787,-0.5218,0.0,-0.614,0.0,-0.7235,-0.7943,-0.7616,-0.7509,-0.7996,-0.8049,0.0,0.0,0.0,0.0,0.0,0.0,0.0,0.0,-1.1116,0.0,-1.1116,-1.1698,-1.1811,-1.1362,-1.2913,-1.4082,-1.4795,-1.4459,-1.4725,-1.541,-1.541,-1.5225,-1.5031,-1.4744,-1.432,-1.3768,-1.2915,-1.2734,-1.2948,-1.2687,-1.3235,-1.4273,-0.5418,-0.5237,-0.5148,-0.5206,-0.5016,-0.4857,-0.4857,-0.468,-0.4826,-0.5536,-0.6196,-0.6858,-0.7616,-0.7557,0.0,-0.6642,-0.6588,-0.6204,-0.5164,-0.5109,-0.4948,-0.4515,-0.4519,-0.4519,-0.4519,-0.4519,-0.4519,-0.4519,-0.4519,-0.4519,-0.4519,-0.4519,-0.4519,-0.4519,-0.4519,-0.4519,-0.4519,-0.4519,-0.4519,-0.4519,-0.4519,-0.4519,-0.4519,-0.4519,-0.4519,-0.4505,-0.4362,-0.4331,-0.4334,-0.4331,-0.4334,-0.4355,-0.4436,-0.4402,-0.4351,-0.4436,-0.4519,-0.457,-0.5003,-0.4842,-0.4736,-0.5609,-0.5441,-0.5218,-0.5714,-0.5828,-0.5555,-0.468,-0.4842,-0.5003,-0.457,-0.4519,-0.4519,-0.4519,-0.4838,-0.5218,-0.5487,0.0,-0.6475,0.0,0.0,-0.6804,-0.7235,-0.7289,-0.7289,0.0,0.0,0.0,0.0,0.0,-1.0415,-1.0415,-1.0415,-1.0415,-1.0415,-1.0864,-1.0864,-1.0415,-1.2122,-1.3267,-1.3864,-1.3607,-1.3861,-1.451,-1.451,-1.451,-1.4473,-1.3771,-1.3427,-1.3201,-1.2019,-1.1797,-1.2089,-1.2205,-1.287,-1.3846,-0.5332,-0.5237,-0.5176,-0.5321,-0.5209,-0.5101,-0.5101,-0.4867,-0.4977,-0.5715,-0.6239,-0.6825,-0.7586,-0.8221,-0.8049,-0.6642,0.0,0.0,-0.4736,-0.4629,-0.4625,-0.457,-0.4515,-0.4519,-0.4519,-0.4519,-0.4519,-0.4519,-0.4519,-0.4519,-0.4519,-0.4519,-0.4519,-0.4519,-0.4519,-0.4519,-0.4519,-0.4519,-0.4519,-0.4519,-0.4519,-0.4519,-0.4519,-0.4519,-0.4519,-0.4519,-0.4519,-0.4525,-0.448,-0.4408,-0.4421,-0.4494,-0.4525,-0.4525,-0.4477,-0.4522,-0.4519,-0.4519,-0.4519,-0.4519,-0.4519,-0.4519,-0.4519,-0.4519,-0.4519,-0.4519,-0.4519,-0.4519,-0.4519,-0.4519,-0.4519,-0.4519,-0.4519,-0.4519,-0.4519,-0.4732,-0.5324,-0.5433,-0.5706,-0.6421,0.0,-0.648,-0.6534,-0.6529,-0.6529,0.0,0.0,0.0,0.0,0.0,-0.9658,-0.9658,-0.971,-0.971,-0.971,-0.9762,-0.9829,-0.9903,-1.1184,-1.1987,-1.243,-1.2759,-1.2923,-1.3009,-1.3009,-1.3009,-1.2915,-1.1802,-1.1556,-1.1766,-1.0613,-1.039,-1.0905,-1.2389,-1.3009,-1.3312,0.0,0.0,-0.5142,-0.5179,-0.4969,-0.4796,-0.4796,-0.4735,-0.4977,-0.5715,-0.5905,-0.6271,-0.6997,-0.7122,-0.6745,-0.5814,-0.7283,-0.767,-0.6204,-0.61,-0.5878,-0.5273,-0.4787,-0.4519,-0.4519,-0.4519,-0.4519,-0.4519,-0.4519,-0.4519,-0.4519,-0.4519,-0.4519,-0.4519,-0.4519,-0.4519,-0.4519,-0.4519,-0.4519,-0.4519,-0.4519,-0.4519,-0.4519,-0.4519,-0.4522,-0.4477,-0.4477,-0.4484,-0.4376,-0.3627,-0.3858,-0.4494,-0.4525,-0.4525,-0.4477,-0.4522,-0.4519,-0.4519,-0.4519,-0.4519,-0.4519,-0.4519,-0.4519,-0.4519,-0.4519,-0.4519,-0.4519,-0.4519,-0.4519,-0.4519,-0.4519,-0.4519,-0.4519,-0.4519,-0.4519,-0.457,-0.4736,-0.4732,-0.5003,0.0,-0.5332,-0.5222,-0.5706,-0.576,-0.576,0.0,0.0,-0.6804,-0.6588,-0.7605,-0.8196,-0.8196,-0.8732,-0.9061,-0.9061,-0.9562,-1.0194,-1.0926,-1.0438,-1.098,-1.2364,-1.1897,-1.2198,-1.3009,-1.3009,-1.3009,-1.2959,-1.2118,-1.202,-1.2268,-1.1039,-1.118,-1.2103,-1.2112,-1.287,-1.3965,-0.5428,-0.5294,-0.5237,-0.5237,-0.5043,-0.4891,-0.4891,-0.4836,-0.4911,-0.5321,-0.5667,-0.6015,-0.642,-0.6638,-0.6452,-0.5729,-0.6633,-0.6848,-0.5714,-0.5664,-0.5441,-0.5054,-0.4677,-0.4519,-0.4519,-0.4519,-0.4519,-0.4519,-0.4519,-0.4519,-0.4519,-0.4519,-0.4519,-0.4519,-0.4519,-0.4519,-0.4519,-0.4519,-0.4519,-0.4519,-0.4519,-0.4522,-0.4525,-0.4525,-0.4477,-0.4428,-0.3691,-0.3922,-0.433,-0.307,-0.3471,-0.4392,-0.3688,-0.3916,-0.449,-0.4473,-0.4522,-0.4519,-0.4519,-0.4519,-0.4519,-0.4519,-0.4519,-0.4519,-0.4519,-0.4519,-0.4519,-0.4519,-0.4519,-0.4519,-0.4519,-0.4519,-0.4519,-0.4519,-0.4519,-0.4519,-0.4519,-0.4519,-0.4625,-0.5003,-0.4732,-0.4625,-0.5003,-0.5058,-0.5058,-0.5058,-0.571,0.0,-0.566,-0.6637,-0.7343,-0.767,-0.8427,-0.8804,-0.8804,-0.9298,-0.9959,-1.0748,-1.0144,-1.0506,-1.1586,-1.1153,-1.1308,-1.1911,-1.1911,-1.2089,-1.2411,-1.1455,-1.1498,-1.2142,-1.0916,-1.0937,-1.1722,-1.1766,-1.2381,-1.3174,-0.5428,-0.5428,-0.5428,-0.5428,-0.5233,-0.5131,-0.5131,-0.503,-0.4952,-0.4952,-0.5491,-0.5852,-0.5852,-0.6276,-0.6329,-0.5702,-0.5474,-0.5195,-0.468,-0.4625,-0.4625,-0.4625,-0.457,-0.4519,-0.4519,-0.4519,-0.4519,-0.4519,-0.4519,-0.4519,-0.4519,-0.4519,-0.4519,-0.4519,-0.4519,-0.4519,-0.4519,-0.4519,-0.4519,-0.4519,-0.4519,-0.4525,-0.448,-0.448,-0.4487,-0.4327,-0.3021,-0.3081,-0.3599,-0.2291,-0.2747,-0.361,-0.2516,-0.3251,-0.4452,-0.4203,-0.4304,-0.4522,-0.4519,-0.4519,-0.4519,-0.4519,-0.4519,-0.4519,-0.4519,-0.4519,-0.4519,-0.4519,-0.4519,-0.4519,-0.4519,-0.4519,-0.4519,-0.4519,-0.4519,-0.4519,-0.4519,-0.4519,-0.4519,-0.4519,-0.4519,-0.4519,-0.4519,-0.4519,-0.4519,-0.4519,-0.5003,-0.5109,-0.4515,-0.5714,-0.6745,-0.7343,-0.8209,-0.8699,-0.8804,-0.9044,-0.9455,-1.0053,-1.0094,-1.0274,-1.0624,-1.0624,-1.0624,-1.0624,-1.0624,-1.0989,-1.1564,-1.0533,-1.0676,-1.1421,-1.0457,-1.0234,-1.0613,-1.1279,-1.1665,-1.1888,-0.5428,-0.5428,-0.5428,-0.5428,-0.5233,-0.5131,-0.5131,-0.5111,-0.5098,-0.5098,-0.5161,-0.522,-0.522,-0.5211,-0.5182,-0.5062,-0.4914,-0.4989,-0.5336,-0.5324,-0.5324,-0.5324,-0.4787,-0.4519,-0.4519,-0.4519,-0.4519,-0.4519,-0.4519,-0.4519,-0.4519,-0.4519,-0.4519,-0.4519,-0.4519,-0.4519,-0.4519,-0.4519,-0.4519,-0.4519,-0.4519,-0.4525,-0.448,-0.448,-0.4494,-0.4455,-0.4222,-0.2637,-0.0672,-0.0447,-0.0503,-0.0897,-0.1898,-0.3251,-0.4225,-0.2963,-0.3469,-0.4487,-0.4522,-0.4519,-0.4519,-0.4519,-0.4519,-0.4519,-0.4519,-0.4519,-0.4519,-0.4519,-0.4519,-0.4519,-0.4519,-0.4519,-0.4519,-0.4519,-0.4519,-0.4519,-0.4519,-0.4519,-0.4519,-0.4519,-0.4519,-0.4519,-0.4519,-0.4519,-0.4519,-0.4519,-0.457,-0.4625,-0.4519,-0.5218,-0.5706,-0.581,-0.7176,-0.8156,-0.8804,-0.9044,-0.9412,-0.9753,-1.0,-1.0274,-1.0624,-1.0624,-1.0624,-1.0624,-1.0624,-1.0681,-1.0717,-1.0302,-1.0201,-1.0329,-0.9926,-0.9927,-1.0187,-1.0302,-1.0998,-1.1851,-0.5428,-0.5428,-0.5428,-0.5428,-0.5304,-0.5254,-0.5254,-0.5254,-0.5254,-0.5254,-0.5254,-0.5254,-0.5254,-0.5121,-0.5003,-0.4925,-0.4779,-0.4794,-0.4959,-0.4948,-0.4948,-0.4948,-0.468,-0.4519,-0.4519,-0.4519,-0.4519,-0.4519,-0.4519,-0.4519,-0.4519,-0.4519,-0.4519,-0.4519,-0.4519,-0.4519,-0.4519,-0.4525,-0.4525,-0.4473,-0.4477,-0.4487,-0.4497,-0.4497,-0.3479,-0.2076,-0.2076,-0.1177,-0.0,-0.0,-0.0,-0.0112,-0.0783,-0.2073,-0.3261,-0.3423,-0.3931,-0.4494,-0.4477,-0.4525,-0.4525,-0.4519,-0.4519,-0.4519,-0.4519,-0.4519,-0.4519,-0.4519,-0.4519,-0.4519,-0.4519,-0.4519,-0.4519,-0.4519,-0.4519,-0.4519,-0.4519,-0.4519,-0.4519,-0.4519,-0.4519,-0.4519,-0.4519,-0.4519,-0.4519,-0.4519,-0.4519,-0.4519,-0.4519,-0.4787,-0.5109,-0.5483,-0.6956,-0.7955,-0.8488,-0.8695,-0.8731,-0.8632,-0.9334,-0.9731,-0.9913,-1.0371,-1.0624,-1.0624,-1.0624,-1.0624,-1.0611,-1.0414,-1.0354,-1.0341,-1.0207,-1.0241,-1.0354,-1.0354,-1.0684,-1.1212,-0.5428,-0.5557,-0.562,-0.5428,-0.5428,-0.5428,-0.5428,-0.5428,-0.5428,-0.5428,-0.5428,-0.5428,-0.5428,-0.5223,-0.5087,-0.4975,-0.4799,-0.4643,-0.458,-0.4536,-0.4519,-0.4519,-0.4519,-0.4519,-0.4519,-0.4519,-0.4519,-0.4519,-0.4519,-0.4519,-0.4519,-0.4519,-0.4519,-0.4519,-0.4519,-0.4519,-0.4522,-0.4477,-0.4307,-0.3971,-0.3978,-0.416,-0.4514,-0.4514,-0.2639,-0.0,-0.0,-0.0,-0.0,-0.0,-0.0,-0.0,-0.0,-0.0785,-0.1909,-0.3091,-0.3711,-0.3987,-0.3974,-0.4252,-0.448,-0.4473,-0.4522,-0.4522,-0.4522,-0.4519,-0.4519,-0.4519,-0.4519,-0.4519,-0.4519,-0.4519,-0.4519,-0.4519,-0.4519,-0.4519,-0.4519,-0.4519,-0.4519,-0.4519,-0.4519,-0.4519,-0.4519,-0.4519,-0.4519,-0.4519,-0.4519,-0.4519,-0.4519,-0.4519,-0.4787,-0.5487,-0.674,-0.7546,-0.785,-0.792,-0.7865,-0.7604,-0.8419,-0.9024,-0.9338,-0.9983,-1.0428,-1.0624,-1.0624,-1.0624,-1.0624,-1.0624,-1.0521,-1.0448,-1.045,-1.0401,-1.0448,-1.0381,-1.0504,-1.0611,-0.5557,-0.6075,-0.6334,-0.5557,-0.5428,-0.5428,-0.5428,-0.5428,-0.5428,-0.5428,-0.5428,-0.5428,-0.5428,-0.5223,-0.5128,-0.5114,-0.4853,-0.4684,-0.4674,-0.4541,-0.4519,-0.4519,-0.4519,-0.4519,-0.4519,-0.4519,-0.4519,-0.4519,-0.4519,-0.4519,-0.4519,-0.4519,-0.4519,-0.4519,-0.4519,-0.4522,-0.4477,-0.448,-0.3688,-0.2343,-0.2343,-0.3249,-0.4514,-0.4514,-0.2639,-0.0,-0.0,-0.0,-0.0,-0.0,-0.0,-0.0,-0.0,-0.0056,-0.0168,-0.028,-0.129,-0.2357,-0.2347,-0.3413,-0.4494,-0.4494,-0.4487,-0.4477,-0.4477,-0.4525,-0.4519,-0.4519,-0.4519,-0.4519,-0.4519,-0.4519,-0.4519,-0.4519,-0.4519,-0.4519,-0.4519,-0.4519,-0.4519,-0.4519,-0.4519,-0.4519,-0.4519,-0.4519,-0.4519,-0.4519,-0.4519,-0.4519,-0.4519,-0.4519,-0.4787,-0.5487,-0.6258,-0.6707,-0.6722,-0.6737,-0.6956,-0.7315,-0.7389,-0.8115,-0.9274,-0.9338,-0.9849,-1.0624,-1.0624,-1.0624,-1.0624,-1.0624,-1.0401,-1.012,-0.9853,-0.9913,-1.012,-0.9846,-1.0094,-1.064,-0.6268,-0.6461,-0.6396,-0.5557,-0.5428,-0.5428,-0.5428,-0.5428,-0.5428,-0.5428,-0.5277,-0.5216,-0.5216,-0.5087,-0.4962,-0.4867,-0.4755,-0.465,-0.4555,-0.4549,-0.4519,-0.4519,-0.4519,-0.4519,-0.4519,-0.4519,-0.4519,-0.4519,-0.4519,-0.4522,-0.4473,-0.4473,-0.4477,-0.4484,-0.4484,-0.4487,-0.449,-0.4497,-0.416,-0.3479,-0.1567,-0.1175,-0.1682,-0.1682,-0.1009,-0.0,-0.0,-0.0,-0.0,-0.0,-0.0,-0.0,-0.0,-0.0,-0.0,-0.0,-0.0393,-0.0841,-0.0839,-0.1285,-0.1955,-0.285,-0.3072,-0.335,-0.4307,-0.4477,-0.4525,-0.4519,-0.4519,-0.4519,-0.4519,-0.4519,-0.4519,-0.4519,-0.4519,-0.4519,-0.4519,-0.4519,-0.4519,-0.4519,-0.4519,-0.4519,-0.4519,-0.4519,-0.4519,-0.4519,-0.4519,-0.4519,-0.4519,-0.4519,-0.4625,-0.4897,-0.5171,-0.5496,-0.5928,-0.6124,-0.6026,-0.5705,-0.641,-0.721,-0.8115,-0.8926,-0.9693,-1.0294,-1.0481,-1.0624,-1.0624,-1.0624,-1.0494,-1.0381,-1.0274,-1.0294,-1.0381,-1.0329,-1.0367,-1.0604,-0.6785,-0.6915,-0.6724,-0.5624,-0.5428,-0.5411,-0.5294,-0.5328,-0.5411,-0.5294,-0.524,-0.5182,-0.5135,-0.5003,-0.4857,-0.4704,-0.4646,-0.4575,-0.4525,-0.4519,-0.4519,-0.4519,-0.4519,-0.4519,-0.4519,-0.4519,-0.4519,-0.4519,-0.4522,-0.4525,-0.448,-0.4027,-0.3805,-0.3755,-0.3755,-0.4039,-0.4501,-0.4511,-0.3943,-0.2921,-0.0841,-0.0,-0.0,-0.0,-0.0,0.0112,0.1065,0.0784,-0.0,-0.0,-0.0,-0.0,-0.0,-0.0,-0.0,-0.0,-0.0,-0.0,-0.0,-0.0,-0.0224,-0.1228,-0.1842,-0.2454,-0.3519,-0.4138,-0.4473,-0.4519,-0.4519,-0.4519,-0.4519,-0.4519,-0.4519,-0.4522,-0.4522,-0.4522,-0.4522,-0.4522,-0.4522,-0.4519,-0.4522,-0.4522,-0.4522,-0.4522,-0.4522,-0.4522,-0.4519,-0.4519,-0.4522,-0.4522,-0.4522,-0.4522,-0.4514,-0.473,-0.5164,-0.5408,-0.5265,-0.4694,-0.5495,-0.6233,-0.7002,-0.8175,-0.9092,-0.9755,-1.0265,-1.0421,-1.0421,-1.0421,-1.0314,-1.0154,-1.0247,-1.0349,-1.0362,-1.0388,-1.0481,-1.0611,-0.7042,-0.7437,-0.7442,-0.5686,-0.5425,-0.5308,-0.5152,-0.526,-0.5304,-0.5148,-0.5264,-0.5298,-0.5145,-0.5003,-0.4857,-0.4704,-0.4551,-0.4519,-0.4519,-0.4519,-0.4519,-0.4519,-0.4519,-0.4519,-0.4519,-0.4519,-0.4519,-0.4519,-0.4473,-0.448,-0.4421,-0.2903,-0.223,-0.2174,-0.2174,-0.3023,-0.4458,-0.4458,-0.2751,-0.0,-0.0,-0.0,-0.0,-0.0,-0.0,0.0392,0.3373,0.2581,0.0056,-0.0,-0.0,-0.0,-0.0,-0.0,-0.0,-0.0,-0.0,-0.0,-0.0,-0.0,-0.0,-0.0,-0.1118,-0.2174,-0.2232,-0.34,-0.4519,-0.4519,-0.4519,-0.4519,-0.4519,-0.4519,-0.4522,-0.4477,-0.448,-0.448,-0.448,-0.448,-0.4477,-0.4519,-0.4473,-0.448,-0.448,-0.448,-0.448,-0.448,-0.4525,-0.4522,-0.448,-0.448,-0.448,-0.448,-0.4508,-0.4508,-0.4519,-0.4519,-0.4541,-0.4687,-0.4691,-0.5232,-0.6216,-0.6933,-0.7892,-0.9052,-0.9743,-1.0114,-1.0114,-1.0114,-0.9766,-0.9216,-0.9573,-0.9686,-0.9719,-1.0007,-1.0301,-1.0577,-0.8316,-0.8101,-0.754,-0.6075,-0.5603,-0.5277,-0.5023,-0.5104,-0.5182,-0.5135,-0.5084,-0.5033,-0.4989,-0.485,-0.4697,-0.4545,-0.4543,-0.4519,-0.4519,-0.4519,-0.4519,-0.4519,-0.4519,-0.4519,-0.4519,-0.4519,-0.4519,-0.4519,-0.4473,-0.3968,-0.2901,-0.3532,-0.2691,-0.0671,-0.0671,-0.0896,-0.1345,-0.1345,-0.084,-0.0,-0.0,-0.0,-0.0,-0.0,-0.0,0.0112,0.1009,0.2132,0.2807,0.0728,-0.0,-0.0,-0.0,-0.0,-0.0,-0.0,-0.0,-0.0,-0.0,-0.0,-0.0,-0.0,-0.0336,-0.1231,-0.3312,-0.4154,-0.4484,-0.4477,-0.4522,-0.4519,-0.4473,-0.4473,-0.4477,-0.449,-0.358,-0.3012,-0.3403,-0.4079,-0.4477,-0.4519,-0.4522,-0.4522,-0.4522,-0.4522,-0.4522,-0.4522,-0.4525,-0.448,-0.449,-0.3466,-0.2901,-0.2901,-0.3958,-0.4475,-0.4473,-0.468,-0.4697,-0.4587,-0.4748,-0.5166,-0.5715,-0.6271,-0.7249,-0.8461,-0.8887,-0.9328,-0.9813,-0.9813,-0.9713,-0.9579,-0.9873,-0.9866,-0.9719,-1.0007,-1.004,-0.9933,-0.9119,-0.8365,-0.7487,-0.638,-0.5601,-0.5104,-0.4863,-0.4952,-0.5026,-0.4965,-0.4935,-0.4897,-0.4833,-0.4748,-0.4629,-0.4532,-0.4519,-0.4519,-0.4519,-0.4519,-0.4519,-0.4519,-0.4519,-0.4519,-0.4519,-0.4519,-0.4519,-0.4525,-0.448,-0.4033,-0.3079,-0.286,-0.1738,-0.0,-0.0,-0.0,-0.0,-0.0,-0.0,-0.0,-0.0,-0.0,0.0112,0.1345,0.1794,0.1794,0.1792,0.2974,0.4228,0.2413,0.1008,-0.0,-0.0,-0.0,-0.0,-0.0,-0.0,-0.0,-0.0,-0.0,-0.0,-0.0,-0.0,-0.0504,-0.2298,-0.3193,-0.3752,-0.4373,-0.4528,-0.4492,-0.4497,-0.4017,-0.3806,-0.4396,-0.3702,-0.2796,-0.1949,-0.3355,-0.4487,-0.4477,-0.448,-0.4484,-0.4484,-0.4477,-0.4473,-0.4525,-0.391,-0.3863,-0.4445,-0.3591,-0.2571,-0.1395,-0.3418,-0.4182,-0.3589,-0.4383,-0.4684,-0.4555,-0.4741,-0.4962,-0.5218,-0.5698,-0.6434,-0.7367,-0.781,-0.8282,-0.8691,-0.8691,-0.8744,-0.8959,-0.9247,-0.9427,-0.9482,-0.9531,-0.9413,-0.9188,-0.9558,-0.8447,-0.7397,-0.6586,-0.5605,-0.486,-0.481,-0.4918,-0.4966,-0.4824,-0.4928,-0.4903,-0.4704,-0.4691,-0.4629,-0.4532,-0.4519,-0.4519,-0.4519,-0.4519,-0.4519,-0.4519,-0.4519,-0.4519,-0.4519,-0.4519,-0.4522,-0.4477,-0.4376,-0.4271,-0.4225,-0.1345,-0.0,-0.0,-0.0,-0.0,-0.0,-0.0,-0.0,-0.0,-0.0,-0.0,0.0336,0.3373,0.4514,0.4514,0.4501,0.4389,0.4284,0.4284,0.2355,-0.0,-0.0,-0.0,-0.0,-0.0,-0.0,-0.0,-0.0,-0.0,-0.0,-0.0,-0.0,-0.0,-0.0,-0.106,-0.24,-0.3814,-0.4209,-0.4323,-0.4468,-0.3335,-0.2791,-0.3904,-0.4113,-0.3144,-0.0391,-0.2352,-0.4166,-0.4268,-0.4278,-0.4284,-0.4284,-0.4445,-0.4494,-0.4484,-0.3183,-0.291,-0.4054,-0.4123,-0.2813,-0.0112,-0.2643,-0.3486,-0.2217,-0.3568,-0.442,-0.4694,-0.4707,-0.4697,-0.4721,-0.5183,-0.5635,-0.5967,-0.6653,-0.7002,-0.7059,-0.7059,-0.7268,-0.7639,-0.7956,-0.8435,-0.8955,-0.8595,-0.844,-0.8271,-0.9962,-0.8558,-0.731,-0.6973,-0.5807,-0.5002,-0.527,-0.5486,-0.5591,-0.555,-0.5578,-0.5358,-0.4752,-0.4691,-0.4629,-0.4532,-0.4519,-0.4519,-0.4519,-0.4519,-0.4519,-0.4519,-0.4519,-0.4519,-0.4519,-0.4519,-0.4519,-0.4522,-0.3292,-0.2681,-0.2683,-0.0839,-0.0,-0.0,-0.0,-0.0,-0.0,-0.0,-0.0,-0.0,-0.0,-0.0,0.0336,0.3373,0.4518,0.4524,0.4504,0.3699,0.2683,0.2683,0.151,-0.0,-0.0,-0.0,-0.0,-0.0,-0.0,-0.0,-0.0,-0.0,-0.0,-0.0,-0.0,-0.0,-0.0,-0.0224,-0.0558,-0.0894,-0.1891,-0.3083,-0.4303,-0.4222,-0.3326,-0.1296,-0.0953,-0.0728,-0.0112,-0.0559,-0.1397,-0.2569,-0.2681,-0.2683,-0.2683,-0.3811,-0.4501,-0.4504,-0.4166,-0.3088,-0.1064,-0.0977,-0.0691,-0.0,-0.0632,-0.1383,-0.2199,-0.2508,-0.337,-0.4766,-0.4949,-0.4873,-0.4567,-0.4639,-0.5022,-0.5601,-0.5766,-0.6156,-0.6713,-0.6713,-0.6742,-0.6879,-0.7226,-0.7261,-0.7176,-0.7362,-0.7274,-0.6939,-0.9933,-0.8422,-0.716,-0.711,-0.5785,-0.4761,-0.4974,-0.5135,-0.5193,-0.5193,-0.5193,-0.5027,-0.4639,-0.4582,-0.4551,-0.4525,-0.4519,-0.4519,-0.4519,-0.4519,-0.4519,-0.4519,-0.4519,-0.4519,-0.4519,-0.4519,-0.4522,-0.4525,-0.3691,-0.2569,-0.1115,-0.0336,-0.0,-0.0,-0.0,-0.0,-0.0,-0.0,0.0841,0.2132,0.2132,0.1288,0.0336,0.3363,0.4504,0.4399,0.3646,0.3363,0.3086,0.1621,0.0615,-0.0,-0.0,-0.0,-0.0,-0.0,-0.0,-0.0,-0.0,-0.0,-0.0,-0.0,-0.0,-0.0,-0.0,-0.0,-0.0,-0.0,-0.0601,-0.14,-0.2188,-0.2354,-0.182,-0.0231,-0.0,-0.0,-0.0,-0.0,-0.0281,-0.1085,-0.1145,-0.1151,-0.1168,-0.1876,-0.2978,-0.4394,-0.3166,-0.1654,-0.0112,-0.0,-0.0,-0.0,-0.0,-0.0712,-0.2179,-0.2903,-0.3765,-0.4656,-0.4845,-0.4793,-0.4568,-0.4553,-0.4677,-0.5003,-0.5003,-0.5222,-0.5609,-0.5609,-0.5769,-0.61,-0.6267,-0.6464,-0.6603,-0.6377,-0.6023,-0.5555,-0.9733,-0.8366,-0.7212,-0.7249,-0.5956,-0.4846,-0.4846,-0.4846,-0.4791,-0.468,-0.468,-0.4625,-0.4519,-0.4519,-0.4519,-0.4519,-0.4519,-0.4519,-0.4519,-0.4519,-0.4519,-0.4519,-0.4519,-0.4519,-0.4519,-0.4519,-0.4522,-0.4477,-0.449,-0.3079,-0.0391,-0.0112,-0.0,-0.0,-0.0,-0.0,-0.0,-0.0,0.1457,0.3772,0.4287,0.2977,0.1062,0.3524,0.4494,0.433,0.3074,0.3423,0.4126,0.1626,0.0449,-0.0,-0.0,-0.0,-0.0,-0.0,-0.0,-0.0,-0.0,-0.0,-0.0,-0.0,-0.0,-0.0,-0.0,-0.0,-0.0,-0.0,-0.0,-0.0,-0.0,-0.0,-0.0,-0.0,-0.0,-0.0,-0.0,-0.0,-0.0,-0.0,-0.0,-0.0,-0.0,-0.0,-0.1039,-0.352,-0.1418,-0.0,-0.0,-0.0,-0.0,-0.0,-0.0,-0.0603,-0.1814,-0.361,-0.4518,-0.4507,-0.4609,-0.4657,-0.4646,-0.4577,-0.4519,-0.4519,-0.4519,-0.4519,-0.4519,-0.4519,-0.4842,-0.5324,-0.5324,-0.571,-0.615,-0.5546,-0.5003,-0.4519,-0.9693,-0.8559,-0.7738,-0.8014,-0.7065,-0.6317,-0.6317,-0.6317,-0.6095,-0.5437,-0.5378,-0.5164,-0.457,-0.4519,-0.4519,-0.4519,-0.4519,-0.4519,-0.4519,-0.4519,-0.4519,-0.4519,-0.4519,-0.4519,-0.4519,-0.4519,-0.4519,-0.4519,-0.4487,-0.3585,-0.1896,-0.0615,-0.0,-0.0,-0.0,-0.0,-0.0,-0.0,0.0224,0.0841,0.3439,0.4241,0.3952,0.434,0.4514,0.4468,0.4274,0.4333,0.4458,0.4054,0.2132,-0.0,-0.0,-0.0,-0.0,-0.0,-0.0,-0.0,-0.0,-0.0,-0.0,-0.0,-0.0,-0.0,-0.0,-0.0,-0.0,-0.0,-0.0,-0.0,-0.0,-0.0,-0.0,-0.0,-0.0,-0.0,-0.0,-0.0,-0.0,-0.0,-0.0,-0.0,-0.0,-0.0,-0.0185,-0.0552,-0.0239,-0.0,-0.0,-0.0,-0.0,-0.0,-0.0,-0.0117,-0.0281,-0.3065,-0.4502,-0.4528,-0.4524,-0.4514,-0.4546,-0.4525,-0.4519,-0.4519,-0.4519,-0.4519,-0.4519,-0.4519,-0.457,-0.4625,-0.4625,-0.468,-0.4791,-0.468,-0.457,-0.4519,-0.8713,-0.7767,-0.7106,-0.7269,-0.6265,-0.555,-0.5928,-0.566,-0.5336,-0.5003,-0.4948,-0.4842,-0.4515,-0.4519,-0.4519,-0.4519,-0.4519,-0.4519,-0.4519,-0.4519,-0.4519,-0.4519,-0.4519,-0.4522,-0.4473,-0.4473,-0.4473,-0.448,-0.449,-0.4157,-0.3421,-0.1119,-0.0,-0.0,-0.0,-0.0,-0.0,-0.0,-0.0,0.0112,0.1456,0.2979,0.4406,0.3538,0.3766,0.4521,0.4511,0.3426,0.1964,0.1964,0.1121,-0.028,-0.1964,-0.2525,-0.2355,-0.151,-0.1229,-0.1229,-0.1229,-0.0623,-0.0,-0.0,-0.0,-0.0,-0.0,-0.0,-0.0,-0.0,-0.0,-0.0,-0.0,-0.0,-0.0,-0.0,-0.0,-0.0,-0.0,-0.0,-0.0,-0.0,-0.0,-0.0,-0.0,-0.0,-0.0,-0.0,-0.0,-0.0,-0.0,-0.0,-0.0,-0.0,-0.0,-0.0,-0.0,-0.1347,-0.2849,-0.4507,-0.3644,-0.3688,-0.4473,-0.4473,-0.4525,-0.4519,-0.4519,-0.4519,-0.4519,-0.4519,-0.4519,-0.4519,-0.4519,-0.4519,-0.4519,-0.4519,-0.4519,-0.4519]},{"header":{"parameterUnit":"m.s-1","parameterCategory":1,"la1":30.6,"la2":28.766,"lo1":-90.7593,"lo2":-88.6598,"dy":0.0162,"dx":0.0183,"nx":116,"ny":114,"refTime":"2023-06-28T12:00:00:Z","depth":0,"parameterNumber":3,"parameterNumberName":"V-component_of_WINDS"},"data":[0.0,0.0,0.0,0.0,0.0,0.0,0.0,0.0,0.0,0.0,0.0,0.0,0.0,0.0,0.0,0.0,0.0,0.0,0.0,0.0,0.0,0.0,0.0,0.0,0.0,0.0,0.0,0.0,0.0,0.0,0.0,0.0,0.0,0.0,0.0,0.0,0.0,0.0,0.0,0.0,0.0,0.0,0.0,0.0,0.0,0.0,0.0,0.0,0.0,0.0,0.0,0.0,0.0,0.0,0.0,0.0,0.0,0.0,0.0,0.0,0.0,0.0,0.0,0.0,0.0,0.0,0.0,0.0,0.0,0.0,0.0,0.0,0.0,0.0,0.0,0.0,0.0,0.0,0.0,0.0,0.0,0.0,0.0,0.0,0.0,0.0,0.0,0.0,0.0,0.0,0.0,0.0,0.0,0.0,0.0,0.0,0.0,0.0,0.0,0.0,0.0,0.0,0.0,0.0,0.0,0.0,0.0,0.0,0.0,0.0,0.0,0.0,0.0,0.0,0.0,0.0,0.0,0.0,0.0,0.0,0.0,0.0,0.0,0.0,0.0,0.0,0.0,0.0,0.0,0.0,0.0,0.0,0.0,0.0,0.0,0.0,0.0,0.0,0.0,0.0,0.0,0.0,0.0,0.0,0.0,0.0,0.0,0.0,0.0,0.0,0.0,0.0,0.0,0.0,0.0,0.0,0.0,0.0,0.0,0.0,0.0,0.0,0.0,0.0,0.0,0.0,0.0,0.0,0.0,0.0,0.0,0.0,0.0,0.0,0.0,0.0,0.0,0.0,0.0,0.0,0.0,0.0,0.0,0.0,0.0,0.0,0.0,0.0,0.0,0.0,0.0,0.0,0.0,0.0,0.0,0.0,0.0,0.0,0.0,0.0,0.0,0.0,0.0,0.0,0.0,0.0,0.0,0.0,0.0,0.0,0.0,0.0,0.0,0.0,0.0,0.0,0.0,0.0,0.0,0.0,0.0,0.0,0.0,0.0,0.0,0.0,0.0,0.0,0.0,0.0,0.0,0.0,0.0,0.0,0.0,0.0,0.0,0.0,0.0,0.0,0.0,0.0,0.0,0.0,0.0,0.0,0.0,0.0,0.0,0.0,0.0,0.0,0.0,0.0,0.0,0.0,0.0,0.0,0.0,0.0,0.0,0.0,0.0,0.0,0.0,0.0,0.0,0.0,0.0,0.0,0.0,0.0,0.0,0.0,0.0,0.0,0.0,0.0,0.0,0.0,0.0,0.0,0.0,0.0,0.0,0.0,0.0,0.0,0.0,0.0,0.0,0.0,0.0,0.0,0.0,0.0,0.0,0.0,0.0,0.0,0.0,0.0,0.0,0.0,0.0,0.0,0.0,0.0,0.0,0.0,0.0,0.0,0.0,0.0,0.0,0.0,0.0,0.0,0.0,0.0,0.0,0.0,0.0,0.0,0.0,0.0,0.0,0.0,0.0,0.0,0.0,0.0,0.0,0.0,0.0,0.0,0.0,0.0,0.0,0.0,0.0,0.0,0.0,0.0,0.0,0.0,0.0,0.0,0.0,0.0,0.0,0.0,0.0,0.0,0.0,0.0,0.0,0.0,0.0,0.0,0.0,0.0,0.0,0.0,0.0,0.0,0.0,0.0,0.0,0.0,0.0,0.0,0.0,0.0,0.0,0.0,0.0,0.0,0.0,0.0,0.0,0.0,0.0,0.0,0.0,0.0,0.0,0.0,0.0,0.0,0.0,0.0,0.0,0.0,0.0,0.0,0.0,0.0,0.0,0.0,0.0,0.0,0.0,0.0,0.0,0.0,0.0,0.0,0.0,0.0,0.0,0.0,0.0,0.0,0.0,0.0,0.0,0.0,0.0,0.0,0.0,0.0,0.0,0.0,0.0,0.0,0.0,0.0,0.0,0.0,0.0,0.0,0.0,0.0,0.0,0.0,0.0,0.0,0.0,0.0,0.0,0.0,0.0,0.0,0.0,0.0,0.0,0.0,0.0,0.0,0.0,0.0,0.0,0.0,0.0,0.0,0.0,0.0,0.0,0.0,0.0,0.0,0.0,0.0,0.0,0.0,0.0,0.0,0.0,0.0,0.0,0.0,0.0,0.0,0.0,0.0,0.0,0.0,0.0,0.0,0.0,0.0,0.0,0.0,0.0,0.0,0.0,0.0,0.0,0.0,0.0,0.0,0.0,0.0,0.0,0.0,0.0,0.0,0.0,0.0,0.0,0.0,0.0,0.0,0.0,0.0,0.0,0.0,0.0,0.0,0.0,0.0,0.0,0.0,0.0,0.0,0.0,0.0,0.0,0.0,0.0,0.0,0.0,0.0,0.0,0.0,0.0,0.0,0.0,0.0,0.0,0.0,0.0,0.0,0.0,0.0,0.0,0.0,0.0,0.0,0.0,0.0,0.0,0.0,0.0,0.0,0.0,0.0,0.0,0.0,0.0,0.0,0.0,0.0,0.0,0.0,0.0,0.0,0.0,0.0,0.0,0.0,0.0,0.0,0.0,0.0,0.0,0.0,0.0,0.0,0.0,0.0,0.0,0.0,0.0,0.0,0.0,0.0,0.0,0.0,0.0,0.0,0.0,0.0,0.0,0.0,0.0,0.0,0.0,0.0,0.0,0.0,0.0,0.0,0.0,0.0,0.0,0.0,0.0,0.0,0.0,0.0,0.0,0.0,0.0,0.0,0.0,0.0,0.0,0.0,0.0,0.0,0.0,0.0,0.0,0.0,0.0,0.0,0.0,0.0,0.0,0.0,0.0,0.0,0.0,0.0,0.0,0.0,0.0,0.0,0.0,0.0,0.0,0.0,0.0,0.0,0.0,0.0,0.0,0.0,0.0,0.0,0.0,0.0,0.0,0.0,0.0,0.0,0.0,0.0,0.0,0.0,0.0,0.0,0.0,0.0,0.0,0.0,0.0,0.0,0.0,0.0,0.0,0.0,0.0,0.0,0.0,0.0,0.0,0.0,0.0,0.0,0.0,0.0,0.0,0.0,0.0,0.0,0.0,0.0,0.0,0.0,0.0,0.0,0.0,0.0,0.0,0.0,0.0,0.0,0.0,0.0,0.0,0.0,0.0,0.0,0.0,0.0,0.0,0.0,0.0,0.0,0.0,0.0,0.0,0.0,0.0,0.0,0.0,0.0,0.0,0.0,0.0,0.0,0.0,0.0,0.0,0.0,0.0,0.0,0.0,0.0,0.0,0.0,0.0,0.0,0.0,0.0,0.0,0.0,0.0,0.0,0.0,0.0,0.0,0.0,0.0,0.0,0.0,0.0,0.0,0.0,0.0,0.0,0.0,0.0,0.0,0.0,0.0,0.0,0.0,0.0,0.0,0.0,0.0,0.0,0.0,0.0,0.0,0.0,0.0,0.0,0.0,0.0,0.0,0.0,0.0,0.0,0.0,0.0,0.0,0.0,0.0,0.0,0.0,0.0,0.0,0.0,0.0,0.0,0.0,0.0,0.0,0.0,0.0,0.0,0.0,0.0,0.0,0.0,0.0,0.0,0.0,0.0,0.0,0.0,0.0,0.0,0.0,0.0,0.0,0.0,0.0,0.0,0.0,0.0,0.0,0.0,0.0,0.0,0.0,0.0,0.0,0.0,0.0,0.0,0.0,0.0,0.0,0.0,0.0,0.0,0.0,0.0,0.0,0.0,0.0,0.0,0.0,0.0,0.0,0.0,0.0,0.0,0.0,0.0,0.0,0.0,0.0,0.0,0.0,0.0,0.0,0.0,0.0,0.0,0.0,0.0,0.0,0.0,0.0,0.0,0.0,0.0,0.0,0.0,0.0,0.0,0.0,0.0,0.0,0.0,0.0,0.0,0.0,0.0,0.0,0.0,0.0,0.0,0.0,0.0,0.0,0.0,0.0,0.0,0.0,0.0,0.0,0.0,0.0,0.0,0.0,0.0,0.0,0.0,0.0,0.0,0.0,0.0,0.0,0.0,0.0,0.0,0.0,0.0,0.0,0.0,0.0,0.0,0.0,0.0,0.0,0.0,0.0,0.0,0.0,0.0,0.0,0.0,0.0,0.0,0.0,0.0,0.0,0.0,0.0,0.0,0.0,0.0,0.0,0.0,0.0,0.0,0.0,0.0,0.0,0.0,0.0,0.0,0.0,0.0,0.0,0.0,0.0,0.0,0.0,0.0,0.0,0.0,0.0,0.0,0.0,0.0,0.0,0.0,0.0,0.0,0.0,0.0,0.0,0.0,0.0,0.0,0.0,0.0,0.0,0.0,0.0,0.0,0.0,0.0,0.0,0.0,0.0,0.0,0.0,0.0,0.0,0.0,0.0,0.0,0.0,0.0,0.0,0.0,0.0,0.0,0.0,0.0,0.0,0.0,0.0,0.0,0.0,0.0,0.0,0.0,0.0,0.0,0.0,0.0,0.0,0.0,0.0,0.0,0.0,0.0,0.0,0.0,0.0,0.0,0.0,0.0,0.0,0.0,0.0,0.0,0.0,0.0,0.0,0.0,0.0,0.0,0.0,0.0,0.0,0.0,0.0,0.0,0.0,0.0,0.0,0.0,0.0,0.0,0.0,0.0,0.0,0.0,0.0,0.0,0.0,0.0,0.0,0.0,0.0,0.0,0.0,0.0,0.0,0.0,0.0,0.0,0.0,0.0,0.0,0.0,0.0,0.0,0.0,0.0,0.0,0.0,0.0,0.0,0.0,0.0,0.0,0.0,0.0,0.0,0.0,0.0,0.0,0.0,0.0,0.0,0.0,0.0,0.0,0.0,0.0,0.0,0.0,0.0,0.0,0.0,0.0,0.0,0.0,0.0,0.0,0.0,0.0,0.0,0.0,0.0,0.0,0.0,0.0,0.0,0.0,0.0,0.0,0.0,0.0,0.0,0.0,0.0,0.0,0.0,0.0,0.0,0.0,0.0,0.0,0.0,0.0,0.0,0.0,0.0,0.0,0.0,0.0,0.0,0.0,0.0,0.0,0.0,0.0,0.0,0.0,0.0,0.0,0.0,0.0,0.0,0.0,0.0,0.0,0.0,0.0,0.0,0.0,0.0,0.0,0.0,0.0,0.0,0.0,0.0,0.0,0.0,0.0,0.0,0.0,0.0,0.0,0.0,0.0,0.0,0.0,0.0,0.0,0.0,0.0,0.0,0.0,0.0,0.0,0.0,0.0,0.0,0.0,0.0,0.0,0.0,0.0,0.0,0.0,0.0,0.0,0.0,0.0,0.0,0.0,0.0,0.0,0.0,0.0,0.0,0.0,0.0,0.0,0.0,0.0,0.0,0.0,0.0,0.0,0.0,0.0,0.0,0.0,0.0,0.0,0.0,0.0,0.0,0.0,0.0,0.0,0.0,0.0,0.0,0.0,0.0,0.0,0.0,0.0,0.0,0.0,0.0,0.0,0.0,0.0,0.0,0.0,0.0,0.0,0.0,0.0,0.0,0.0,0.0,0.0,0.0,0.0,0.0,0.0,0.0,0.0,0.0,0.0,0.0,0.0,0.0,0.0,0.0,0.0,0.0,0.0,0.0,0.0,0.0,0.0,0.0,0.0,0.0,0.0,0.0,0.0,0.0,0.0,0.0,0.0,0.0,0.0,0.0,0.0,0.0,0.0,0.0,0.0,0.0,0.0,0.0,0.0,0.0,0.0,0.0,0.0,0.0,0.0,0.0,0.0,0.0,0.0,0.0,0.0,0.0,0.0,0.0,0.0,0.0,0.0,0.0,0.0,0.0,0.0,0.0,0.0,0.0,0.0,0.0,0.0,0.0,0.0,0.0,0.0,0.0,0.0,0.0,0.0,0.0,0.0,0.0,0.0,0.0,0.0,0.0,0.0,0.0,0.0,0.0,0.0,0.0,0.0,0.0,0.0,0.0,0.0,0.0,0.0,0.0,0.0,0.0,0.0,0.0,0.0,0.0,0.0,0.0,0.0,0.0,0.0,0.0,0.0,0.0,0.0,0.0,0.0,0.0,0.0,0.0,0.0,0.0,0.0,0.0,0.0,0.0,0.0,0.0,0.0,0.0,0.0,0.0,0.0,0.0,0.0,0.0,0.0,0.0,0.0,0.0,0.0,0.0,0.0,0.0,0.0,0.0,0.0,0.0,0.0,0.0,0.0,0.0,0.0,0.0,-1.3426,0.0,0.0,0.0,0.0,0.0,0.0,0.0,0.0,0.0,0.0,0.0,0.0,0.0,0.0,0.0,0.0,0.0,0.0,0.0,0.0,0.0,0.0,0.0,0.0,0.0,0.0,0.0,0.0,0.0,0.0,0.0,0.0,0.0,0.0,0.0,0.0,0.0,0.0,0.0,0.0,0.0,0.0,0.0,0.0,0.0,0.0,0.0,0.0,0.0,0.0,0.0,0.0,0.0,0.0,0.0,0.0,0.0,0.0,0.0,0.0,0.0,0.0,0.0,0.0,0.0,0.0,0.0,0.0,0.0,0.0,0.0,0.0,0.0,0.0,0.0,0.0,0.0,0.0,0.0,0.0,0.0,0.0,0.0,0.0,0.0,0.0,0.0,0.0,0.0,0.0,0.0,0.0,0.0,0.0,0.0,0.0,0.0,0.0,0.0,0.0,0.0,0.0,0.0,0.0,0.0,0.0,0.0,0.0,0.0,0.0,0.0,0.0,0.0,0.0,0.0,0.0,-1.3932,0.0,0.0,0.0,0.0,0.0,0.0,0.0,0.0,0.0,0.0,0.0,0.0,0.0,0.0,0.0,0.0,0.0,0.0,0.0,0.0,0.0,0.0,0.0,0.0,0.0,0.0,0.0,0.0,0.0,0.0,0.0,0.0,0.0,0.0,0.0,0.0,0.0,0.0,0.0,0.0,0.0,0.0,0.0,0.0,0.0,0.0,0.0,0.0,0.0,0.0,0.0,0.0,0.0,0.0,0.0,0.0,0.0,0.0,0.0,0.0,0.0,0.0,0.0,0.0,0.0,0.0,0.0,0.0,0.0,0.0,0.0,0.0,0.0,0.0,0.0,0.0,0.0,0.0,0.0,0.0,0.0,0.0,0.0,0.0,0.0,0.0,0.0,0.0,0.0,0.0,0.0,0.0,0.0,0.0,0.0,0.0,0.0,0.0,0.0,0.0,0.0,0.0,0.0,0.0,0.0,0.0,0.0,0.0,-1.7794,-1.8066,-1.8444,-1.8553,-1.8608,-1.8503,-1.6584,-1.5257,-1.453,-1.488,0.0,0.0,0.0,0.0,0.0,0.0,0.0,0.0,0.0,0.0,0.0,0.0,0.0,0.0,0.0,0.0,0.0,0.0,0.0,0.0,0.0,0.0,0.0,0.0,0.0,0.0,0.0,0.0,0.0,0.0,0.0,0.0,0.0,0.0,0.0,0.0,0.0,0.0,-2.4972,-2.5752,-2.6397,-2.6793,0.0,0.0,0.0,0.0,0.0,0.0,0.0,0.0,0.0,0.0,0.0,0.0,0.0,0.0,0.0,0.0,0.0,0.0,0.0,0.0,0.0,0.0,0.0,0.0,0.0,0.0,0.0,0.0,0.0,0.0,0.0,0.0,0.0,0.0,0.0,0.0,0.0,0.0,0.0,0.0,0.0,0.0,0.0,0.0,-2.1038,-1.9748,0.0,0.0,0.0,0.0,0.0,0.0,0.0,0.0,0.0,0.0,0.0,0.0,0.0,-1.8348,-1.8359,-1.9771,-2.0076,-1.9356,-2.0276,-2.0532,-2.0289,-2.0797,-2.1033,-2.0996,-2.0225,0.0,-1.6071,-1.615,0.0,0.0,0.0,0.0,0.0,0.0,0.0,0.0,0.0,0.0,0.0,0.0,0.0,0.0,0.0,0.0,0.0,0.0,0.0,0.0,0.0,0.0,0.0,0.0,0.0,0.0,0.0,0.0,0.0,0.0,0.0,0.0,0.0,0.0,0.0,0.0,-2.4496,-2.5685,-2.7008,-2.8273,-2.9137,-2.9551,-2.8372,-2.7362,-2.6462,-2.5931,0.0,0.0,0.0,0.0,0.0,0.0,0.0,0.0,0.0,0.0,0.0,0.0,0.0,0.0,0.0,0.0,0.0,0.0,0.0,0.0,0.0,0.0,0.0,0.0,0.0,0.0,0.0,0.0,0.0,0.0,0.0,0.0,0.0,0.0,0.0,0.0,0.0,0.0,0.0,-2.2038,-2.1455,-2.0499,-1.9804,-1.9333,0.0,0.0,0.0,0.0,0.0,0.0,0.0,0.0,0.0,-2.1128,-2.0944,-2.1109,-2.1716,-2.2445,-2.2862,-2.3016,-2.345,-2.3737,-2.3875,-2.3817,-2.3791,-2.3753,-2.2912,-2.1646,-2.0036,-1.8496,-1.741,-1.662,0.0,0.0,0.0,0.0,-1.5914,-1.6202,0.0,0.0,0.0,0.0,0.0,0.0,0.0,0.0,0.0,0.0,0.0,0.0,0.0,0.0,0.0,-2.5319,0.0,0.0,0.0,0.0,0.0,0.0,0.0,0.0,0.0,0.0,0.0,0.0,-2.6974,-2.8645,-2.9791,-3.1616,-3.2581,-3.2778,-3.2828,-3.1248,-2.8481,-2.7883,-2.693,0.0,0.0,0.0,0.0,0.0,0.0,0.0,0.0,0.0,0.0,0.0,0.0,0.0,0.0,0.0,0.0,0.0,0.0,0.0,0.0,0.0,0.0,0.0,0.0,0.0,0.0,0.0,0.0,0.0,0.0,0.0,0.0,0.0,0.0,0.0,0.0,0.0,0.0,-2.2356,-2.205,-2.1103,-2.0743,-2.0517,0.0,0.0,0.0,0.0,0.0,0.0,-2.2491,-2.2153,-2.2704,-2.4456,-2.3744,-2.3853,-2.4833,-2.4983,-2.5448,-2.6239,-2.6239,-2.6465,-2.6866,-2.6289,-2.6025,-2.5963,-2.4883,-2.4092,-2.3303,-2.074,-1.9334,-1.8781,-1.8216,-1.8003,-1.7944,-1.747,-1.7577,-1.8006,0.0,0.0,0.0,0.0,0.0,0.0,0.0,0.0,0.0,0.0,0.0,0.0,0.0,0.0,-2.5974,-2.7497,-2.7019,-2.6661,0.0,0.0,0.0,0.0,0.0,0.0,0.0,0.0,0.0,-2.7581,-3.0565,-3.2692,-3.4027,-3.6235,-3.7259,-3.7295,-3.7536,-3.5985,-3.2959,-2.9855,-2.8877,-2.9319,0.0,0.0,0.0,0.0,0.0,0.0,0.0,0.0,0.0,0.0,0.0,0.0,0.0,0.0,0.0,0.0,0.0,0.0,0.0,0.0,0.0,0.0,0.0,0.0,0.0,0.0,0.0,0.0,0.0,0.0,0.0,0.0,0.0,0.0,0.0,0.0,0.0,0.0,0.0,-2.1199,-2.1796,0.0,0.0,0.0,0.0,-2.439,-2.4625,-2.523,-2.6469,-2.566,-2.5708,-2.6907,-2.6473,-2.6527,-2.7118,-2.7645,-2.7934,-2.7984,-2.7984,-2.7996,-2.8009,-2.7457,-2.7193,-2.713,-2.6,-2.5222,-2.4556,-2.2297,-2.1041,-2.0489,-1.9911,-1.9673,-1.9685,-1.9622,-1.9622,-1.9685,0.0,0.0,0.0,0.0,0.0,0.0,0.0,0.0,0.0,0.0,0.0,0.0,0.0,-2.6375,-2.7023,-2.8632,-2.8628,-2.8014,-2.6794,0.0,0.0,0.0,0.0,0.0,0.0,0.0,-2.857,-3.0696,-3.3152,-3.5218,-3.6896,-3.825,-3.899,-3.9166,-3.9471,-3.9004,-3.7797,-3.4446,-3.2172,-3.0643,-2.8946,-2.7705,0.0,0.0,0.0,0.0,0.0,0.0,0.0,0.0,0.0,0.0,0.0,0.0,0.0,0.0,0.0,0.0,0.0,0.0,0.0,0.0,0.0,0.0,0.0,0.0,0.0,0.0,0.0,0.0,0.0,0.0,0.0,0.0,0.0,0.0,0.0,0.0,0.0,-2.4418,-2.5621,0.0,-2.6153,-2.5849,-2.6082,-2.7157,-2.7216,-2.7781,-2.9174,-2.8689,-2.8899,-2.9983,-2.9376,-2.8954,-2.8888,-2.9101,-2.9189,-2.9189,-2.9189,-2.9189,-2.9164,-2.8599,-2.8348,-2.8285,-2.7168,-2.6578,-2.6289,-2.4757,-2.3389,-2.2159,-2.1242,-2.0891,-2.084,-2.0489,-2.0351,-2.0507,0.0,0.0,0.0,0.0,0.0,0.0,0.0,0.0,0.0,0.0,0.0,-2.4854,-2.6615,-2.7283,-2.8373,-3.0239,-2.9779,-2.889,-2.769,0.0,0.0,0.0,0.0,0.0,0.0,-2.9093,-3.1512,-3.3961,-3.6116,-3.8064,-3.9775,-4.0471,-4.088,-4.1055,-4.1289,-4.1373,-4.1219,-3.9008,-3.6181,-3.3063,-3.1632,-3.0674,-2.9903,0.0,0.0,0.0,0.0,0.0,0.0,0.0,0.0,0.0,0.0,0.0,0.0,0.0,0.0,0.0,0.0,0.0,0.0,0.0,0.0,0.0,0.0,0.0,0.0,0.0,0.0,0.0,0.0,0.0,0.0,0.0,0.0,0.0,0.0,0.0,-2.6688,-2.6919,-2.8314,-2.916,-2.8951,-2.8921,-2.9282,-3.0176,-3.0397,-3.0983,-3.222,-3.1732,-3.159,-3.1916,-3.1119,-3.0407,-2.9792,-2.9792,-2.9792,-2.9792,-2.9792,-2.9792,-2.9779,-2.9202,-2.8925,-2.8875,-2.7758,-2.7281,-2.7205,-2.6276,-2.5247,-2.4142,-2.3037,-2.2611,-2.2548,-2.1995,-2.1951,-2.2317,0.0,0.0,0.0,0.0,0.0,0.0,0.0,0.0,0.0,0.0,0.0,-2.485,-2.6444,-2.804,-2.9965,-3.2394,-3.0393,-2.9126,-2.9514,-2.6209,0.0,0.0,0.0,0.0,-2.8774,-3.2263,-3.5145,-3.7351,-3.9521,-4.1295,-4.2639,-4.2982,-4.3107,-4.3107,-4.3143,-4.3143,-4.3143,-4.3162,-4.0758,-3.6873,-3.5968,-3.4961,-3.3697,0.0,0.0,0.0,0.0,0.0,0.0,0.0,0.0,0.0,0.0,0.0,0.0,0.0,0.0,0.0,0.0,0.0,0.0,0.0,0.0,0.0,0.0,0.0,0.0,0.0,0.0,0.0,0.0,0.0,0.0,0.0,0.0,0.0,-2.5282,-2.7519,-2.9097,-2.8452,-2.9713,-3.0432,-2.9819,-3.0911,-3.2183,-3.3455,-3.4143,-3.4801,-3.5394,-3.4543,-3.3533,-3.2593,-3.1669,-3.0758,-2.9792,-2.9792,-2.9792,-2.9792,-2.9792,-2.9792,-2.9779,-2.9214,-2.895,-2.89,-2.7808,-2.7331,-2.7293,-2.6716,-2.6546,-2.6445,-2.5272,-2.4845,-2.477,-2.4205,-2.4448,-2.513,0.0,0.0,0.0,0.0,0.0,0.0,0.0,0.0,0.0,0.0,-2.3935,-2.5617,-2.7036,-2.8283,-2.9965,-3.2394,-2.9986,-2.8339,-2.8297,0.0,0.0,0.0,0.0,0.0,-3.3328,-3.6312,-3.8719,-4.0532,-4.2126,-4.3099,-4.3476,-4.3557,-4.3616,-4.3616,-4.3844,-4.397,-4.4008,-4.4643,-4.3874,-4.1989,-3.9315,-3.7226,-3.5496,0.0,0.0,0.0,0.0,0.0,0.0,0.0,0.0,0.0,0.0,0.0,0.0,0.0,0.0,0.0,0.0,0.0,0.0,0.0,0.0,0.0,0.0,0.0,0.0,0.0,0.0,0.0,0.0,0.0,0.0,0.0,0.0,-3.1078,-2.9016,-3.0469,-3.1813,-3.2038,-3.3261,-3.4068,-3.3888,-3.4203,-3.4562,-3.4921,-3.5115,-3.5005,-3.4461,-3.4177,-3.3241,-3.1683,-3.1315,-3.0758,-2.9792,-2.9792,-2.9792,-2.9792,-2.9792,-2.9792,-2.9779,-2.9628,-2.9553,-2.9515,-2.8787,-2.8473,-2.8398,-2.7444,-2.7055,-2.6942,-2.5824,-2.5385,-2.5272,-2.4343,-2.4541,-2.5256,0.0,0.0,0.0,0.0,0.0,0.0,0.0,0.0,0.0,0.0,-2.3756,-2.5485,-2.6217,-2.7611,-2.9282,-3.1162,-2.8975,-2.7465,-2.7442,0.0,0.0,0.0,0.0,-3.3405,-3.6312,-3.8996,-4.1162,-4.2854,-4.3636,-4.4192,-4.4556,-4.4556,-4.4556,-4.4576,-4.4764,-4.4836,-4.4874,-4.5374,-4.5297,-4.4662,-4.272,-4.1037,-3.944,-3.7025,-3.614,-3.5963,-3.3973,-3.3903,-3.4317,-3.1533,0.0,0.0,0.0,0.0,0.0,0.0,0.0,0.0,0.0,0.0,0.0,0.0,0.0,0.0,0.0,0.0,0.0,0.0,0.0,0.0,0.0,0.0,0.0,0.0,-3.2861,-3.4409,-3.3102,-3.3504,-3.4014,-3.4328,-3.504,-3.5504,-3.5504,-3.5504,-3.5504,-3.5504,-3.5504,-3.5213,-3.4691,-3.4245,-3.331,-3.1815,-3.1389,-3.0758,-2.9792,-2.9792,-2.9792,-2.9792,-2.9792,-2.9792,-2.9792,-2.9792,-2.9792,-2.9767,-2.9176,-2.8925,-2.885,-2.7733,-2.7281,0.0,0.0,0.0,0.0,0.0,-2.5495,-2.5807,0.0,0.0,0.0,0.0,0.0,0.0,0.0,0.0,0.0,0.0,0.0,-2.4617,-2.4369,-2.6113,-2.783,-2.9104,-2.7419,-2.6456,0.0,0.0,0.0,0.0,0.0,-3.6546,-3.8527,-4.0989,-4.297,-4.4451,-4.4451,-4.4836,-4.5586,-4.5586,-4.5586,-4.555,-4.5586,-4.5586,-4.555,-4.5586,-4.5586,-4.5586,-4.5586,-4.5009,-4.3835,-4.0854,-4.0527,-4.1223,-3.7912,-3.6233,-3.5244,-3.2956,0.0,0.0,0.0,0.0,0.0,0.0,0.0,0.0,0.0,0.0,0.0,0.0,0.0,0.0,0.0,0.0,0.0,0.0,0.0,0.0,0.0,0.0,0.0,0.0,-3.6163,-3.7102,-3.6966,-3.6337,-3.5783,-3.5544,-3.5504,-3.5504,-3.5504,-3.5504,-3.5504,-3.5504,-3.5504,-3.5424,-3.5213,0.0,0.0,0.0,0.0,-3.0724,-2.988,-2.9829,-2.9792,-2.9792,-2.9792,-2.9792,-2.9792,-2.9792,-2.9792,-2.9767,-2.9252,-2.9026,-2.8938,-2.7896,-2.7465,-2.7359,-2.6873,-2.6582,-2.6464,-2.6897,-2.6806,-2.6529,0.0,0.0,0.0,0.0,0.0,0.0,0.0,0.0,0.0,-1.9573,-2.1831,-2.3074,-2.1653,-2.3142,-2.4946,-2.6711,-2.5325,-2.5086,0.0,0.0,0.0,0.0,0.0,0.0,-4.2066,-4.3912,-4.5009,-4.5336,-4.5336,-4.5432,-4.5586,-4.5586,-4.5476,-4.5201,-4.5476,-4.5438,-4.5222,-4.5495,-4.5586,-4.5586,-4.5586,-4.4682,-4.3258,-4.2604,-4.1681,-4.0566,-3.9227,-3.9714,-4.057,-3.7879,-3.7143,-3.683,-3.3803,0.0,0.0,0.0,0.0,0.0,0.0,0.0,0.0,0.0,0.0,0.0,0.0,0.0,0.0,0.0,0.0,0.0,0.0,0.0,0.0,-3.6924,-3.8497,-3.9206,-3.855,-3.7833,-3.6914,-3.5668,-3.5504,-3.5504,-3.5504,-3.5504,-3.5504,-3.5504,-3.5504,-3.4854,-3.3255,-3.3421,-3.2752,-3.1035,-3.0813,-3.059,-3.0457,-3.0018,-2.9792,-2.9792,0.0,0.0,-2.9792,-2.9792,-2.9792,-2.9779,-2.9679,-2.9628,-2.9566,-2.8888,-2.8469,-2.8242,-2.7693,-2.6896,-2.6096,-2.6856,-2.6891,-2.6481,0.0,0.0,0.0,0.0,0.0,0.0,0.0,0.0,0.0,0.0,-2.1833,-2.2667,-2.1805,-2.2653,-2.378,-2.4963,-2.4244,0.0,0.0,0.0,0.0,0.0,0.0,0.0,0.0,-4.4951,-4.5586,-4.5586,-4.5586,-4.5586,-4.5586,-4.5586,-4.5513,-4.5362,-4.5532,-4.5513,-4.5362,-4.5531,-4.5586,-4.5586,-4.5586,-4.5086,-4.4355,-4.4355,-4.3709,-4.2641,-4.1396,-4.1412,-4.1706,-3.9464,-3.8809,-3.8533,-3.6179,-3.3931,-3.1636,0.0,0.0,0.0,0.0,0.0,0.0,0.0,0.0,0.0,0.0,0.0,0.0,0.0,0.0,-3.2763,0.0,0.0,-3.7922,-3.98,-4.073,-4.0919,-4.0165,-3.9366,-3.8007,-3.5759,-3.5504,-3.5504,-3.5504,-3.5504,-3.5504,-3.5504,-3.5311,-3.4752,-3.379,-3.3348,-3.2704,-3.1744,-3.1225,-3.0997,-3.0997,-3.0733,-3.047,-3.0206,-3.0206,-3.0055,-2.9792,-2.9792,-2.9792,-2.9869,-3.0279,-3.0203,-2.9819,-2.9678,-2.9405,-2.9006,-2.934,-2.8433,-2.7087,-2.7949,-2.7698,-2.6899,0.0,0.0,0.0,0.0,0.0,0.0,0.0,0.0,0.0,0.0,0.0,-2.2298,-2.1988,-2.2317,-2.2842,0.0,0.0,0.0,0.0,0.0,0.0,0.0,0.0,0.0,0.0,0.0,-4.5586,-4.5586,-4.5586,-4.5586,-4.5586,-4.5531,-4.5476,-4.5419,-4.5457,-4.5476,-4.5419,-4.5531,-4.5701,-4.5836,-4.5663,-4.5701,-4.5836,-4.559,-4.5246,-4.4658,-4.3071,-4.1798,-4.071,-3.9517,-3.8812,-3.8303,-3.7312,-3.6138,-3.4593,-3.1601,-3.0522,0.0,0.0,0.0,0.0,0.0,0.0,0.0,0.0,0.0,-3.2307,-3.3186,-3.4438,-3.5977,-3.7973,-3.9056,-4.0257,-4.2202,-4.2506,-4.2219,-4.1272,-4.0404,-3.8872,-3.6014,-3.5699,-3.5699,-3.5699,-3.5699,-3.5699,-3.5699,-3.5346,-3.4982,-3.4825,-3.3661,-3.2922,-3.2684,-3.1932,-3.1549,-3.1549,-3.1449,-3.1185,-3.0758,-3.067,-3.0382,-2.9942,-2.9842,-2.9934,-3.0139,-3.1044,-3.1044,-3.038,-3.0732,-3.0626,-3.0323,-3.1276,-3.0411,-2.8731,-2.9287,-2.8769,-2.7737,0.0,0.0,0.0,0.0,0.0,0.0,0.0,0.0,0.0,0.0,0.0,0.0,0.0,0.0,0.0,0.0,0.0,0.0,0.0,0.0,0.0,0.0,0.0,0.0,0.0,0.0,0.0,-4.5586,-4.5586,-4.5586,-4.5586,-4.5302,-4.5007,-4.4707,-4.5011,-4.4988,-4.4757,-4.5342,-4.6047,-4.6701,-4.5913,-4.6067,-4.6645,-4.5569,-4.4681,-4.3878,-4.2602,-4.0534,-3.8488,-3.9029,-3.8498,-3.7845,-3.9093,-3.8432,-3.6806,-3.4944,0.0,-2.9863,-3.0206,-3.0299,-3.0406,-3.1011,-3.0836,-3.1608,0.0,0.0,-3.5537,-3.6975,-3.7922,-3.8768,-3.9698,-4.1001,-4.2219,-4.3149,-4.3301,-4.2735,-4.1261,-4.0347,-3.9061,-3.6646,-3.6372,-3.6372,-3.6372,-3.6372,-3.6372,-3.6372,-3.6018,-3.538,-3.4529,-3.3909,-3.3148,-3.2281,-3.2198,-3.2127,-3.2127,-3.1637,-3.1361,-3.1298,-3.0834,-3.0583,-3.0507,-3.0018,-3.0279,-3.1119,-3.2033,-3.2393,-3.228,-3.269,-3.2744,-3.2749,-3.3107,-3.2261,-3.0816,-3.0497,-2.9948,-2.9247,0.0,0.0,0.0,0.0,0.0,0.0,0.0,0.0,0.0,0.0,0.0,0.0,0.0,0.0,0.0,0.0,0.0,0.0,0.0,0.0,0.0,0.0,0.0,0.0,0.0,0.0,0.0,0.0,-4.5586,-4.5495,-4.5302,-4.518,-4.4919,-4.4606,-4.4943,-4.503,-4.4919,-4.54,-4.5797,-4.6105,-4.574,-4.5817,-4.5935,-4.4081,-4.2253,-4.068,-3.9981,-3.8201,0.0,0.0,-3.5729,-3.5957,-3.764,-3.7335,-3.6128,-3.4724,-3.3579,0.0,-3.2911,-3.2894,0.0,0.0,-3.3938,-3.5378,-3.7298,-3.7984,-3.8514,-3.9597,-4.0747,-4.166,-4.1982,-4.2912,-4.3724,0.0,-4.4096,-4.3558,-4.1999,-4.1055,-3.9865,-3.8027,-3.7005,-3.6342,-3.5953,-3.5908,-3.6073,-3.6462,-3.612,-3.5577,-3.4941,-3.4768,-3.4095,-3.2814,-3.3031,-3.3043,-3.2717,-3.2478,-3.2202,-3.1863,-3.1323,-3.0909,-3.0595,-3.0043,-3.0633,-3.2033,-3.2464,-3.289,-3.3435,-3.355,-3.3653,-3.3662,-3.3976,-3.3449,-3.249,-3.1886,-3.0715,-2.9444,0.0,0.0,0.0,0.0,0.0,0.0,0.0,0.0,0.0,0.0,0.0,0.0,0.0,0.0,0.0,0.0,0.0,0.0,0.0,0.0,0.0,0.0,0.0,0.0,0.0,0.0,0.0,0.0,-4.5303,-4.5201,-4.4966,-4.4853,-4.4682,-4.4447,-4.4707,-4.4853,-4.4966,-4.5322,-4.5647,-4.5932,-4.5701,-4.5414,-4.4863,-4.2389,-3.9739,-3.7313,-3.6976,-3.5124,0.0,0.0,-3.234,-3.2931,-3.4672,-3.4893,-3.4411,-3.3946,-3.4338,-3.4721,-3.3795,0.0,0.0,-3.4798,-3.6599,-3.8393,-3.8545,-3.9685,-4.0849,-4.139,-4.2354,-4.3115,-4.3115,-4.3572,-4.4012,-4.4231,-4.4265,-4.3749,-4.2134,-4.1391,-4.0309,-3.8296,-3.7131,-3.6237,-3.5564,-3.5833,-3.6222,-3.6701,-3.6301,-3.5967,-3.5962,-3.5234,-3.4451,-3.3569,-3.3631,-3.3483,-3.3081,-3.3081,-3.2867,-3.2441,-3.1738,-3.1347,-3.1182,-3.1046,-3.1696,-3.3031,-3.3255,-3.3822,-3.4394,-3.4394,-3.4394,-3.4418,-3.4664,-3.4352,-3.3709,-3.323,-3.1723,-2.9988,0.0,0.0,0.0,0.0,0.0,0.0,0.0,0.0,0.0,0.0,0.0,0.0,0.0,0.0,0.0,0.0,0.0,0.0,0.0,0.0,0.0,0.0,0.0,0.0,0.0,0.0,0.0,0.0,0.0,-4.465,-4.4624,-4.4204,-4.4028,-4.4016,-4.4028,-4.4233,-4.465,-4.4966,-4.5781,-4.6797,-4.5932,-4.4939,-4.3633,-4.0846,-3.7593,-3.4479,-3.4065,0.0,0.0,0.0,-2.8696,-2.8538,-3.0477,-3.1373,0.0,-3.3407,-3.4267,0.0,0.0,0.0,-3.6063,-3.698,-3.8377,-3.9804,-4.0866,-4.166,-4.2236,-4.2252,-4.2286,-4.232,-4.232,-4.2337,-4.2591,-4.3335,-4.3453,-4.2886,-4.1268,-4.102,-3.9882,-3.6908,-3.6507,-3.6237,0.0,-3.6626,-3.736,-3.7375,-3.6636,-3.664,-3.7648,-3.4828,-3.3654,-3.4581,-3.3654,-3.3093,-3.3081,-3.3081,-3.3068,-3.3031,-3.1926,-3.1835,-3.2764,-3.3505,-3.3876,-3.4027,-3.4986,-3.5439,-3.5424,-3.5424,-3.5424,-3.5439,-3.5489,-3.5055,-3.4442,-3.4427,-3.317,-3.1347,0.0,0.0,0.0,0.0,0.0,0.0,0.0,0.0,0.0,0.0,0.0,0.0,0.0,0.0,0.0,0.0,0.0,0.0,0.0,0.0,0.0,0.0,0.0,0.0,0.0,0.0,0.0,0.0,0.0,0.0,-4.2622,-4.2464,-4.2575,-4.2885,-4.3095,-4.3583,-4.4195,-4.4223,-4.4472,-4.4689,-4.2794,-4.1799,-4.1055,-3.753,-3.443,-3.1736,0.0,0.0,0.0,0.0,-2.5923,-2.623,-2.7448,0.0,0.0,-3.1526,-3.2677,-3.3424,0.0,0.0,-3.8582,-3.9472,-4.0906,-4.2313,-4.3066,-4.3539,-4.3656,-4.3149,-4.2642,-4.2151,-4.166,-4.1576,-4.1644,-4.1914,-4.2777,-4.2518,-3.9978,-4.0411,-3.9708,-3.6225,-3.6222,0.0,0.0,0.0,0.0,-3.7345,-3.7134,-3.723,-3.7785,-3.6851,-3.5778,-3.469,-3.4356,-3.3969,-3.348,-3.3926,-3.4048,-3.3899,-3.3085,-3.271,-3.269,-3.3578,-3.4027,-3.4027,-3.5067,-3.5504,-3.5504,-3.5504,-3.5504,-3.5504,-3.5504,-3.5085,-3.4472,-3.4472,-3.3784,-3.2796,0.0,0.0,0.0,0.0,0.0,0.0,0.0,0.0,0.0,0.0,0.0,0.0,0.0,0.0,0.0,0.0,0.0,0.0,0.0,0.0,0.0,0.0,0.0,0.0,0.0,0.0,0.0,0.0,0.0,0.0,-3.8672,-3.8815,-3.9185,-3.9717,-4.0087,-4.0715,-4.139,-4.1014,-4.0924,-4.0878,-3.9052,-3.7871,-3.6901,-3.3717,-3.1086,0.0,0.0,0.0,0.0,0.0,0.0,-2.4569,-2.5224,-2.6743,-2.8594,-3.0089,-3.1969,-3.4046,-3.6319,-3.8128,-3.9744,-4.14,-4.2619,-4.3512,-4.3888,-4.4085,-4.3724,-4.2151,-4.1457,-4.073,-3.9445,-3.8988,-3.9157,-4.024,-4.1001,-4.1017,-3.9861,-4.024,-3.9644,-3.6938,-3.6737,-3.6641,0.0,0.0,0.0,-3.7345,-3.7475,-3.7811,-3.8339,-3.7704,-3.6878,-3.5883,-3.546,-3.5063,-3.458,-3.5023,-3.4925,-3.4355,-3.4325,-3.3842,-3.3171,-3.434,-3.4762,-3.4543,-3.5213,-3.5504,-3.5504,-3.5504,-3.5504,-3.5504,-3.5504,-3.5235,-3.4846,-3.4846,-3.4577,-3.4143,0.0,0.0,0.0,0.0,0.0,0.0,0.0,0.0,0.0,0.0,0.0,0.0,0.0,0.0,0.0,0.0,0.0,0.0,0.0,0.0,0.0,0.0,0.0,0.0,0.0,0.0,0.0,0.0,0.0,0.0,-3.3259,-3.3629,-3.4194,-3.4871,-3.5309,-3.5915,-3.6584,-3.5787,-3.5638,-3.5874,-3.4983,0.0,-3.1551,-2.9646,0.0,0.0,0.0,0.0,0.0,0.0,0.0,0.0,0.0,0.0,-3.004,-2.9448,-3.2341,-3.6062,-3.7601,-3.8616,-3.9901,-4.276,-4.3453,-4.342,-4.342,-4.3335,-4.2439,-3.9529,-3.8836,-3.8091,0.0,0.0,-3.5436,-3.8345,-3.8396,-3.8791,-4.0856,-4.0491,-3.9658,0.0,0.0,0.0,0.0,0.0,0.0,-3.7554,0.0,-3.8308,-3.9337,-3.7462,-3.683,-3.7753,-3.6802,-3.6225,-3.6235,-3.6286,-3.5703,-3.4594,-3.5508,-3.5309,-3.421,-3.5762,-3.6148,-3.5549,-3.5519,-3.5504,-3.5504,-3.5504,-3.5504,-3.5504,-3.5504,-3.5504,-3.5504,-3.5504,-3.5504,-3.5325,0.0,0.0,0.0,0.0,0.0,0.0,0.0,0.0,0.0,0.0,0.0,0.0,0.0,0.0,0.0,0.0,0.0,0.0,0.0,0.0,0.0,0.0,0.0,0.0,0.0,0.0,0.0,0.0,0.0,0.0,-3.126,-3.1321,-3.1793,0.0,-3.2655,-3.3309,-3.422,-3.361,-3.3566,-3.3679,0.0,-3.043,-2.9527,0.0,0.0,0.0,0.0,0.0,0.0,0.0,0.0,0.0,0.0,-2.9166,-3.1207,-3.2662,-3.5098,-3.7652,-3.9123,-4.0882,-4.2608,-4.3944,-4.3842,-4.342,-4.342,-4.2134,-4.0443,-3.8565,-3.6823,-3.5131,0.0,0.0,0.0,-3.6265,-3.8667,0.0,-4.0393,-4.1026,0.0,-3.8898,0.0,-3.8138,-3.8138,-3.8138,0.0,0.0,-3.9266,-3.9104,-3.9424,-3.8953,-3.8467,-3.7782,-3.7158,-3.6777,-3.6632,-3.6925,-3.721,-3.7372,-3.7113,-3.6867,-3.6526,-3.6544,-3.6402,-3.6207,-3.5714,-3.5504,-3.5504,-3.5504,-3.5504,-3.5504,-3.5504,-3.5504,-3.5504,-3.5504,-3.5504,-3.5459,0.0,0.0,0.0,0.0,0.0,0.0,0.0,0.0,0.0,0.0,0.0,0.0,0.0,0.0,0.0,0.0,0.0,0.0,0.0,0.0,0.0,0.0,0.0,0.0,0.0,0.0,0.0,0.0,0.0,0.0,0.0,-2.7309,-2.7765,-2.852,-2.8716,-2.9223,-2.9917,0.0,0.0,0.0,0.0,0.0,0.0,0.0,0.0,0.0,0.0,0.0,0.0,0.0,0.0,-2.8518,-2.9617,-3.141,-3.3508,-3.5436,0.0,-3.9259,-4.1052,-4.2455,-4.3606,-4.4384,-4.3995,-4.3081,-4.1762,-4.0273,-3.8362,-3.5537,-3.3931,0.0,0.0,0.0,0.0,0.0,0.0,0.0,-4.0829,-4.1059,-4.0817,0.0,-3.9635,0.0,-3.9275,-3.9529,-4.0023,0.0,-4.0217,-3.9978,-4.0262,-4.033,-3.992,-3.9,-3.8669,-3.8366,-3.7916,-3.7857,-3.8018,-3.8392,-3.8018,-3.7689,-3.7404,-3.7345,-3.7165,-3.6851,0.0,-3.5938,-3.5908,-3.5624,-3.5504,-3.5504,-3.5504,-3.5504,-3.5504,-3.5504,-3.5504,-3.5504,0.0,0.0,0.0,0.0,0.0,0.0,0.0,0.0,0.0,0.0,0.0,0.0,0.0,0.0,0.0,0.0,0.0,0.0,0.0,0.0,0.0,0.0,0.0,0.0,0.0,0.0,0.0,0.0,0.0,0.0,0.0,0.0,0.0,0.0,0.0,0.0,0.0,0.0,0.0,0.0,0.0,0.0,0.0,0.0,0.0,0.0,0.0,0.0,0.0,0.0,-2.8755,-2.9973,-3.1461,-3.3829,-3.6366,-3.7905,-3.9309,-4.0815,-4.2861,-4.3504,-4.3707,-4.4282,-4.3775,-4.2371,-3.9495,-3.8058,-3.6096,-3.1782,0.0,-3.0294,-2.8805,-2.8789,-3.0197,-3.3761,0.0,-3.6506,-4.1471,-4.0893,-4.0449,-4.1772,-4.1039,-4.0472,-4.0651,-4.11,-4.1444,-4.1624,-4.1025,-4.0876,-4.1354,-4.1459,-4.1175,-4.0427,-4.0397,-4.0083,-3.9424,-3.8826,-3.8527,-3.8527,-3.8527,-3.8227,-3.7689,-3.8167,-3.8033,-3.7375,-3.6851,-3.6567,-3.6432,-3.5863,-3.5684,-3.5744,-3.5579,-3.5549,-3.5624,-3.5534,-3.5504,-3.5504,0.0,0.0,0.0,0.0,0.0,0.0,0.0,0.0,0.0,0.0,0.0,0.0,0.0,0.0,0.0,0.0,0.0,0.0,0.0,0.0,0.0,0.0,0.0,0.0,0.0,0.0,0.0,0.0,0.0,0.0,0.0,0.0,0.0,0.0,0.0,0.0,0.0,0.0,0.0,0.0,0.0,0.0,0.0,0.0,0.0,0.0,0.0,0.0,0.0,0.0,-3.0903,-3.3795,-3.5334,-3.7009,-3.87,-4.0189,-4.1238,-4.2134,-4.3149,-4.3893,-4.4265,-4.3741,-4.2591,-4.0984,-3.8633,-3.6062,0.0,0.0,0.0,-2.796,-2.6471,-2.7723,0.0,-3.3085,0.0,0.0,0.0,0.0,-4.0992,0.0,0.0,0.0,0.0,0.0,0.0,0.0,0.0,-4.1833,-4.1399,-4.1893,-4.1639,-4.0442,-4.0397,-4.0083,-3.9424,-3.9305,-3.9245,-3.9245,-3.9245,-3.9185,-3.905,-3.8601,-3.8033,-3.7404,-3.73,0.0,-3.6477,-3.6357,-3.6611,-3.6971,-3.5923,-3.5833,-3.6252,-3.5699,-3.5504,-3.5504,0.0,0.0,0.0,0.0,0.0,0.0,0.0,0.0,0.0,0.0,0.0,0.0,0.0,0.0,0.0,0.0,0.0,0.0,0.0,0.0,0.0,0.0,0.0,0.0,0.0,0.0,0.0,0.0,0.0,0.0,0.0,0.0,0.0,0.0,0.0,0.0,0.0,0.0,0.0,0.0,0.0,0.0,0.0,0.0,0.0,0.0,0.0,0.0,0.0,0.0,-3.0006,-3.3305,-3.64,-3.8379,-3.9851,-4.1339,-4.2016,-4.254,-4.3707,-4.4299,-4.4401,-4.3606,-4.1999,-3.9834,-3.6823,0.0,0.0,0.0,0.0,-2.6454,-2.5744,0.0,0.0,0.0,0.0,0.0,0.0,0.0,0.0,0.0,0.0,0.0,0.0,0.0,0.0,0.0,0.0,-4.2731,-4.2417,-4.2372,-4.1923,-4.0935,-4.0576,-4.0083,-3.9424,-3.9424,-3.9424,-3.9424,-3.9424,-3.9424,-3.9409,-3.908,-3.8751,-3.8437,-3.8078,-3.7749,-3.7449,-3.7105,-3.715,-3.7315,-3.6387,-3.6207,-3.6417,-3.5744,-3.5504,-3.5504,0.0,0.0,0.0,0.0,0.0,0.0,0.0,0.0,0.0,0.0,0.0,0.0,0.0,0.0,0.0,0.0,0.0,0.0,0.0,0.0,0.0,0.0,0.0,0.0,0.0,0.0,0.0,0.0,0.0,0.0,0.0,0.0,0.0,0.0,0.0,0.0,0.0,0.0,0.0,0.0,0.0,0.0,0.0,0.0,0.0,0.0,0.0,0.0,0.0,0.0,-2.7969,-3.092,-3.4857,-3.7722,-3.9868,-4.1204,-4.1914,-4.2591,-4.3961,-4.4333,-4.4147,-4.3369,-4.1373,-3.8667,-3.5081,-3.2544,0.0,0.0,-2.5744,-2.5795,-2.5642,0.0,0.0,0.0,0.0,0.0,0.0,0.0,0.0,0.0,0.0,0.0,0.0,0.0,0.0,0.0,0.0,0.0,-4.3329,-4.2851,-4.2207,-4.1414,-4.0876,-4.0232,-3.9424,-3.9424,-3.9424,-3.9424,-3.9424,-3.9424,-3.9424,-3.9424,-3.9334,-3.917,-3.8781,-3.8527,-3.8347,-3.7838,-3.7704,-3.7749,-3.6836,-3.6567,-3.6596,-3.5789,-3.5504,-3.5504,0.0,0.0,0.0,0.0,0.0,0.0,0.0,0.0,0.0,0.0,0.0,0.0,0.0,0.0,0.0,0.0,0.0,0.0,0.0,0.0,0.0,0.0,0.0,0.0,0.0,0.0,0.0,0.0,0.0,0.0,0.0,0.0,0.0,0.0,0.0,0.0,0.0,0.0,0.0,0.0,0.0,0.0,0.0,0.0,0.0,0.0,0.0,0.0,0.0,0.0,0.0,-2.745,-2.9532,-3.3812,-3.8261,-3.9056,0.0,0.0,-4.3301,-4.3521,-4.3335,-4.2591,-4.024,-3.7297,-3.4201,0.0,0.0,0.0,-2.6133,-2.6387,-2.5727,-2.6201,0.0,0.0,0.0,0.0,0.0,0.0,0.0,0.0,0.0,0.0,0.0,0.0,0.0,0.0,0.0,0.0,-4.3329,-4.3284,-4.2671,-4.1414,-4.1324,-4.0681,-3.9424,-3.9424,-3.9424,-3.9424,-3.9424,-3.9424,-3.9424,-3.9424,-3.908,-3.8512,-3.908,-3.8975,0.0,-3.8317,-3.8676,-3.905,-3.721,-3.6821,-3.718,-3.5953,-3.5504,-3.5504,0.0,0.0,0.0,0.0,0.0,0.0,0.0,0.0,0.0,0.0,0.0,0.0,0.0,0.0,0.0,0.0,0.0,0.0,0.0,0.0,0.0,0.0,0.0,0.0,0.0,0.0,0.0,0.0,0.0,0.0,0.0,0.0,0.0,0.0,0.0,0.0,0.0,0.0,0.0,0.0,0.0,0.0,0.0,0.0,0.0,0.0,0.0,0.0,0.0,0.0,0.0,0.0,-2.6168,-2.9252,0.0,0.0,-3.8244,-4.0104,-4.2185,-4.2743,-4.2675,-4.2371,-3.9749,-3.6552,-3.3998,0.0,0.0,-2.6133,-2.5845,-2.5947,-2.5659,-2.5845,-2.6437,0.0,0.0,0.0,0.0,0.0,0.0,0.0,0.0,0.0,0.0,0.0,0.0,0.0,0.0,0.0,-4.2776,-4.2746,-4.2147,-4.0831,-4.0786,-4.0352,-3.9424,-3.9424,-3.9424,-3.9424,-3.9424,-3.9424,-3.9424,-3.9424,-3.9275,-3.9035,-3.9305,-3.926,0.0,-3.9005,-3.917,-3.926,-3.7659,-3.7195,-3.7255,-3.5983,-3.5504,-3.5504,0.0,0.0,0.0,0.0,0.0,0.0,0.0,0.0,0.0,0.0,0.0,0.0,0.0,0.0,0.0,0.0,0.0,0.0,0.0,0.0,0.0,0.0,0.0,0.0,0.0,0.0,0.0,0.0,0.0,0.0,0.0,0.0,0.0,0.0,0.0,0.0,0.0,0.0,0.0,0.0,0.0,0.0,0.0,0.0,0.0,0.0,0.0,0.0,0.0,0.0,0.0,0.0,0.0,0.0,0.0,0.0,-3.5369,-3.7513,-4.0256,-4.1009,-4.1042,-4.1275,-3.8522,-3.5283,0.0,0.0,-2.7841,-2.6251,-2.5761,-2.5627,-2.5715,-2.5715,-2.5846,0.0,0.0,0.0,0.0,0.0,0.0,0.0,0.0,0.0,0.0,0.0,0.0,0.0,0.0,0.0,-4.2117,-4.2073,-4.1549,-4.0442,-4.0397,-4.0083,-3.9424,-3.9424,-3.9424,-3.9424,-3.9424,-3.9424,-3.9424,-3.9424,-3.9424,-3.9424,-3.9424,-3.9424,0.0,-3.9424,-3.9424,-3.929,-3.7928,-3.7404,-3.7255,-3.5983,-3.5504,-3.5504,0.0,0.0,0.0,0.0,0.0,0.0,0.0,0.0,0.0,0.0,0.0,0.0,0.0,0.0,0.0,0.0,0.0,0.0,0.0,0.0,0.0,0.0,0.0,0.0,0.0,0.0,0.0,0.0,0.0,0.0,0.0,0.0,0.0,0.0,0.0,0.0,0.0,0.0,0.0,0.0,0.0,0.0,0.0,0.0,0.0,0.0,0.0,0.0,0.0,0.0,0.0,0.0,0.0,0.0,0.0,0.0,-3.2293,-3.5148,-3.7357,-3.7956,-3.8165,-3.892,-3.6256,-3.3036,0.0,0.0,-2.6708,-2.6691,-2.6116,-2.5681,-2.5936,-2.5997,-2.5652,-2.4592,0.0,0.0,0.0,0.0,0.0,0.0,0.0,0.0,0.0,0.0,0.0,0.0,0.0,0.0,-4.1459,-4.1384,-4.1085,-4.0427,-4.0397,-4.0083,-3.9424,-3.9424,-3.9424,-3.9424,-3.9424,-3.9424,-3.9424,-3.9424,-3.9424,-3.9424,-3.9424,-3.9424,0.0,-3.9424,-3.9424,-3.929,-3.7928,-3.7404,-3.7255,-3.5983,-3.5504,-3.5504,0.0,0.0,0.0,0.0,0.0,0.0,0.0,0.0,0.0,0.0,0.0,0.0,0.0,0.0,0.0,0.0,0.0,0.0,0.0,0.0,0.0,0.0,0.0,0.0,0.0,0.0,0.0,0.0,0.0,0.0,0.0,0.0,0.0,0.0,0.0,0.0,0.0,0.0,0.0,0.0,0.0,0.0,0.0,0.0,0.0,0.0,0.0,0.0,0.0,0.0,0.0,0.0,0.0,0.0,0.0,0.0,0.0,0.0,-3.2857,-3.3501,-3.3738,-3.4005,-3.194,-2.9666,-2.8708,0.0,-2.5812,-2.5287,-2.5,-2.4923,-2.5141,-2.5168,-2.5155,-2.5072,-2.5261,0.0,0.0,0.0,0.0,0.0,0.0,0.0,0.0,0.0,0.0,0.0,0.0,-4.1624,-4.0756,-4.0711,-4.0412,-3.9753,-3.9723,-3.9634,-3.9424,-3.9424,-3.9424,-3.9424,-3.9424,-3.9424,-3.9424,-3.9424,-3.9155,-3.8736,-3.9215,-3.9155,-3.8721,-3.8721,-3.8721,-3.8586,-3.7285,-3.6776,-3.6671,-3.5818,-3.5504,-3.5504,0.0,0.0,0.0,0.0,0.0,0.0,0.0,0.0,0.0,0.0,0.0,0.0,0.0,0.0,0.0,0.0,0.0,0.0,0.0,0.0,0.0,0.0,0.0,0.0,0.0,0.0,0.0,0.0,0.0,0.0,0.0,0.0,0.0,0.0,0.0,0.0,0.0,0.0,0.0,0.0,0.0,0.0,-2.231,0.0,0.0,0.0,0.0,0.0,0.0,0.0,0.0,0.0,0.0,0.0,0.0,0.0,-2.4831,0.0,0.0,-3.0078,-3.0315,-3.0615,-2.9164,-2.7509,-2.6801,0.0,-2.4712,-2.4557,-2.4146,-2.3896,-2.4109,-2.4223,-2.4302,-2.4394,-2.4793,0.0,0.0,0.0,0.0,0.0,0.0,0.0,0.0,0.0,0.0,0.0,-4.125,-4.11,-4.0442,-4.0397,-4.0098,-3.9439,-3.9424,-3.9424,-3.9424,-3.9424,-3.9424,-3.9424,-3.9424,-3.929,-3.9035,-3.9035,-3.8661,-3.8048,-3.8467,-3.8422,0.0,-3.8018,-3.8018,-3.7913,-3.6896,-3.6492,-3.6417,-3.5744,-3.5504,-3.5504,0.0,0.0,0.0,0.0,0.0,0.0,0.0,0.0,0.0,0.0,0.0,0.0,0.0,0.0,0.0,0.0,0.0,0.0,0.0,0.0,0.0,0.0,0.0,0.0,0.0,0.0,0.0,0.0,-2.4135,-2.4135,-2.419,0.0,0.0,0.0,0.0,0.0,0.0,0.0,0.0,0.0,0.0,0.0,0.0,0.0,0.0,0.0,0.0,0.0,0.0,0.0,0.0,0.0,0.0,0.0,0.0,0.0,0.0,0.0,0.0,0.0,0.0,0.0,-2.7392,-2.6157,-2.5562,0.0,0.0,0.0,-2.3457,-2.28,-2.3128,-2.3333,-2.3358,-2.3058,0.0,0.0,0.0,0.0,0.0,0.0,0.0,0.0,0.0,0.0,0.0,-4.0142,-4.0756,-4.0831,-4.0217,-4.0187,-3.9903,-3.929,-3.9275,-3.932,-3.9424,-3.9424,-3.9394,-3.9349,-3.9394,-3.9035,-3.8317,-3.8362,-3.8003,0.0,-3.7389,-3.7389,-3.7345,-3.7345,-3.7345,-3.7285,-3.6656,-3.6417,-3.6342,-3.5729,-3.5504,-3.5504,0.0,0.0,0.0,0.0,0.0,0.0,0.0,0.0,0.0,0.0,0.0,0.0,0.0,0.0,0.0,0.0,0.0,0.0,0.0,0.0,0.0,0.0,0.0,0.0,0.0,0.0,0.0,-2.419,-2.3584,-2.3602,-2.419,-2.419,0.0,0.0,0.0,0.0,0.0,0.0,0.0,0.0,0.0,0.0,0.0,0.0,0.0,0.0,-2.2908,-2.2989,0.0,0.0,0.0,0.0,0.0,0.0,0.0,0.0,-2.272,-2.2976,-2.3451,0.0,-2.3829,-2.3424,-2.3063,-2.2752,0.0,0.0,0.0,0.0,0.0,-2.2792,-2.4162,-2.399,-2.4227,0.0,0.0,0.0,0.0,0.0,0.0,0.0,0.0,0.0,0.0,0.0,0.0,-3.8093,-3.8257,-3.8272,-3.8123,-3.8123,-3.8033,-3.7883,-3.7883,-3.8377,-3.9409,-3.9424,-3.9155,-3.8631,-3.917,-3.8796,-3.7659,-3.8167,-3.7764,-3.6731,-3.721,-3.715,-3.6701,-3.6701,-3.6701,-3.6641,-3.5983,-3.5744,-3.5714,-3.5564,-3.5504,-3.5504,0.0,0.0,0.0,0.0,0.0,0.0,0.0,0.0,0.0,0.0,0.0,0.0,0.0,0.0,0.0,0.0,0.0,0.0,0.0,0.0,0.0,0.0,0.0,0.0,0.0,0.0,0.0,0.0,0.0,-2.3768,0.0,0.0,0.0,0.0,0.0,0.0,0.0,0.0,0.0,0.0,-2.2712,0.0,0.0,0.0,0.0,0.0,-2.3069,-2.3189,0.0,-2.3392,-2.3323,-2.323,0.0,0.0,0.0,0.0,-2.2822,-2.2686,-2.2544,-2.2784,-2.2942,-2.2528,-2.2428,-2.2428,0.0,0.0,0.0,0.0,0.0,0.0,-2.3621,0.0,0.0,0.0,0.0,0.0,0.0,0.0,0.0,0.0,0.0,0.0,0.0,0.0,-3.7105,-3.7389,-3.7404,-3.7404,-3.7404,-3.7404,-3.7404,-3.7404,-3.7404,-3.7764,-3.8497,-3.8497,-3.8317,-3.7943,-3.8317,-3.7973,-3.7,-3.7345,-3.6971,-3.6058,-3.6387,-3.6342,-3.6028,-3.6028,-3.6028,-3.5998,-3.5639,-3.5504,-3.5504,-3.5504,-3.5504,-3.5504,0.0,0.0,0.0,0.0,0.0,0.0,0.0,0.0,0.0,0.0,0.0,0.0,0.0,0.0,0.0,0.0,0.0,0.0,0.0,0.0,0.0,0.0,0.0,0.0,0.0,0.0,0.0,0.0,0.0,0.0,0.0,0.0,0.0,0.0,0.0,0.0,0.0,0.0,0.0,0.0,-2.2947,0.0,0.0,0.0,0.0,0.0,0.0,0.0,0.0,-2.3671,-2.3588,-2.3392,-2.3692,0.0,0.0,0.0,0.0,0.0,-2.3014,-2.3288,-2.3488,-2.3287,-2.3393,-2.3528,0.0,0.0,0.0,0.0,0.0,0.0,0.0,0.0,0.0,0.0,0.0,0.0,0.0,0.0,0.0,0.0,0.0,0.0,0.0,-3.6342,-3.6552,-3.7075,-3.712,-3.712,-3.712,-3.712,-3.712,-3.712,-3.712,-3.712,-3.712,-3.7315,-3.736,-3.727,-3.736,-3.703,-3.6342,-3.6432,-3.6133,-3.5504,0.0,0.0,-3.5504,-3.5504,-3.5504,-3.5504,-3.5504,-3.5504,-3.5504,-3.5504,-3.5504,-3.5504,0.0,0.0,0.0,0.0,0.0,0.0,0.0,0.0,0.0,0.0,0.0,0.0,0.0,0.0,0.0,0.0,0.0,0.0,0.0,0.0,0.0,0.0,0.0,0.0,0.0,0.0,0.0,0.0,0.0,0.0,-2.5463,-2.4598,-2.419,0.0,0.0,0.0,0.0,-2.361,-2.3459,-2.3212,-2.3437,0.0,0.0,0.0,0.0,0.0,0.0,0.0,0.0,-2.4094,-2.4094,-2.4054,-2.4094,0.0,0.0,0.0,0.0,0.0,-2.4045,-2.4161,-2.3903,-2.2739,-2.341,-2.4154,0.0,0.0,0.0,0.0,0.0,0.0,0.0,0.0,0.0,0.0,0.0,0.0,0.0,0.0,0.0,0.0,0.0,0.0,-3.5639,-3.5654,-3.5699,-3.5789,-3.5804,-3.5804,-3.5804,-3.5804,-3.5804,-3.5804,-3.5804,-3.5804,-3.5804,-3.6866,-3.715,-3.6626,-3.7165,-3.6791,-3.5669,-3.6237,-3.6133,-3.5504,0.0,-3.5504,-3.5504,-3.5504,-3.5504,-3.5504,-3.5504,-3.5504,-3.5504,-3.5504,-3.5504,-3.5504,0.0,0.0,0.0,0.0,0.0,0.0,0.0,0.0,0.0,0.0,0.0,0.0,0.0,0.0,0.0,0.0,0.0,0.0,0.0,0.0,0.0,0.0,0.0,0.0,0.0,0.0,0.0,0.0,0.0,-2.4242,-2.5034,-2.4469,-2.419,-2.419,0.0,0.0,0.0,-2.3976,-2.3876,-2.3753,0.0,0.0,0.0,0.0,0.0,0.0,0.0,0.0,0.0,0.0,-2.419,-2.419,-2.419,0.0,0.0,0.0,0.0,0.0,-2.397,-2.4032,-2.3885,-2.3015,-2.3505,-2.4178,0.0,0.0,0.0,0.0,0.0,0.0,0.0,0.0,0.0,0.0,0.0,0.0,0.0,0.0,0.0,0.0,0.0,-3.5548,-3.5524,-3.5504,-3.5504,-3.5504,-3.5504,-3.5504,-3.5504,-3.5504,-3.5504,-3.5504,-3.5504,-3.5504,-3.5504,-3.6088,-3.6237,-3.5953,-3.6252,-3.6073,-3.5519,-3.5818,-3.5789,-3.5504,0.0,-3.5504,-3.5504,-3.5504,-3.5504,-3.5504,-3.5504,-3.5504,-3.5504,-3.5504,-3.5504,-3.5504,0.0,0.0,0.0,0.0,0.0,0.0,0.0,0.0,0.0,0.0,0.0,0.0,0.0,0.0,0.0,0.0,0.0,0.0,0.0,0.0,0.0,0.0,0.0,0.0,0.0,0.0,0.0,-2.3659,-2.426,-2.4559,-2.4578,-2.4647,-2.4578,0.0,0.0,0.0,0.0,-2.4266,-2.4247,-2.417,0.0,0.0,0.0,0.0,0.0,0.0,0.0,0.0,0.0,0.0,0.0,0.0,0.0,0.0,0.0,-2.419,-2.4016,-2.3852,-2.4052,-2.3975,-2.3814,-2.3626,0.0,0.0,0.0,0.0,0.0,0.0,0.0,0.0,0.0,0.0,0.0,0.0,0.0,0.0,0.0,0.0,0.0,0.0,0.0,-3.5997,-3.5785,-3.591,-3.591,-3.5504,-3.5668,-3.5668,-3.5504,-3.5504,-3.5504,-3.5504,-3.5504,-3.5504,-3.5504,-3.5504,-3.5504,-3.5504,-3.5504,-3.5504,-3.5504,-3.5504,-3.5504,-3.5504,-3.5504,-3.5504,-3.5504,-3.5504,-3.5504,-3.5504,-3.5504,-3.5504,-3.5504,-3.5504,-3.5504,-3.5504,0.0,0.0,0.0,0.0,0.0,0.0,0.0,0.0,0.0,0.0,0.0,0.0,0.0,0.0,0.0,0.0,0.0,0.0,0.0,0.0,0.0,0.0,0.0,0.0,0.0,-2.1954,-2.2884,-2.4681,-2.4737,-2.4775,-2.4808,-2.572,-2.5649,0.0,0.0,0.0,0.0,-2.4478,-2.4375,-2.419,-2.417,0.0,0.0,0.0,0.0,0.0,0.0,0.0,0.0,0.0,0.0,0.0,0.0,0.0,-2.419,-2.419,-2.417,-2.4335,-2.5069,-2.4517,-2.388,-2.4608,0.0,0.0,-2.6317,0.0,0.0,0.0,0.0,0.0,0.0,0.0,0.0,0.0,0.0,0.0,0.0,0.0,0.0,0.0,-3.7626,-3.735,-3.66,-3.7219,-3.7071,-3.5619,-3.6102,-3.6212,-3.5569,-3.5504,-3.5504,-3.5504,-3.5504,-3.5504,-3.5504,-3.5504,-3.5504,-3.5504,-3.5504,-3.5504,-3.5504,-3.5504,-3.5504,-3.5504,-3.5504,-3.5504,-3.5504,-3.5504,-3.5504,-3.5504,-3.5504,-3.5504,-3.5504,-3.5504,-3.5504,-3.5504,0.0,0.0,0.0,0.0,0.0,0.0,0.0,0.0,0.0,0.0,0.0,0.0,0.0,0.0,0.0,0.0,0.0,0.0,0.0,0.0,0.0,0.0,0.0,-2.0131,-2.1222,-2.1882,-2.3092,-2.4911,-2.4911,-2.4911,-2.493,-2.5232,0.0,0.0,0.0,0.0,0.0,-2.4543,-2.4444,-2.4375,-2.4266,-2.419,0.0,0.0,0.0,0.0,0.0,0.0,0.0,0.0,-2.419,-2.419,0.0,0.0,-2.419,-2.419,-2.419,-2.4263,-2.4557,-2.4194,-2.3807,-2.4338,0.0,0.0,0.0,0.0,0.0,0.0,0.0,0.0,0.0,0.0,0.0,0.0,0.0,0.0,0.0,0.0,-3.7096,-3.7102,-3.7543,-3.7487,-3.6732,-3.7377,-3.7164,-3.5692,-3.5814,-3.5462,-3.434,-3.4637,-3.4681,-3.4262,-3.4651,-3.4666,-3.4262,-3.4262,-3.4262,-3.4262,-3.51,-3.5504,-3.5504,-3.5504,-3.5504,-3.5504,-3.5504,-3.5504,-3.5504,-3.5504,-3.5504,-3.5504,-3.5504,-3.5504,-3.5504,-3.5504,-3.5504,-3.5504,0.0,0.0,0.0,0.0,0.0,0.0,0.0,0.0,0.0,0.0,0.0,0.0,0.0,0.0,0.0,0.0,0.0,0.0,0.0,0.0,0.0,0.0,0.0,-2.0036,-2.0935,-2.1626,-2.2854,-2.461,-2.4943,-2.5099,-2.5088,0.0,0.0,0.0,0.0,0.0,0.0,0.0,-2.4636,-2.4594,-2.4375,-2.4284,0.0,0.0,0.0,0.0,0.0,0.0,0.0,0.0,0.0,0.0,0.0,0.0,0.0,0.0,-2.4025,-2.3823,-2.3823,-2.3573,-2.3373,0.0,0.0,0.0,0.0,0.0,0.0,0.0,0.0,0.0,0.0,0.0,0.0,0.0,0.0,0.0,0.0,0.0,-3.7083,-3.709,-3.7524,-3.7524,-3.6799,-3.7378,-3.7222,-3.5723,-3.5618,-3.5081,-3.3894,-3.4027,-3.3963,-3.3499,-3.3933,-3.3948,-3.3499,-3.3499,-3.3499,-3.3499,-3.4427,-3.4981,-3.5175,-3.5175,-3.5295,-3.5489,-3.528,-3.5295,-3.5504,-3.5504,-3.5504,-3.5504,-3.5504,-3.5504,-3.5504,-3.5504,-3.5504,-3.5504,0.0,0.0,0.0,0.0,0.0,0.0,0.0,0.0,0.0,0.0,0.0,0.0,0.0,0.0,0.0,0.0,0.0,0.0,0.0,0.0,0.0,0.0,0.0,-2.0139,-2.1261,-2.128,-2.2121,-2.3793,-2.4791,-2.5303,-2.5284,0.0,0.0,0.0,0.0,0.0,0.0,0.0,0.0,-2.479,-2.4575,-2.4512,-2.4478,0.0,0.0,0.0,0.0,0.0,0.0,0.0,-2.419,0.0,0.0,0.0,0.0,0.0,-2.3639,-2.2997,-2.2997,-2.2771,0.0,0.0,0.0,0.0,0.0,0.0,0.0,0.0,0.0,0.0,0.0,0.0,0.0,0.0,0.0,0.0,0.0,-3.7415,-3.7889,-3.7889,-3.7889,-3.7565,-3.6801,-3.7451,-3.7253,-3.5726,-3.5639,-3.5348,-3.4539,-3.3849,-3.3484,-3.3469,-3.3484,-3.3484,-3.3469,-3.3469,-3.3469,-3.3469,-3.3484,-3.3829,-3.4472,-3.4472,-3.4846,-3.5459,-3.4771,-3.4861,-3.5504,-3.5504,-3.5504,-3.5504,-3.5504,-3.5504,-3.5504,-3.5504,-3.5504,-3.5504,0.0,0.0,0.0,0.0,0.0,0.0,0.0,0.0,0.0,0.0,0.0,0.0,0.0,0.0,0.0,0.0,0.0,0.0,0.0,0.0,0.0,0.0,0.0,0.0,0.0,0.0,-2.1895,-2.3093,-2.4582,-2.5005,0.0,0.0,0.0,-2.5303,0.0,0.0,0.0,0.0,0.0,-2.4943,-2.4771,-2.4286,-2.3712,0.0,0.0,0.0,0.0,0.0,0.0,0.0,0.0,0.0,0.0,0.0,0.0,-2.419,-2.4025,-2.3841,-2.3841,0.0,0.0,0.0,0.0,0.0,0.0,0.0,0.0,0.0,0.0,0.0,0.0,0.0,0.0,0.0,0.0,0.0,-3.5825,-3.6163,-3.6299,-3.6299,-3.6789,-3.7047,-3.6776,-3.7472,-3.7299,-3.5789,-3.5689,-3.5153,-3.3905,-3.365,-3.333,-3.2885,-3.2838,-3.2587,-3.2123,-3.2108,-3.2108,-3.2123,-3.2587,-3.3155,-3.3784,-3.3784,-3.4143,-3.4771,-3.4562,-3.4861,-3.5504,-3.5504,-3.5504,-3.5504,-3.5504,-3.5504,-3.5504,-3.5504,-3.5504,-3.5504,0.0,0.0,0.0,0.0,0.0,0.0,0.0,0.0,0.0,0.0,0.0,0.0,0.0,0.0,0.0,0.0,0.0,0.0,0.0,0.0,0.0,0.0,0.0,0.0,0.0,-2.0861,-2.1511,0.0,0.0,0.0,0.0,0.0,0.0,-2.5303,0.0,0.0,0.0,0.0,0.0,-2.5118,-2.4943,-2.4317,-2.3531,0.0,0.0,0.0,0.0,0.0,0.0,0.0,0.0,0.0,0.0,0.0,0.0,-2.3823,-2.3492,-2.3235,-2.3235,0.0,0.0,0.0,0.0,0.0,0.0,0.0,0.0,0.0,0.0,0.0,0.0,0.0,0.0,0.0,0.0,-3.388,-3.4641,-3.4742,-3.4844,-3.5131,-3.5334,-3.5554,-3.5842,-3.6282,-3.6194,-3.5302,-3.5232,-3.489,-3.4053,-3.3455,-3.2989,-3.2602,-3.2304,-3.2045,-3.1966,-3.164,-3.164,-3.1966,-3.2045,-3.2494,-3.3165,-3.3408,-3.3894,-3.4485,-3.4463,-3.4861,-3.5504,-3.5504,-3.5504,-3.5504,-3.5504,-3.5504,-3.5504,-3.5504,-3.5504,-3.5504,0.0,0.0,0.0,0.0,0.0,0.0,0.0,0.0,0.0,0.0,0.0,0.0,0.0,0.0,0.0,0.0,0.0,0.0,0.0,0.0,0.0,0.0,0.0,0.0,0.0,0.0,0.0,0.0,0.0,0.0,0.0,0.0,-2.4601,-2.5303,0.0,-2.5303,0.0,0.0,-2.5264,-2.5158,-2.4985,-2.4381,-2.3553,-2.3314,0.0,0.0,0.0,0.0,0.0,0.0,0.0,0.0,0.0,0.0,-2.4061,-2.3327,-2.2538,-2.1931,0.0,0.0,0.0,0.0,0.0,0.0,0.0,0.0,0.0,0.0,0.0,0.0,0.0,0.0,0.0,0.0,-3.2341,-3.2594,-3.322,-3.3372,-3.3626,-3.4218,-3.3778,-3.366,-3.432,-3.4387,-3.4387,-3.4387,-3.4468,-3.4523,-3.4589,-3.3399,-3.2671,-3.2695,-3.2064,-3.2007,-3.2586,-3.1966,-3.1951,-3.2586,-3.1853,-3.191,-3.2711,-3.3135,-3.3759,-3.4484,-3.4576,-3.4958,-3.5529,-3.534,-3.5355,-3.5415,-3.5415,-3.5444,-3.5504,-3.5504,-3.5504,-3.5504,0.0,0.0,0.0,0.0,0.0,0.0,0.0,0.0,0.0,0.0,0.0,0.0,0.0,0.0,0.0,0.0,0.0,0.0,0.0,0.0,0.0,0.0,0.0,0.0,0.0,0.0,0.0,0.0,0.0,0.0,0.0,0.0,0.0,-2.5303,0.0,-2.5303,0.0,0.0,-2.4947,-2.4351,-2.4313,-2.3313,-2.1899,-2.2467,-2.2073,0.0,0.0,0.0,0.0,0.0,0.0,0.0,-2.4006,-2.419,-2.4171,-2.3988,-2.3364,-2.2887,0.0,0.0,0.0,0.0,0.0,0.0,0.0,0.0,0.0,0.0,0.0,0.0,0.0,0.0,0.0,0.0,-3.278,-3.3017,-3.2594,-3.3034,-3.3237,-3.2797,-3.3136,-3.3457,-3.3626,-3.3643,-3.3643,-3.3643,-3.365,-3.3927,-3.4499,-3.3752,-3.3322,-3.3375,-3.3235,-3.2986,-3.2586,-3.2437,-3.2437,-3.2586,-3.1853,-3.2145,-3.3339,-3.2338,-3.2917,-3.4663,-3.5151,-3.546,-3.5492,-3.4361,-3.4233,-3.4696,-3.4696,-3.5026,-3.5504,-3.5504,-3.5504,-3.5504,0.0,0.0,0.0,0.0,0.0,0.0,0.0,0.0,0.0,0.0,0.0,0.0,0.0,0.0,0.0,0.0,0.0,0.0,0.0,0.0,0.0,0.0,0.0,0.0,0.0,0.0,0.0,0.0,0.0,0.0,0.0,0.0,0.0,-2.5303,0.0,-2.5303,0.0,0.0,-2.4485,-2.4052,-2.3648,-2.2651,-2.1426,-2.1797,-2.1342,-2.0607,-2.1272,0.0,0.0,0.0,0.0,0.0,0.0,0.0,-2.4116,-2.3749,-2.3327,-2.3015,0.0,0.0,0.0,0.0,0.0,0.0,0.0,0.0,0.0,0.0,0.0,0.0,0.0,0.0,0.0,-3.1833,-3.2087,-3.2205,-3.1816,-3.2087,-3.2341,-3.229,-3.2324,-3.2493,-3.2831,-3.2865,-3.2865,-3.2865,-3.3203,-3.3575,-3.3947,-3.3361,-3.3006,-3.3032,-3.2689,-3.254,-3.2506,-3.2203,-3.2049,-3.2049,-3.2027,-3.2567,-3.3582,-3.3166,-3.3751,-3.5122,-3.5142,-3.5076,-3.5022,-3.4285,-3.4031,-3.4038,-3.4352,-3.4696,-3.5055,-3.5385,-3.5504,-3.5504,0.0,0.0,0.0,0.0,0.0,0.0,0.0,0.0,0.0,0.0,0.0,0.0,0.0,0.0,0.0,0.0,0.0,0.0,0.0,0.0,0.0,0.0,0.0,0.0,0.0,0.0,0.0,0.0,0.0,0.0,0.0,0.0,0.0,-2.5303,0.0,0.0,0.0,0.0,0.0,0.0,-2.309,-2.2274,-2.1496,-2.1378,-2.0977,-2.0518,-2.0911,-2.1486,-2.2208,-2.2999,0.0,0.0,0.0,0.0,-2.4061,-2.34,-2.3125,-2.2905,0.0,0.0,0.0,0.0,0.0,0.0,0.0,0.0,0.0,0.0,0.0,0.0,0.0,0.0,0.0,-3.0987,-3.1004,-3.1055,-3.1173,-3.119,-3.141,-3.2019,-3.1562,-3.1427,-3.2036,-3.2087,-3.2087,-3.2087,-3.2679,-3.3085,-3.3203,-3.27,-3.2397,-3.2422,-3.1976,-3.1945,-3.2393,-3.1835,-3.1582,-3.1677,-3.2192,-3.2786,-3.3432,-3.407,-3.4853,-3.5596,-3.5004,-3.4743,-3.4695,-3.4416,-3.4017,-3.3547,-3.4089,-3.4312,-3.4367,-3.4951,-3.516,-3.5175,0.0,0.0,0.0,0.0,0.0,0.0,0.0,0.0,0.0,0.0,0.0,0.0,0.0,0.0,0.0,0.0,0.0,0.0,-2.146,0.0,0.0,-2.3725,0.0,0.0,0.0,0.0,0.0,0.0,0.0,0.0,0.0,0.0,0.0,0.0,0.0,0.0,0.0,0.0,0.0,0.0,0.0,0.0,-2.1504,-2.1487,-2.1872,-2.2315,-2.154,-2.1801,-2.2623,-2.3251,-2.3442,0.0,0.0,0.0,-2.4171,-2.4061,-2.3547,0.0,0.0,0.0,0.0,0.0,0.0,0.0,0.0,0.0,0.0,0.0,0.0,0.0,0.0,0.0,0.0,-3.0142,-3.026,-3.048,-3.1106,-3.119,-3.1241,-3.1326,-3.1258,-3.1241,-3.1326,-3.1343,-3.1343,-3.1343,-3.1427,-3.1765,-3.2391,-3.2384,-3.2319,-3.2406,-3.29,-3.29,-3.2422,-3.2331,-3.2285,-3.2285,-3.2384,-3.2466,-3.2564,-3.3272,-3.4359,-3.5679,-3.558,-3.5579,-3.546,-3.4214,-3.3637,-3.3532,-3.3624,-3.3648,-3.3634,-3.3724,-3.3769,-3.3844,0.0,0.0,0.0,0.0,0.0,0.0,0.0,0.0,0.0,0.0,0.0,0.0,0.0,0.0,0.0,-2.0312,-2.1089,-2.2002,-2.2956,-2.3793,-2.4216,-2.411,-2.3725,0.0,0.0,0.0,0.0,0.0,0.0,0.0,0.0,-2.5303,-2.5303,0.0,0.0,0.0,0.0,0.0,0.0,0.0,0.0,0.0,0.0,0.0,-2.1889,-2.1457,-2.1971,-2.2631,-2.332,-2.3574,-2.3888,-2.4185,-2.4414,0.0,0.0,0.0,0.0,0.0,0.0,0.0,0.0,0.0,0.0,0.0,0.0,0.0,0.0,0.0,0.0,0.0,0.0,0.0,-2.9093,-2.9414,-2.9482,-2.9583,-2.9905,-2.9956,-3.0108,-3.0531,-3.0581,-3.0751,-3.1157,-3.119,-3.119,-3.119,-3.119,-3.1157,-3.1072,-3.1444,-3.151,-3.1124,-3.1813,-3.1847,-3.1124,-3.1525,-3.1926,-3.2352,-3.199,-3.2249,-3.2988,-3.3262,-3.3758,-3.4409,-3.4409,-3.4442,-3.4396,-3.3779,-3.3558,-3.3603,-3.3997,-3.3846,-3.3569,-3.3951,-3.4088,-3.4074,0.0,0.0,0.0,0.0,0.0,0.0,0.0,0.0,0.0,0.0,0.0,0.0,0.0,0.0,0.0,0.0,-2.1509,-2.2744,-2.4408,-2.5081,-2.5043,-2.4168,-2.4129,-2.4129,0.0,0.0,0.0,0.0,0.0,0.0,-2.5303,-2.5322,-2.5322,0.0,-2.539,0.0,0.0,0.0,0.0,0.0,0.0,0.0,0.0,0.0,0.0,0.0,-2.235,-2.3256,-2.3911,-2.4121,-2.4473,-2.479,-2.4422,-2.3846,0.0,0.0,0.0,0.0,0.0,0.0,0.0,0.0,0.0,0.0,0.0,0.0,0.0,0.0,0.0,0.0,0.0,0.0,-2.8027,-2.8586,-2.8535,-2.8535,-2.8924,-2.9011,-2.9194,-2.9753,-2.982,-3.004,-3.0581,-3.0632,-3.0717,-3.0903,-3.0751,-3.048,-3.0125,-3.0446,-3.0378,-2.9837,-3.0345,-3.0378,-2.9837,-3.0362,-3.0903,-3.1444,-3.099,-3.1416,-3.2577,-3.2577,-3.2662,-3.2865,-3.3237,-3.345,-3.3521,-3.3677,-3.3791,-3.3885,-3.4417,-3.4139,-3.3568,-3.3929,-3.4001,-3.3917,0.0,0.0,0.0,0.0,0.0,0.0,0.0,0.0,0.0,0.0,0.0,0.0,0.0,-2.0312,-2.0662,-2.155,-2.2424,-2.3649,-2.5318,-2.5476,-2.5101,-2.4225,-2.4187,0.0,-2.411,0.0,0.0,0.0,0.0,0.0,-2.5303,-2.537,-2.539,-2.539,-2.5409,-2.5437,-2.544,0.0,0.0,0.0,0.0,0.0,0.0,0.0,0.0,0.0,0.0,0.0,-2.4197,-2.4957,-2.5113,-2.4853,-2.4079,-2.3596,-2.3135,0.0,0.0,0.0,0.0,0.0,0.0,0.0,0.0,0.0,0.0,0.0,0.0,0.0,0.0,0.0,0.0,0.0,-2.5406,-2.7537,-2.7283,-2.7317,-2.8808,-2.9011,-2.8991,-2.9025,-2.9042,-2.9096,-2.9093,-2.9093,-2.9397,-3.0108,-2.9499,-2.9397,-3.0074,-2.9465,-2.9076,-2.9042,-2.9076,-2.9076,-2.9042,-2.9076,-2.911,-2.9144,-2.9144,-2.955,-3.0277,-3.0277,-3.0649,-3.1376,-3.2797,-3.3477,-3.3644,-3.4192,-3.4476,-3.4528,-3.4577,-3.4185,-3.3543,-3.2935,-3.2695,-3.2678,0.0,0.0,0.0,0.0,0.0,0.0,0.0,0.0,0.0,0.0,0.0,0.0,0.0,-2.0389,-2.0546,-2.083,-2.2211,-2.3779,-2.5453,-2.5044,-2.4568,-2.4225,-2.3647,-2.3599,-2.4091,-2.411,0.0,0.0,0.0,-2.5322,-2.537,-2.539,-2.5415,-2.546,-2.5522,-2.5533,-2.5557,-2.5262,0.0,0.0,0.0,0.0,0.0,0.0,0.0,0.0,0.0,0.0,0.0,-2.4428,-2.4822,-2.5028,-2.4087,-2.3365,-2.2527,0.0,0.0,0.0,0.0,0.0,0.0,0.0,0.0,0.0,0.0,0.0,0.0,0.0,0.0,0.0,0.0,0.0,0.0,-2.5541,-2.5456,-2.5488,-2.6047,-2.6505,-2.6996,-2.7452,-2.7943,-2.8433,-2.896,-2.9011,-2.9093,-2.9364,-2.9127,-2.8873,-2.8653,-2.8856,-2.8755,-2.8247,-2.8721,-2.9011,-2.9011,-2.8484,-2.8484,-2.9011,-2.9011,-2.9381,-3.0108,-3.0108,-3.0286,-3.0675,-3.1571,-3.2293,-3.2782,-3.3026,-3.3363,-3.3896,-3.4348,-3.415,-3.3519,-3.332,-3.3235,-3.3124,0.0,0.0,0.0,0.0,0.0,0.0,0.0,0.0,0.0,0.0,0.0,0.0,0.0,0.0,-2.114,-2.1698,-2.3104,-2.4452,-2.5566,-2.4824,-2.4176,-2.3845,-2.2963,-2.2863,-2.3676,-2.3398,0.0,0.0,0.0,0.0,0.0,0.0,-2.5337,-2.5111,-2.5464,0.0,0.0,0.0,0.0,-2.5434,0.0,0.0,-2.2419,0.0,0.0,0.0,0.0,0.0,0.0,0.0,0.0,-2.4293,0.0,0.0,0.0,0.0,0.0,0.0,0.0,0.0,0.0,0.0,0.0,0.0,0.0,0.0,0.0,0.0,0.0,0.0,0.0,0.0,0.0,-2.4438,-2.4272,-2.4205,-2.4472,-2.4915,-2.5406,-2.5896,-2.6387,-2.7012,-2.7774,-2.7841,-2.8044,-2.8552,-2.8366,0.0,-2.7806,-2.8061,-2.7977,-2.7452,-2.7943,-2.8213,-2.8213,-2.7706,-2.7706,-2.8213,-2.8213,-2.8602,-2.9347,-2.9617,-2.9916,-3.0268,-3.0914,-3.1516,-3.1993,-3.2232,-3.273,-3.3457,-3.3931,-3.3839,-3.3425,-3.3064,-3.3038,-3.3042,0.0,0.0,0.0,0.0,0.0,0.0,0.0,0.0,0.0,0.0,0.0,0.0,0.0,0.0,0.0,-2.4257,-2.5176,-2.5664,-2.5703,-2.4883,-2.4023,-2.3184,-2.2238,-2.2114,-2.2915,-2.2013,0.0,0.0,0.0,0.0,0.0,0.0,-2.5159,0.0,-2.5284,-2.562,-2.5505,0.0,-2.5524,-2.5255,0.0,-2.3388,-2.3879,0.0,0.0,0.0,-2.2735,-2.2735,0.0,0.0,0.0,0.0,0.0,0.0,0.0,0.0,0.0,0.0,0.0,0.0,0.0,0.0,0.0,0.0,0.0,0.0,0.0,0.0,0.0,0.0,0.0,0.0,0.0,-2.4188,-2.3816,-2.3613,-2.4337,-2.4455,-2.4472,-2.4472,-2.4506,-2.4763,-2.5507,-2.5575,-2.6184,-2.7638,-2.7046,-2.6962,-2.774,-2.7097,-2.6691,-2.6691,-2.6691,-2.6691,-2.6691,-2.6691,-2.6691,-2.6691,-2.6691,-2.7097,-2.7806,-2.8602,-2.9364,-3.0125,-3.0818,-3.1213,-3.1394,-3.2001,-3.2679,-3.3339,-3.3372,-3.3372,-3.3229,-3.199,-3.1934,-3.2358,0.0,0.0,0.0,0.0,0.0,0.0,0.0,0.0,0.0,0.0,0.0,0.0,0.0,0.0,-2.3192,-2.4297,-2.4629,-2.5039,-2.5664,-2.4883,-2.4297,-2.4043,-2.3182,-2.3069,-2.3818,-2.2973,0.0,0.0,0.0,0.0,0.0,0.0,0.0,0.0,-2.5505,-2.5543,-2.5447,-2.5543,0.0,0.0,-2.4283,-2.3599,0.0,0.0,0.0,0.0,0.0,-2.137,-2.187,0.0,-2.2697,-2.3706,0.0,0.0,0.0,0.0,0.0,0.0,-2.12,0.0,0.0,0.0,0.0,0.0,0.0,0.0,0.0,0.0,0.0,0.0,0.0,0.0,0.0,0.0,-2.275,-2.2682,-2.2885,-2.3359,-2.3697,-2.3697,-2.4201,-2.4591,-2.4763,-2.478,-2.5312,0.0,-2.5698,-2.5802,-2.7356,-2.696,-2.6691,-2.6691,-2.6691,-2.6691,-2.6691,-2.6691,-2.6691,-2.6691,-2.6691,-2.7097,-2.7789,-2.8044,-2.8569,-2.9313,-2.9499,-2.9627,-2.9765,-3.1016,-3.1613,-3.185,-3.2391,-3.2594,-3.2562,-3.2253,-3.2635,-3.3096,0.0,0.0,0.0,0.0,0.0,0.0,0.0,0.0,0.0,0.0,0.0,0.0,0.0,0.0,-2.4394,-2.4902,-2.4941,-2.5156,-2.5664,-2.4883,-2.4394,-2.4394,-2.3574,-2.3454,-2.4186,-2.2987,0.0,0.0,0.0,0.0,0.0,0.0,0.0,0.0,0.0,0.0,0.0,0.0,0.0,0.0,-2.411,0.0,0.0,-2.1985,-2.1427,0.0,0.0,0.0,-2.1947,-2.1235,-2.1908,0.0,0.0,0.0,0.0,0.0,0.0,0.0,0.0,0.0,0.0,0.0,0.0,0.0,-2.1,-2.1204,-2.1211,0.0,0.0,0.0,0.0,0.0,0.0,0.0,-2.231,-2.231,-2.231,-2.2682,-2.2936,-2.2936,-2.3325,-2.3697,-2.4002,-2.4168,-2.4636,-2.5628,-2.509,-2.5244,-2.6536,-2.6366,-2.6234,-2.6234,-2.6234,-2.6234,-2.6234,-2.6234,-2.6387,-2.6691,-2.6691,-2.6928,-2.7351,-2.7637,-2.8078,-2.8518,-2.8839,-2.9011,-2.9096,-2.9922,-3.0277,-3.0345,-3.1089,-3.1376,-3.1381,-3.1487,-3.1961,-3.2479,0.0,0.0,0.0,0.0,0.0,0.0,0.0,0.0,0.0,0.0,0.0,0.0,0.0,0.0,0.0,0.0,-2.5703,-2.5703,-2.5703,-2.4961,-2.4531,-2.4531,-2.3809,-2.3683,-2.4339,-2.2731,-2.3015,0.0,0.0,0.0,0.0,0.0,0.0,0.0,0.0,0.0,0.0,0.0,0.0,-2.5043,-2.3543,-2.3417,0.0,0.0,-2.2062,0.0,-2.1773,-2.1947,-2.2312,-2.0908,-2.0966,0.0,0.0,0.0,0.0,0.0,-2.2764,0.0,0.0,0.0,0.0,0.0,0.0,0.0,-2.1288,-2.1271,-2.1008,-2.0373,-2.0255,0.0,0.0,0.0,0.0,0.0,-2.231,-2.231,-2.231,-2.231,-2.231,-2.231,-2.231,-2.2564,-2.3207,-2.3584,-2.4098,-2.4871,-2.501,-2.5148,-2.5321,-2.5439,-2.549,-2.549,-2.549,-2.549,-2.549,-2.549,-2.5845,-2.6573,-2.6573,-2.6623,-2.6708,-2.7385,-2.7689,-2.774,-2.8416,-2.8721,-2.8721,-2.8721,-2.8859,-2.9096,-2.9719,-2.9989,-2.9981,-3.0177,-3.0724,-3.1221,-2.0312,0.0,0.0,0.0,0.0,0.0,0.0,0.0,0.0,0.0,0.0,0.0,0.0,0.0,0.0,0.0,-2.5703,-2.5703,-2.5703,-2.5547,-2.5449,-2.5449,-2.5273,-2.5234,-2.5328,-2.4303,-2.4303,0.0,0.0,0.0,0.0,0.0,0.0,0.0,0.0,0.0,0.0,0.0,0.0,-2.4322,-2.3975,0.0,-2.3995,-2.2928,-2.2216,-2.1735,-2.1562,-2.1196,-2.085,0.0,-2.1831,-2.2658,0.0,0.0,0.0,0.0,0.0,0.0,0.0,0.0,0.0,0.0,0.0,0.0,-2.1858,-2.1617,-2.1312,0.0,-2.1843,0.0,0.0,0.0,0.0,0.0,-2.231,-2.231,-2.231,-2.231,-2.231,-2.231,-2.231,-2.2361,-2.2513,-2.2777,-2.338,-2.4451,-2.5068,-2.4931,-2.3879,-2.4374,-2.4695,-2.4695,-2.4695,-2.4695,-2.4695,-2.4695,-2.5067,-2.5812,-2.5812,-2.6133,-2.6691,-2.6843,-2.6911,-2.6911,-2.708,-2.7131,-2.7131,-2.7131,-2.7875,-2.8991,-2.9144,-2.9194,-2.9296,-2.9909,-3.0611,-3.1278,-2.0312,0.0,0.0,0.0,0.0,0.0,0.0,0.0,0.0,0.0,0.0,0.0,0.0,0.0,0.0,0.0,0.0,0.0,0.0,-2.5703,-2.5703,-2.5703,-2.5703,-2.5664,-2.5605,-2.4781,-2.4691,0.0,0.0,0.0,0.0,0.0,0.0,0.0,0.0,0.0,0.0,0.0,-2.5082,-2.462,-2.3802,0.0,-2.336,-2.2485,-2.2158,-2.2158,-2.2158,-2.162,-2.0966,-2.137,-2.2081,0.0,0.0,-2.4293,-2.5303,0.0,-2.5068,-2.4804,0.0,0.0,0.0,-2.3193,0.0,0.0,0.0,-2.1465,-2.1177,-2.1177,-2.1133,-2.1295,-2.1684,0.0,0.0,-2.2243,-2.231,-2.231,-2.231,-2.231,-2.231,-2.231,-2.231,-2.231,-2.231,-2.2695,-2.3179,-2.3755,-2.3978,-2.391,-2.3422,-2.3748,-2.3934,-2.3934,-2.3934,-2.3934,-2.3934,-2.3934,-2.4306,-2.505,-2.5423,-2.5592,-2.5625,-2.6353,-2.6488,-2.6167,-2.6539,-2.6691,-2.6691,-2.6691,-2.7148,-2.7875,-2.8264,-2.8399,-2.8535,-2.9685,-3.0345,-3.0768,-2.0312,0.0,0.0,0.0,0.0,0.0,0.0,0.0,0.0,0.0,0.0,0.0,0.0,0.0,0.0,0.0,0.0,0.0,0.0,0.0,-2.5625,-2.5469,-2.5605,-2.5605,-2.5371,-2.4862,-2.4888,0.0,0.0,0.0,0.0,0.0,0.0,0.0,0.0,0.0,0.0,0.0,0.0,-2.4716,0.0,-2.3139,-2.3197,-2.2331,-2.2447,-2.3004,-2.2658,-2.2004,-2.1293,-2.1446,0.0,-2.2831,-2.3004,-2.4082,0.0,0.0,0.0,0.0,0.0,0.0,0.0,0.0,0.0,-2.2479,0.0,0.0,0.0,-2.0576,-2.0441,0.0,0.0,0.0,0.0,0.0,0.0,0.0,0.0,-2.2124,0.0,-2.231,-2.231,-2.231,-2.231,-2.2849,-2.3165,-2.3117,-2.2972,-2.2989,-2.3185,-2.3231,-2.3243,-2.319,-2.319,-2.319,-2.319,-2.319,-2.3562,-2.432,-2.4898,-2.4932,-2.4557,-2.5862,-2.6167,-2.5642,-2.6387,-2.6691,-2.6691,-2.6691,-2.6691,-2.6759,-2.7368,-2.757,-2.7774,-2.9161,-2.9668,-2.9786,-2.0312,-2.1504,0.0,0.0,0.0,0.0,0.0,0.0,0.0,0.0,0.0,0.0,0.0,0.0,0.0,0.0,0.0,0.0,-2.5703,0.0,0.0,-2.457,-2.5293,-2.5332,-2.4551,-2.5086,-2.542,-2.5488,0.0,0.0,0.0,0.0,0.0,0.0,-2.4505,0.0,0.0,0.0,-2.3802,0.0,-2.3725,-2.437,0.0,-2.4101,-2.3879,-2.3744,-2.2197,-2.1139,-2.0562,0.0,-2.2081,-2.2928,0.0,-2.4562,-2.5303,0.0,0.0,0.0,0.0,0.0,0.0,0.0,-2.2947,0.0,0.0,0.0,-2.2158,-2.2073,0.0,0.0,0.0,0.0,0.0,0.0,0.0,0.0,-2.0441,-2.1421,-2.231,-2.231,-2.231,-2.231,-2.231,-2.2849,-2.3069,-2.2772,-2.3259,-2.3253,-2.2485,-2.2647,-2.2657,-2.2429,-2.2429,-2.2429,-2.2429,-2.2429,-2.2801,-2.3528,-2.3613,-2.3934,-2.454,-2.5355,-2.5693,-2.5642,-2.6387,-2.6691,-2.6691,-2.6691,-2.6691,-2.6708,-2.6793,-2.6826,-2.6928,-2.7774,-2.8043,-2.8281,-2.11,-2.1562,0.0,0.0,0.0,0.0,0.0,0.0,0.0,0.0,0.0,0.0,0.0,0.0,0.0,0.0,0.0,-2.5646,0.0,0.0,0.0,0.0,-2.5453,0.0,-2.5156,-2.5389,-2.551,-2.5499,-2.5398,0.0,0.0,0.0,0.0,0.0,-2.4245,0.0,-2.3851,0.0,0.0,0.0,0.0,0.0,0.0,-2.4409,-2.411,-2.3937,-2.2697,-2.1716,-2.1062,0.0,-2.2081,0.0,0.0,0.0,0.0,0.0,0.0,0.0,0.0,0.0,0.0,0.0,0.0,0.0,-2.2415,0.0,-2.231,0.0,0.0,0.0,0.0,0.0,0.0,0.0,-2.1075,0.0,0.0,0.0,-2.1143,0.0,0.0,0.0,-2.2527,-2.2634,-2.2695,-2.2695,-2.2824,-2.273,-2.2338,-2.2415,-2.2426,-2.231,-2.231,-2.231,-2.231,-2.231,-2.2462,-2.2767,-2.319,-2.3342,-2.3257,-2.4425,-2.4949,-2.5,-2.5744,-2.6302,-2.6691,-2.6691,-2.6691,-2.6691,-2.6691,-2.6691,-2.6843,-2.8044,-2.8501,-2.8704,-2.2293,0.0,0.0,0.0,0.0,0.0,0.0,0.0,0.0,0.0,0.0,0.0,-2.5657,-2.5657,0.0,0.0,0.0,-2.556,0.0,0.0,-2.5466,0.0,0.0,0.0,0.0,-2.5406,-2.5464,-2.5466,-2.5409,0.0,0.0,0.0,0.0,0.0,0.0,-2.3744,-2.3206,0.0,0.0,-2.3841,-2.4889,-2.5303,-2.5245,-2.4639,-2.4149,-2.3687,-2.3302,-2.2601,-2.1889,-2.212,-2.262,0.0,-2.4159,0.0,0.0,0.0,0.0,0.0,-2.4804,0.0,0.0,0.0,0.0,0.0,0.0,0.0,0.0,0.0,0.0,0.0,0.0,0.0,0.0,0.0,0.0,-2.0103,0.0,0.0,0.0,0.0,0.0,0.0,0.0,-2.1994,-2.2019,-2.2556,-2.2382,-2.2248,-2.2293,-2.236,-2.2388,-2.231,-2.231,-2.231,-2.231,-2.231,-2.231,-2.231,-2.2852,-2.2818,-2.2344,-2.3613,-2.432,-2.4557,-2.5287,-2.6031,-2.6691,-2.6691,-2.6691,-2.6691,-2.6691,-2.6691,-2.6826,-2.7943,-2.8484,-2.8856,-2.386,-2.4639,0.0,0.0,0.0,0.0,0.0,0.0,0.0,0.0,0.0,0.0,0.0,0.0,0.0,0.0,0.0,-2.5499,-2.5505,0.0,-2.512,0.0,0.0,-2.5105,0.0,0.0,-2.5399,-2.5409,-2.5341,-2.5303,0.0,0.0,0.0,0.0,0.0,-2.4072,-2.4052,-2.4091,-2.361,-2.2985,-2.4639,-2.5303,-2.5303,0.0,-2.4255,-2.2947,-2.3764,0.0,0.0,-2.3725,-2.4033,0.0,0.0,0.0,0.0,0.0,0.0,0.0,0.0,0.0,0.0,-2.33,0.0,0.0,0.0,0.0,-2.231,0.0,0.0,0.0,0.0,0.0,0.0,0.0,0.0,0.0,0.0,0.0,0.0,0.0,0.0,0.0,0.0,-2.0845,-2.1066,-2.222,-2.2195,-2.2164,-2.2287,-2.2537,-2.2563,-2.231,-2.231,-2.231,-2.231,-2.231,-2.231,-2.231,-2.2327,-2.2327,-2.2344,-2.3088,-2.3816,-2.4557,-2.5287,-2.6031,-2.6691,-2.6691,-2.6691,-2.6691,-2.6691,-2.6691,-2.6708,-2.6759,-2.7232,-2.7977,0.0,0.0,0.0,0.0,0.0,0.0,0.0,-2.5385,0.0,0.0,0.0,0.0,0.0,0.0,-2.5495,0.0,0.0,-2.5434,-2.5428,-2.5428,0.0,0.0,0.0,-2.5318,0.0,0.0,-2.537,-2.5409,-2.5322,-2.5303,0.0,0.0,0.0,0.0,0.0,-2.3783,0.0,0.0,0.0,0.0,0.0,-2.3658,-2.3774,0.0,-2.462,-2.3706,-2.3995,-2.3552,0.0,-2.3802,-2.411,-2.4245,-2.5063,-2.5303,-2.5303,-2.5303,-2.5068,-2.4804,0.0,0.0,-2.3937,-2.361,0.0,0.0,0.0,0.0,0.0,0.0,0.0,0.0,0.0,0.0,0.0,0.0,0.0,0.0,0.0,0.0,0.0,0.0,0.0,0.0,0.0,0.0,-2.1326,-2.2226,-2.2258,-2.2234,-2.2293,-2.2388,-2.2371,-2.231,-2.231,-2.231,-2.231,-2.231,-2.2547,-2.3021,-2.2547,-2.2818,-2.3748,-2.3511,-2.4069,-2.5236,-2.549,-2.6031,-2.6691,-2.6691,-2.6691,-2.6691,-2.6691,-2.6691,-2.6759,-2.7249,-2.7604,-2.7958,-2.5187,0.0,0.0,0.0,0.0,0.0,0.0,0.0,0.0,0.0,-2.5697,0.0,-2.5466,0.0,-2.5428,0.0,-2.539,-2.537,-2.537,-2.537,0.0,-2.537,-2.537,0.0,0.0,0.0,0.0,-2.537,-2.5322,-2.5303,0.0,0.0,0.0,0.0,0.0,0.0,0.0,0.0,-2.2754,0.0,0.0,-2.2793,0.0,0.0,-2.4274,-2.411,0.0,-2.3918,-2.3774,-2.4332,-2.4524,-2.462,-2.5139,-2.5303,-2.5303,-2.5303,-2.5068,-2.4804,-2.4804,-2.4512,0.0,-2.3795,-2.3692,0.0,-2.2996,0.0,-2.266,0.0,0.0,0.0,0.0,0.0,0.0,0.0,0.0,0.0,0.0,-1.8775,0.0,0.0,0.0,0.0,0.0,0.0,-2.0906,-2.2209,-2.2073,-2.2023,0.0,-2.231,-2.231,-2.231,-2.231,-2.231,-2.231,-2.231,-2.2682,-2.3393,-2.2919,-2.3325,-2.4489,-2.4002,-2.4441,-2.5609,-2.5609,-2.6031,-2.6691,-2.6691,-2.6691,-2.6691,-2.6691,-2.6691,-2.6759,-2.7232,-2.7553,-2.8009,0.0,0.0,0.0,0.0,-2.5303,0.0,0.0,0.0,-2.6313,0.0,-2.6101,-2.6274,-2.5399,-2.5303,-2.5303,-2.5303,-2.5303,0.0,-2.5303,-2.5303,0.0,0.0,-2.5303,-2.5303,-2.5303,0.0,0.0,0.0,0.0,0.0,0.0,0.0,0.0,0.0,-2.5303,0.0,-2.4033,-2.4033,-2.3514,-2.2677,-2.2677,-2.2697,-2.2735,-2.2677,-2.3244,-2.4033,-2.4033,-2.4543,-2.5245,-2.5245,-2.5245,-2.5245,-2.5284,-2.5303,-2.5303,-2.5303,-2.5068,-2.4804,-2.4804,-2.4512,-2.4113,-2.3795,-2.3714,0.0,0.0,0.0,-2.2764,0.0,0.0,0.0,0.0,0.0,0.0,0.0,0.0,0.0,0.0,0.0,0.0,0.0,0.0,0.0,0.0,-1.9401,-1.9925,-2.2141,-2.1651,0.0,0.0,-2.231,-2.231,-2.231,-2.231,-2.231,-2.231,-2.231,-2.2699,-2.3444,-2.341,-2.3816,-2.4625,-2.4574,-2.4949,-2.5659,-2.5659,-2.6048,-2.6691,-2.6691,-2.6691,-2.6691,-2.6691,-2.6691,-2.6691,-2.6691,-2.7182,-2.7992,-2.5303,-2.5303,-2.5303,0.0,-2.5303,-2.5303,0.0,0.0,0.0,0.0,-2.6082,-2.6274,-2.5399,-2.5303,-2.5303,-2.5303,-2.5303,0.0,0.0,0.0,0.0,-2.5303,-2.5303,-2.5303,-2.5303,-2.5303,0.0,-2.5303,0.0,0.0,-2.5303,0.0,0.0,0.0,0.0,0.0,-2.3129,-2.3129,-2.2293,-2.0946,-2.0946,-2.1293,-2.1773,0.0,-2.185,-2.3129,-2.3129,-2.3678,-2.4409,-2.4409,-2.4409,-2.4505,-2.512,-2.5303,-2.5303,-2.5303,-2.5068,-2.4804,-2.4804,-2.4512,-2.417,-2.4094,-2.4074,-2.3996,-2.3649,0.0,0.0,0.0,0.0,0.0,0.0,0.0,0.0,0.0,0.0,0.0,0.0,0.0,0.0,-2.0788,0.0,0.0,-1.9985,-2.0365,-2.1075,-2.2226,-2.2124,0.0,0.0,0.0,-2.231,-2.231,-2.231,-2.231,-2.231,-2.231,-2.2953,-2.4218,-2.3646,-2.4357,-2.6116,-2.5575,-2.5727,-2.642,-2.642,-2.6522,-2.6691,-2.6691,-2.6691,-2.6691,-2.6691,-2.6691,-2.6691,-2.6691,-2.7182,-2.784,-2.5303,0.0,0.0,-2.5303,0.0,0.0,-2.587,0.0,0.0,-2.5928,-2.6294,0.0,-2.5399,-2.5303,-2.5303,-2.5303,-2.5303,0.0,-2.5303,0.0,0.0,-2.5303,-2.5303,-2.5303,-2.5303,-2.5303,0.0,-2.5303,0.0,0.0,-2.5303,0.0,0.0,0.0,0.0,-2.4793,0.0,-2.3101,-2.2254,-2.137,-2.0985,-2.11,0.0,-2.1004,-2.1408,-2.2197,-2.1831,-2.2735,-2.411,-2.411,-2.4341,-2.4639,-2.4736,-2.5024,-2.5303,-2.5303,-2.5068,-2.4804,-2.4804,-2.4512,-2.419,-2.419,-2.419,-2.4151,-2.3958,-2.3795,-2.3649,0.0,-2.33,-2.3141,0.0,0.0,0.0,0.0,0.0,0.0,0.0,0.0,0.0,0.0,-2.1259,0.0,-2.0094,-2.072,-2.1498,-2.2243,-2.231,0.0,0.0,0.0,-2.231,-2.231,-2.2615,-2.2632,-2.231,-2.2936,-2.3663,-2.4506,-2.4408,-2.5186,-2.6674,-2.6268,-2.6302,-2.6691,-2.6691,-2.6691,-2.6691,-2.6691,-2.6691,-2.6691,-2.6691,-2.6691,-2.6691,-2.6691,-2.7182,-2.7789,0.0,0.0,0.0,0.0,0.0,0.0,0.0,-2.6832,0.0,-2.6621,0.0,-2.6274,-2.5399,-2.5303,-2.5303,-2.5303,0.0,-2.5303,-2.5303,-2.5303,-2.5303,-2.5264,-2.5293,-2.5303,-2.5264,-2.5293,0.0,0.0,0.0,0.0,0.0,0.0,0.0,0.0,0.0,0.0,0.0,-2.3293,-2.262,-2.2562,-2.1793,-2.1504,-2.1504,-2.1504,-2.1427,-2.1273,-2.0677,-2.1947,-2.3918,-2.3802,-2.437,-2.5024,-2.4322,-2.4639,-2.5284,-2.5168,-2.4972,-2.4785,-2.4657,-2.4418,-2.419,-2.419,-2.419,-2.419,-2.419,-2.3958,-2.3774,-2.3774,-2.3544,-2.3323,-2.3259,0.0,0.0,0.0,0.0,0.0,0.0,0.0,0.0,0.0,0.0,0.0,-2.0518,-2.0865,-2.1465,-2.2124,0.0,0.0,0.0,0.0,-2.231,-2.231,-2.2919,-2.2987,-2.2462,-2.3613,-2.434,-2.4644,-2.5203,-2.5896,-2.6691,-2.6691,-2.6691,-2.6691,-2.6691,-2.6691,-2.6691,-2.6691,-2.6691,-2.6691,-2.6691,-2.6691,-2.6691,-2.6691,-2.7182,-2.7789,0.0,0.0,0.0,0.0,0.0,-2.7063,-2.8448,-2.8102,-2.7409,-2.6697,-2.6601,-2.6274,-2.5399,-2.5303,-2.5303,-2.5303,-2.5303,0.0,0.0,0.0,0.0,-2.5046,-2.5214,-2.5224,-2.5065,-2.5214,-2.5303,0.0,-2.5303,-2.5303,-2.5303,0.0,0.0,0.0,0.0,0.0,-2.3178,-2.2158,0.0,-2.1716,-2.1562,-2.1504,-2.1504,-2.1504,-2.11,-2.0581,-2.11,-2.2043,-2.2908,-2.2197,-2.3004,-2.4302,-2.4149,-2.4639,-2.5168,-2.4505,-2.4534,-2.4639,-2.3927,-2.3957,-2.419,-2.419,-2.419,-2.419,-2.419,-2.4151,-2.4113,-2.4113,-2.4074,-2.3937,-2.3671,-2.3285,0.0,0.0,0.0,0.0,0.0,0.0,0.0,0.0,0.0,-2.2891,0.0,-2.16,-2.1254,0.0,0.0,0.0,0.0,0.0,-2.231,0.0,-2.2446,-2.2733,0.0,0.0,-2.3613,-2.5406,-2.4915,-2.5389,-2.6691,-2.6691,-2.6691,-2.6691,-2.6691,-2.6691,-2.6691,-2.6691,-2.6691,-2.6691,-2.6691,-2.6691,-2.6691,-2.6691,-2.7182,-2.7789,0.0,0.0,0.0,0.0,0.0,0.0,0.0,-2.8775,0.0,-2.7371,-2.6486,-2.5774,-2.5341,-2.5303,-2.5303,-2.5303,-2.5303,-2.5303,-2.5303,-2.5303,-2.5214,-2.501,-2.5088,0.0,-2.501,-2.5099,-2.5203,-2.5303,-2.5303,-2.5303,-2.5303,0.0,0.0,0.0,0.0,-2.4841,0.0,0.0,0.0,-2.3428,-2.3024,-2.2851,-2.2851,-2.2851,-2.2043,-2.0966,-2.137,-2.2062,-2.2735,-2.2312,-2.3024,-2.411,-2.411,-2.4639,-2.5207,-2.4832,-2.4762,-2.471,-2.4299,-2.4197,-2.419,-2.419,-2.419,-2.419,-2.419,-2.419,-2.419,-2.419,-2.419,-2.4151,-2.3996,-2.3692,0.0,0.0,0.0,0.0,0.0,0.0,0.0,0.0,0.0,0.0,0.0,0.0,0.0,0.0,0.0,0.0,0.0,0.0,-2.231,0.0,0.0,0.0,-2.2835,0.0,-2.3968,-2.5033,-2.505,-2.5642,-2.6691,-2.6691,-2.6691,-2.6691,-2.6691,-2.6691,-2.6691,-2.6691,-2.6691,-2.6691,-2.6691,-2.6691,-2.6691,-2.6691,-2.6911,-2.7232,0.0,-2.7351,0.0,0.0,-2.8159,0.0,-2.8986,-2.9102,-2.8813,-2.8005,-2.6544,-2.5514,-2.5322,-2.5303,-2.5303,-2.5303,-2.5303,-2.5303,-2.5303,-2.5303,-2.5214,-2.501,-2.5034,-2.5034,-2.501,-2.5034,-2.5152,0.0,-2.5303,-2.5303,-2.5303,-2.5303,0.0,0.0,0.0,0.0,0.0,0.0,-2.4466,-2.4986,-2.436,-2.411,-2.411,-2.411,-2.3129,-2.1754,-2.1562,-2.1947,-2.2524,-2.2524,-2.3225,-2.411,-2.411,-2.4524,-2.5043,-2.5043,-2.4958,-2.479,-2.4577,-2.4414,-2.4247,-2.4209,-2.419,-2.419,-2.419,-2.419,-2.419,-2.419,-2.4228,-2.4247,-2.4247,-2.4078,-2.3923,0.0,0.0,0.0,0.0,0.0,0.0,0.0,0.0,0.0,-2.2531,0.0,0.0,0.0,0.0,0.0,-2.2293,0.0,0.0,0.0,0.0,-2.297,-2.2547,0.0,-2.4408,-2.4729,-2.5321,-2.5998,-2.6691,-2.6691,-2.6691,-2.6691,-2.6691,-2.6691,-2.6691,-2.6691,-2.6691,-2.6691,-2.6691,-2.6691,-2.6691,-2.6691,-2.6691,-2.6691,0.0,0.0,0.0,0.0,0.0,0.0,-2.9083,-2.9102,-2.8813,-2.8005,-2.7063,-2.6178,-2.538,-2.5303,-2.5303,-2.5303,-2.5303,-2.5303,-2.5303,-2.5303,-2.5214,-2.501,-2.5173,-2.5192,-2.4991,-2.5173,-2.5274,0.0,-2.5303,-2.5303,-2.5303,-2.5303,0.0,0.0,0.0,0.0,-2.4206,-2.4129,-2.4149,-2.4206,-2.4129,-2.411,-2.411,-2.411,-2.3514,-2.2562,-2.1773,-2.1543,-2.162,-2.162,-2.2735,-2.411,-2.411,-2.4149,-2.4206,-2.4206,-2.4577,-2.4778,-2.3874,-2.4027,-2.4445,-2.4247,-2.419,-2.419,-2.419,-2.419,-2.419,-2.419,-2.4358,-2.4478,-2.4478,-2.4607,-2.4636,0.0,0.0,0.0,0.0,0.0,-2.4151,0.0,0.0,0.0,0.0,-2.3502,0.0,0.0,-2.1996,0.0,0.0,0.0,0.0,-2.231,-2.2378,-2.2699,-2.3291,-2.3427,-2.4171,-2.5507,-2.5575,-2.5998,-2.6691,-2.6691,-2.6691,-2.6691,-2.6691,-2.6691,-2.6691,-2.6691,-2.6691,-2.6691,-2.6691,-2.6691,-2.6691,-2.6691,-2.6691,-2.6691,0.0,0.0,0.0,0.0,0.0,0.0,0.0,-2.8679,-2.8082,-2.7236,-2.6813,-2.6274,-2.5399,-2.5303,-2.5303,-2.5303,-2.5303,-2.5303,-2.5303,-2.5303,-2.5214,-2.501,-2.5088,-2.5088,-2.501,-2.5088,-2.5173,0.0,0.0,-2.5303,-2.5303,-2.5303,-2.5303,-2.5303,-2.5303,-2.512,-2.4812,-2.4812,-2.4812,-2.4812,-2.4812,-2.4812,-2.4812,-2.4812,-2.4293,-2.3475,-2.2581,-2.2274,-2.2274,-2.2274,-2.2389,-2.2716,-2.3764,-2.411,-2.4187,-2.4678,-2.4913,-2.4898,-2.4412,-2.4467,-2.4591,-2.4284,-2.4284,-2.4339,-2.4228,-2.4284,-2.4358,-2.4228,-2.4357,-2.4545,-2.4654,-2.4746,-2.4775,-2.47,0.0,0.0,0.0,0.0,0.0,0.0,0.0,0.0,0.0,0.0,0.0,0.0,0.0,0.0,0.0,0.0,0.0,-2.231,0.0,-2.2446,-2.275,-2.275,-2.3257,-2.4272,-2.4729,-2.5321,-2.6048,-2.6488,-2.6691,-2.6691,-2.6691,-2.6691,-2.6691,-2.6691,-2.6841,-2.7051,-2.7051,-2.721,-2.7409,-2.7409,-2.7272,-2.712,-3.034,0.0,-2.9371,0.0,-2.9429,-2.8736,-2.9044,-2.8621,-2.7822,-2.6664,-2.6499,-2.6173,-2.531,-2.5171,-2.5171,-2.5214,-2.5214,-2.5243,-2.5303,-2.5303,-2.5243,-2.5099,-2.5088,0.0,-2.5088,-2.5088,-2.5163,-2.5303,-2.5303,-2.5303,-2.5303,-2.5303,-2.5303,-2.5303,-2.5303,-2.5303,-2.5303,-2.5303,-2.5303,-2.5303,-2.5303,-2.5303,-2.5303,-2.5303,-2.4947,-2.4332,-2.3494,-2.3186,-2.3148,-2.2889,-2.2389,-2.2177,-2.3908,-2.4302,-2.4264,-2.5063,-2.5203,-2.5053,-2.4891,-2.4869,-2.4785,-2.4461,-2.4478,-2.4561,-2.441,-2.4495,-2.4561,-2.441,-2.4526,-2.4678,-2.4842,-2.491,-2.4923,-2.4869,0.0,0.0,0.0,-2.4375,0.0,0.0,-2.419,-2.419,-2.419,-2.3996,0.0,0.0,0.0,0.0,0.0,0.0,0.0,0.0,0.0,0.0,-2.2426,-2.2664,-2.3039,-2.3568,-2.4181,-2.4881,-2.5642,-2.6353,-2.6691,-2.6691,-2.6691,-2.6758,-2.6873,-2.6873,-2.7115,-2.7487,-2.7487,-2.7648,-2.7897,-2.7783,-2.753,-2.7373,-3.0237,-2.9698,-2.9371,-3.0256,-3.0379,-3.0083,-2.9217,-2.9083,-2.8422,-2.6562,-2.6308,-2.5964,-2.5106,-2.4896,-2.4869,-2.4998,-2.4991,-2.5088,-2.5303,-2.5303,-2.5303,0.0,0.0,-2.5303,-2.5303,-2.5303,-2.5303,-2.5303,0.0,0.0,-2.5303,-2.5303,-2.5303,-2.5303,-2.5303,-2.5303,-2.5303,-2.5303,-2.5303,-2.5303,-2.5303,-2.5303,-2.5303,-2.5303,-2.5284,-2.5168,-2.4379,-2.4072,-2.3956,-2.309,-2.2793,-2.3081,-2.4755,-2.4736,-2.4264,-2.5063,-2.5303,-2.5253,-2.5046,-2.501,-2.4962,-2.4828,-2.479,-2.4804,-2.479,-2.479,-2.4804,-2.479,-2.4904,-2.4979,-2.4998,-2.5163,-2.5224,-2.5022,-2.4998,0.0,0.0,-2.4495,0.0,-2.4228,-2.419,-2.419,-2.419,-2.4208,0.0,0.0,0.0,0.0,0.0,0.0,0.0,-2.2695,-2.2695,0.0,-2.2695,-2.3465,-2.3898,-2.3898,-2.43,-2.4881,-2.5642,-2.6353,-2.6691,-2.6691,-2.6691,-2.6939,-2.7286,-2.7286,-2.753,-2.7897,-2.7897,-2.7897,-2.784,-2.7439,-2.7286,-2.7224,-3.034,-2.9698,-2.9179,-2.9467,-2.8563,-2.7717,-2.7448,-2.689,-2.6241,-2.55,-2.5329,-2.513,-2.47,-2.4741,-2.4832,0.0,-2.485,-2.493,0.0,-2.5099,-2.5152,-2.5284,-2.5303,-2.5303,-2.5303,-2.5303,-2.5303,-2.5303,0.0,-2.5303,-2.5303,-2.5303,-2.5303,-2.5303,-2.5303,-2.5303,-2.5303,-2.5303,-2.5303,-2.5303,-2.5303,-2.5303,-2.5303,-2.5303,-2.5303,-2.5187,-2.4399,-2.411,-2.4052,-2.3783,-2.3687,-2.3879,-2.4966,-2.4755,-2.4264,-2.5063,-2.5303,-2.5264,-2.5046,-2.5099,-2.513,-2.4874,-2.4883,-2.4917,-2.4814,-2.4804,-2.4855,-2.5091,-2.5065,-2.5034,-2.5173,-2.5264,-2.5274,-2.5214,-2.5088,0.0,-2.4858,0.0,-2.4623,-2.4445,-2.4528,-2.4561,-2.4428,-2.441,0.0,0.0,0.0,0.0,0.0,0.0,0.0,0.0,-2.3045,0.0,-2.3045,-2.3084,-2.318,-2.3425,-2.3659,-2.4391,-2.5625,-2.6085,-2.6429,-2.6691,-2.6691,-2.6774,-2.6839,-2.6328,-2.665,-2.7465,-2.7229,-2.7465,-2.7926,-2.8002,-2.7747,-2.7272,-3.034,-2.9698,-2.9198,-2.9525,-2.8448,-2.7544,-2.7544,-2.6544,-2.5723,-2.55,-2.5086,-2.4731,-2.4528,-2.4526,0.0,-2.479,-2.4804,-2.4883,-2.5099,-2.5111,-2.5163,-2.5284,-2.5303,-2.5303,-2.5303,-2.5303,-2.5303,-2.5303,-2.5303,-2.5303,-2.5303,-2.5303,-2.5303,-2.5303,-2.5303,-2.5303,-2.5303,-2.5303,-2.5303,-2.5303,-2.5303,-2.5303,-2.5303,-2.5303,-2.5303,-2.5226,-2.4736,-2.4562,-2.4582,-2.4562,-2.4582,-2.4697,-2.5159,-2.4966,-2.4678,-2.5159,-2.5303,-2.5274,-2.5152,-2.5203,-2.5243,-2.5043,-2.5061,-2.5088,-2.5,-2.4994,-2.5056,-2.5253,-2.5203,-2.5152,-2.5274,-2.5303,-2.5303,-2.5303,-2.5184,-2.5088,-2.501,0.0,-2.4814,0.0,0.0,-2.4746,-2.4623,-2.4607,-2.4607,0.0,0.0,0.0,0.0,0.0,-2.3392,-2.3392,-2.3392,-2.3392,-2.3392,-2.3165,-2.3165,-2.3392,-2.392,-2.4821,-2.6074,-2.6561,-2.6914,-2.7147,-2.7147,-2.7147,-2.7078,-2.6454,-2.6784,-2.7677,-2.7316,-2.7625,-2.8308,-2.8237,-2.7918,-2.747,-3.0237,-2.9698,-2.9352,-3.0179,-2.9544,-2.8929,-2.8929,-2.7601,-2.6529,-2.632,-2.5498,-2.4821,-2.462,-2.4394,-2.441,-2.479,0.0,0.0,-2.5243,-2.5283,-2.5264,-2.5274,-2.5284,-2.5303,-2.5303,-2.5303,-2.5303,-2.5303,-2.5303,-2.5303,-2.5303,-2.5303,-2.5303,-2.5303,-2.5303,-2.5303,-2.5303,-2.5303,-2.5303,-2.5303,-2.5303,-2.5303,-2.5303,-2.5303,-2.5303,-2.5303,-2.5303,-2.5341,-2.5409,-2.5322,-2.5399,-2.5486,-2.5341,-2.5341,-2.539,-2.5322,-2.5303,-2.5303,-2.5303,-2.5303,-2.5303,-2.5303,-2.5303,-2.5303,-2.5303,-2.5303,-2.5303,-2.5303,-2.5303,-2.5303,-2.5303,-2.5303,-2.5303,-2.5303,-2.5303,-2.5224,-2.5046,-2.5022,-2.4962,-2.4828,0.0,-2.4832,-2.4818,-2.4799,-2.4799,0.0,0.0,0.0,0.0,0.0,-2.3756,-2.3756,-2.3735,-2.3735,-2.3735,-2.3714,-2.3728,-2.3761,-2.4973,-2.6003,-2.6809,-2.7518,-2.7872,-2.7897,-2.7897,-2.7897,-2.7855,-2.7305,-2.7558,-2.8232,-2.783,-2.8164,-2.8785,-2.8156,-2.7897,-2.7754,0.0,0.0,-2.9159,-2.9371,-2.8179,-2.7198,-2.7198,-2.6851,-2.6529,-2.632,-2.6098,-2.5872,-2.5665,-2.5042,-2.4741,-2.4937,-2.4588,-2.4512,-2.4883,-2.4929,-2.4962,-2.5077,-2.5214,-2.5303,-2.5303,-2.5303,-2.5303,-2.5303,-2.5303,-2.5303,-2.5303,-2.5303,-2.5303,-2.5303,-2.5303,-2.5303,-2.5303,-2.5303,-2.5303,-2.5303,-2.5303,-2.5303,-2.5303,-2.5303,-2.5322,-2.539,-2.539,-2.5428,-2.5467,-2.5406,-2.5432,-2.5486,-2.5341,-2.5341,-2.539,-2.5322,-2.5303,-2.5303,-2.5303,-2.5303,-2.5303,-2.5303,-2.5303,-2.5303,-2.5303,-2.5303,-2.5303,-2.5303,-2.5303,-2.5303,-2.5303,-2.5303,-2.5303,-2.5303,-2.5303,-2.5274,-2.5243,-2.5224,-2.5152,0.0,-2.5084,-2.5107,-2.4962,-2.4949,-2.4949,0.0,0.0,-2.4746,-2.4804,-2.4491,-2.432,-2.432,-2.4154,-2.4074,-2.4074,-2.3816,-2.3871,-2.4254,-2.5674,-2.6507,-2.6819,-2.7199,-2.7558,-2.7897,-2.7897,-2.7897,-2.7791,-2.6437,-2.6375,-2.7077,-2.6652,-2.6826,-2.7344,-2.8022,-2.7918,-2.7409,-3.0398,-3.0025,-2.9698,-2.9698,-2.8602,-2.7736,-2.7736,-2.7428,-2.7157,-2.706,-2.695,-2.6854,-2.674,-2.5901,-2.5404,-2.5577,-2.4974,-2.4693,-2.5,-2.5031,-2.5061,-2.5122,-2.5234,-2.5303,-2.5303,-2.5303,-2.5303,-2.5303,-2.5303,-2.5303,-2.5303,-2.5303,-2.5303,-2.5303,-2.5303,-2.5303,-2.5303,-2.5303,-2.5303,-2.5303,-2.5303,-2.5322,-2.5341,-2.5341,-2.539,-2.5438,-2.5456,-2.5481,-2.5534,-2.546,-2.5507,-2.5563,-2.5437,-2.5443,-2.5466,-2.537,-2.5322,-2.5303,-2.5303,-2.5303,-2.5303,-2.5303,-2.5303,-2.5303,-2.5303,-2.5303,-2.5303,-2.5303,-2.5303,-2.5303,-2.5303,-2.5303,-2.5303,-2.5303,-2.5303,-2.5303,-2.5303,-2.5303,-2.5264,-2.5152,-2.5224,-2.5264,-2.5152,-2.5141,-2.5141,-2.5141,-2.4981,0.0,-2.5012,-2.4771,-2.4591,-2.4512,-2.4303,-2.419,-2.419,-2.4381,-2.4962,-2.5948,-2.6775,-2.7369,-2.7799,-2.7955,-2.8166,-2.8404,-2.8404,-2.8308,-2.804,-2.6986,-2.6925,-2.7433,-2.7019,-2.7242,-2.7785,-2.8232,-2.8139,-2.7776,-3.0398,-3.0398,-3.0398,-3.0398,-2.9679,-2.9102,-2.9102,-2.8525,-2.8082,-2.8082,-2.7922,-2.7829,-2.7829,-2.6915,-2.636,-2.6543,-2.5753,-2.5252,-2.5253,-2.5264,-2.5264,-2.5264,-2.5274,-2.5303,-2.5303,-2.5303,-2.5303,-2.5303,-2.5303,-2.5303,-2.5303,-2.5303,-2.5303,-2.5303,-2.5303,-2.5303,-2.5303,-2.5303,-2.5303,-2.5303,-2.5303,-2.5341,-2.5409,-2.5409,-2.5447,-2.5515,-2.5525,-2.5557,-2.5608,-2.5542,-2.5595,-2.5685,-2.554,-2.5556,-2.5572,-2.5456,-2.538,-2.5322,-2.5303,-2.5303,-2.5303,-2.5303,-2.5303,-2.5303,-2.5303,-2.5303,-2.5303,-2.5303,-2.5303,-2.5303,-2.5303,-2.5303,-2.5303,-2.5303,-2.5303,-2.5303,-2.5303,-2.5303,-2.5303,-2.5303,-2.5303,-2.5303,-2.5303,-2.5303,-2.5303,-2.5303,-2.5152,-2.5111,-2.5284,-2.5,-2.4741,-2.4591,-2.4357,-2.4228,-2.419,-2.5017,-2.6156,-2.7622,-2.7732,-2.8227,-2.8994,-2.8994,-2.8994,-2.8994,-2.8994,-2.8815,-2.8442,-2.7986,-2.7994,-2.8268,-2.7785,-2.8117,-2.8769,-2.8451,-2.8337,-2.835,-3.0398,-3.0398,-3.0398,-3.0398,-2.9679,-2.9102,-2.9102,-2.8986,-2.8909,-2.8909,-2.8898,-2.8868,-2.8868,-2.8115,-2.7624,-2.7646,-2.6839,-2.597,-2.5103,-2.5046,-2.5046,-2.5046,-2.5214,-2.5303,-2.5303,-2.5303,-2.5303,-2.5303,-2.5303,-2.5303,-2.5303,-2.5303,-2.5303,-2.5303,-2.5303,-2.5303,-2.5303,-2.5303,-2.5303,-2.5303,-2.5303,-2.5341,-2.5409,-2.5409,-2.5486,-2.5592,-2.5572,-2.5626,-2.5675,-2.5602,-2.564,-2.5687,-2.5535,-2.5556,-2.5591,-2.5512,-2.5488,-2.5447,-2.5322,-2.5303,-2.5303,-2.5303,-2.5303,-2.5303,-2.5303,-2.5303,-2.5303,-2.5303,-2.5303,-2.5303,-2.5303,-2.5303,-2.5303,-2.5303,-2.5303,-2.5303,-2.5303,-2.5303,-2.5303,-2.5303,-2.5303,-2.5303,-2.5303,-2.5303,-2.5303,-2.5303,-2.5274,-2.5264,-2.5303,-2.5088,-2.4962,-2.4917,-2.462,-2.4375,-2.419,-2.5017,-2.586,-2.6796,-2.7475,-2.8227,-2.8994,-2.8994,-2.8994,-2.8994,-2.8994,-2.8952,-2.8855,-2.8113,-2.7838,-2.7812,-2.7086,-2.7273,-2.7989,-2.7926,-2.81,-2.826,-3.0398,-3.0398,-3.0398,-3.0398,-3.0083,-2.9794,-2.9794,-2.9794,-2.9794,-2.9794,-2.9794,-2.9794,-2.9794,-2.9044,-2.8371,-2.7928,-2.7101,-2.6186,-2.522,-2.5163,-2.5163,-2.5163,-2.5253,-2.5303,-2.5303,-2.5303,-2.5303,-2.5303,-2.5303,-2.5303,-2.5303,-2.5303,-2.5303,-2.5303,-2.5303,-2.5303,-2.5303,-2.5341,-2.5341,-2.537,-2.539,-2.5447,-2.5505,-2.5505,-2.5565,-2.5658,-2.5658,-2.5676,-2.5703,-2.5664,-2.5664,-2.5683,-2.5633,-2.5619,-2.5633,-2.5573,-2.5539,-2.5486,-2.539,-2.5341,-2.5341,-2.5303,-2.5303,-2.5303,-2.5303,-2.5303,-2.5303,-2.5303,-2.5303,-2.5303,-2.5303,-2.5303,-2.5303,-2.5303,-2.5303,-2.5303,-2.5303,-2.5303,-2.5303,-2.5303,-2.5303,-2.5303,-2.5303,-2.5303,-2.5303,-2.5303,-2.5303,-2.5303,-2.5303,-2.5214,-2.5111,-2.4991,-2.4663,-2.4667,-2.5005,-2.5801,-2.6674,-2.7587,-2.8305,-2.8873,-2.9203,-2.9085,-2.8994,-2.8994,-2.8994,-2.8994,-2.8957,-2.8613,-2.8448,-2.8411,-2.8044,-2.8136,-2.8448,-2.8448,-2.8576,-2.8646,-3.0398,-3.0355,-3.0323,-3.0398,-3.0398,-3.0398,-3.0398,-3.0398,-3.0398,-3.0398,-3.0398,-3.0398,-3.0398,-2.9621,-2.8852,-2.8217,-2.7217,-2.6332,-2.5649,-2.5399,-2.5303,-2.5303,-2.5303,-2.5303,-2.5303,-2.5303,-2.5303,-2.5303,-2.5303,-2.5303,-2.5303,-2.5303,-2.5303,-2.5303,-2.5303,-2.5303,-2.5322,-2.539,-2.5399,-2.5434,-2.5473,-2.5542,-2.5601,-2.5601,-2.5646,-2.5703,-2.5703,-2.5703,-2.5703,-2.5703,-2.5703,-2.5703,-2.5703,-2.5691,-2.5691,-2.5635,-2.5592,-2.553,-2.5453,-2.5408,-2.5409,-2.537,-2.5322,-2.5322,-2.5322,-2.5303,-2.5303,-2.5303,-2.5303,-2.5303,-2.5303,-2.5303,-2.5303,-2.5303,-2.5303,-2.5303,-2.5303,-2.5303,-2.5303,-2.5303,-2.5303,-2.5303,-2.5303,-2.5303,-2.5303,-2.5303,-2.5303,-2.5303,-2.5303,-2.5303,-2.5214,-2.501,-2.4723,-2.4877,-2.5478,-2.611,-2.6983,-2.8131,-2.8652,-2.9061,-2.9392,-2.92,-2.9044,-2.8994,-2.8994,-2.8994,-2.8994,-2.8994,-2.8906,-2.8705,-2.8517,-2.8576,-2.8705,-2.8521,-2.8663,-2.8957,-3.0355,-3.0196,-3.0122,-3.0355,-3.0398,-3.0398,-3.0398,-3.0398,-3.0398,-3.0398,-3.0398,-3.0398,-3.0398,-2.9621,-2.9083,-2.9006,-2.7525,-2.6563,-2.6505,-2.5755,-2.5303,-2.5303,-2.5303,-2.5303,-2.5303,-2.5303,-2.5303,-2.5303,-2.5303,-2.5303,-2.5303,-2.5303,-2.5303,-2.5303,-2.5303,-2.5322,-2.539,-2.5409,-2.5437,-2.5498,-2.5498,-2.5536,-2.5601,-2.5601,-2.5646,-2.5703,-2.5703,-2.5703,-2.5703,-2.5703,-2.5703,-2.5703,-2.5703,-2.5703,-2.5703,-2.5682,-2.569,-2.5654,-2.5537,-2.5495,-2.5486,-2.5486,-2.5447,-2.539,-2.539,-2.5341,-2.5303,-2.5303,-2.5303,-2.5303,-2.5303,-2.5303,-2.5303,-2.5303,-2.5303,-2.5303,-2.5303,-2.5303,-2.5303,-2.5303,-2.5303,-2.5303,-2.5303,-2.5303,-2.5303,-2.5303,-2.5303,-2.5303,-2.5303,-2.5303,-2.5214,-2.501,-2.4869,-2.4813,-2.4869,-2.4926,-2.5737,-2.7299,-2.7339,-2.8069,-2.9412,-2.9392,-2.9225,-2.8994,-2.8994,-2.8994,-2.8994,-2.8994,-2.8576,-2.7805,-2.7071,-2.7236,-2.7805,-2.7053,-2.7732,-2.8842,-3.0136,-3.0075,-3.0089,-3.0355,-3.0398,-3.0398,-3.0398,-3.0398,-3.0398,-3.0398,-2.9929,-2.9583,-2.9583,-2.8852,-2.814,-2.7601,-2.6967,-2.637,-2.5832,-2.5476,-2.5303,-2.5303,-2.5303,-2.5303,-2.5303,-2.5303,-2.5303,-2.5303,-2.5303,-2.5322,-2.537,-2.537,-2.539,-2.5428,-2.5428,-2.5447,-2.5466,-2.5505,-2.5542,-2.5565,-2.5616,-2.5637,-2.5668,-2.5668,-2.5683,-2.5703,-2.5703,-2.5703,-2.5703,-2.5703,-2.5703,-2.5703,-2.5703,-2.5703,-2.5703,-2.5703,-2.57,-2.5689,-2.5631,-2.5593,-2.555,-2.5505,-2.5479,-2.5444,-2.5399,-2.539,-2.5341,-2.5303,-2.5303,-2.5303,-2.5303,-2.5303,-2.5303,-2.5303,-2.5303,-2.5303,-2.5303,-2.5303,-2.5303,-2.5303,-2.5303,-2.5303,-2.5303,-2.5303,-2.5303,-2.5303,-2.5303,-2.5303,-2.5303,-2.5303,-2.5264,-2.5192,-2.5138,-2.5049,-2.493,-2.6007,-2.6631,-2.6842,-2.7766,-2.8134,-2.8069,-2.8969,-2.8968,-2.8282,-2.8796,-2.8994,-2.8994,-2.8994,-2.8833,-2.8521,-2.8227,-2.8282,-2.8521,-2.8187,-2.8484,-2.8938,-2.9984,-2.9954,-3.0018,-3.0343,-3.0398,-3.0302,-3.0025,-3.0217,-3.0302,-3.0025,-2.9717,-2.939,-2.9121,-2.8371,-2.7544,-2.6678,-2.6351,-2.5947,-2.5341,-2.5303,-2.5303,-2.5303,-2.5303,-2.5303,-2.5303,-2.5303,-2.5303,-2.5303,-2.5322,-2.5341,-2.5409,-2.5425,-2.5459,-2.5506,-2.5506,-2.5502,-2.5524,-2.5582,-2.5616,-2.5635,-2.5689,-2.5703,-2.5703,-2.5703,-2.5703,-2.5703,-2.5681,-2.5672,-2.5703,-2.5684,-2.5684,-2.5703,-2.5703,-2.5703,-2.5703,-2.5703,-2.5703,-2.5703,-2.5703,-2.5664,-2.5624,-2.5576,-2.5539,-2.5488,-2.5441,-2.5407,-2.537,-2.5303,-2.5303,-2.5303,-2.5303,-2.5303,-2.5303,-2.5322,-2.5322,-2.5322,-2.5322,-2.5322,-2.5322,-2.5303,-2.5322,-2.5322,-2.5322,-2.5322,-2.5322,-2.5322,-2.5303,-2.5303,-2.5322,-2.5322,-2.5322,-2.5322,-2.5601,-2.5522,-2.5099,-2.6285,-2.6772,-2.6621,-2.7623,-2.7826,-2.732,-2.8276,-2.8404,-2.7935,-2.8397,-2.8631,-2.8631,-2.8631,-2.8338,-2.7897,-2.8154,-2.8242,-2.8278,-2.8539,-2.8796,-2.8957,-2.9905,-2.9829,-2.9848,-3.0311,-3.0379,-3.0102,-2.9217,-2.9833,-3.0083,-2.9198,-2.9852,-3.0044,-2.9179,-2.8371,-2.7544,-2.6678,-2.5813,-2.5303,-2.5303,-2.5303,-2.5303,-2.5303,-2.5303,-2.5303,-2.5303,-2.5303,-2.5303,-2.5303,-2.537,-2.5409,-2.5399,-2.548,-2.5489,-2.5493,-2.5493,-2.5544,-2.5611,-2.5611,-2.5634,-2.5703,-2.5703,-2.5703,-2.5703,-2.5703,-2.5703,-2.5681,-2.5619,-2.5632,-2.5683,-2.5625,-2.5644,-2.5703,-2.5703,-2.5703,-2.5703,-2.5703,-2.5703,-2.5703,-2.5703,-2.5703,-2.5703,-2.5703,-2.5601,-2.5493,-2.5508,-2.5398,-2.5303,-2.5303,-2.5303,-2.5303,-2.5303,-2.5303,-2.5322,-2.539,-2.5409,-2.5409,-2.5409,-2.5409,-2.539,-2.5303,-2.537,-2.5409,-2.5409,-2.5409,-2.5409,-2.5409,-2.5341,-2.5322,-2.5409,-2.5409,-2.5409,-2.5409,-2.6237,-2.6237,-2.5303,-2.5303,-2.5755,-2.6582,-2.6601,-2.6918,-2.747,-2.7297,-2.7524,-2.8068,-2.7899,-2.7787,-2.7787,-2.7787,-2.6833,-2.5495,-2.63,-2.6612,-2.6704,-2.7493,-2.8301,-2.8865,-2.8763,-2.921,-2.942,-2.858,-2.9512,-2.9929,-2.8486,-2.8948,-2.939,-2.9121,-2.8832,-2.8544,-2.8294,-2.7505,-2.664,-2.5774,-2.5437,-2.5303,-2.5303,-2.5303,-2.5303,-2.5303,-2.5303,-2.5303,-2.5303,-2.5303,-2.5303,-2.5303,-2.537,-2.5415,-2.546,-2.5538,-2.5601,-2.5636,-2.5636,-2.5648,-2.5668,-2.5668,-2.567,-2.5703,-2.5703,-2.5703,-2.5703,-2.5703,-2.5703,-2.5703,-2.5683,-2.5654,-2.5628,-2.5654,-2.5644,-2.5644,-2.5684,-2.5703,-2.5703,-2.5703,-2.5703,-2.5703,-2.5703,-2.5703,-2.5703,-2.5703,-2.5662,-2.5634,-2.5587,-2.5504,-2.5428,-2.539,-2.5322,-2.5303,-2.537,-2.537,-2.539,-2.5466,-2.5472,-2.5447,-2.5418,-2.5397,-2.539,-2.5303,-2.5322,-2.5322,-2.5322,-2.5322,-2.5322,-2.5322,-2.5341,-2.5409,-2.5466,-2.5468,-2.546,-2.546,-2.5713,-2.5707,-2.537,-2.6544,-2.664,-2.5687,-2.6928,-2.6891,-2.578,-2.6896,-2.7053,-2.6433,-2.6951,-2.7091,-2.6961,-2.6961,-2.6686,-2.6319,-2.7126,-2.7108,-2.6704,-2.7493,-2.7585,-2.7291,-2.8703,-2.8932,-2.895,-2.8193,-2.8816,-2.8948,-2.7582,-2.8082,-2.8506,-2.8159,-2.7986,-2.7775,-2.7409,-2.6928,-2.6255,-2.538,-2.5303,-2.5303,-2.5303,-2.5303,-2.5303,-2.5303,-2.5303,-2.5303,-2.5303,-2.5303,-2.5303,-2.5341,-2.5409,-2.5464,-2.5538,-2.5602,-2.5664,-2.5703,-2.5703,-2.5703,-2.5703,-2.5703,-2.5703,-2.5703,-2.5703,-2.5703,-2.5703,-2.5668,-2.566,-2.566,-2.5621,-2.5609,-2.561,-2.5648,-2.5644,-2.5644,-2.5684,-2.5703,-2.5703,-2.5703,-2.5703,-2.5703,-2.5703,-2.5703,-2.5703,-2.5703,-2.5684,-2.5659,-2.562,-2.5543,-2.5487,-2.5447,-2.5678,-2.5803,-2.5505,-2.5723,-2.5854,-2.5582,-2.5534,-2.5531,-2.5472,-2.5483,-2.5447,-2.539,-2.5409,-2.5428,-2.5428,-2.539,-2.537,-2.5341,-2.5404,-2.547,-2.5534,-2.555,-2.5535,-2.5548,-2.5534,-2.5677,-2.5944,-2.7287,-2.7257,-2.5832,-2.689,-2.6771,-2.5646,-2.6244,-2.6294,-2.5906,-2.6367,-2.6469,-2.6358,-2.6358,-2.6134,-2.5834,-2.6665,-2.6622,-2.6229,-2.7103,-2.7145,-2.6685,-2.9198,-2.8746,-2.8348,-2.8527,-2.8178,-2.7563,-2.66,-2.7196,-2.7465,-2.6677,-2.7253,-2.7456,-2.6678,-2.6601,-2.6255,-2.538,-2.5303,-2.5303,-2.5303,-2.5303,-2.5303,-2.5303,-2.5303,-2.5303,-2.5303,-2.5303,-2.5322,-2.539,-2.5467,-2.5524,-2.5591,-2.5668,-2.5703,-2.5703,-2.5703,-2.5703,-2.5703,-2.5703,-2.5703,-2.5703,-2.5703,-2.5703,-2.5681,-2.5619,-2.5601,-2.5601,-2.5524,-2.5544,-2.5601,-2.5601,-2.5634,-2.5703,-2.5703,-2.5703,-2.5703,-2.5703,-2.5703,-2.5703,-2.5703,-2.5703,-2.5703,-2.5703,-2.5644,-2.5605,-2.5605,-2.5564,-2.5512,-2.5517,-2.6207,-2.6545,-2.5669,-2.6214,-2.6553,-2.5741,-2.5609,-2.5608,-2.5602,-2.5595,-2.5581,-2.5505,-2.5562,-2.5601,-2.5601,-2.5534,-2.5486,-2.5428,-2.5466,-2.5538,-2.5599,-2.5667,-2.5686,-2.5605,-2.5685,-2.6037,-2.6685,-2.7563,-2.7518,-2.6621,-2.6697,-2.664,-2.6437,-2.5474,-2.5418,-2.6104,-2.5958,-2.5906,-2.5891,-2.5891,-2.5346,-2.4603,-2.5425,-2.5579,-2.5463,-2.6451,-2.6767,-2.6636,-2.8132,-2.7774,-2.728,-2.6722,-2.7319,-2.7319,-2.5616,-2.609,-2.6586,-2.6395,-2.6529,-2.6634,-2.661,-2.6601,-2.6255,-2.538,-2.5303,-2.5303,-2.5303,-2.5303,-2.5303,-2.5303,-2.5303,-2.5303,-2.5303,-2.5303,-2.5303,-2.5322,-2.5432,-2.5504,-2.5523,-2.5631,-2.5703,-2.5703,-2.5703,-2.5703,-2.5703,-2.5703,-2.5703,-2.5703,-2.5703,-2.5703,-2.5681,-2.5619,-2.562,-2.5659,-2.5543,-2.5514,-2.5523,-2.5523,-2.56,-2.5703,-2.5703,-2.5703,-2.5703,-2.5703,-2.5703,-2.5703,-2.5703,-2.5703,-2.5703,-2.5703,-2.5684,-2.5684,-2.5684,-2.5624,-2.558,-2.559,-2.6221,-2.654,-2.5717,-2.6284,-2.6609,-2.5807,-2.5685,-2.5654,-2.5605,-2.5599,-2.5587,-2.5515,-2.5504,-2.5523,-2.5523,-2.5498,-2.5524,-2.5543,-2.5581,-2.5615,-2.5661,-2.6329,-2.6378,-2.5703,-2.634,-2.639,-2.5785,-2.666,-2.6958,-2.6687,-2.7369,-2.6946,-2.5572,-2.534,-2.5248,-2.5265,-2.5228,-2.5156,-2.5054,-2.5054,-2.4945,-2.4806,-2.5622,-2.5531,-2.5027,-2.5888,-2.5791,-2.5235,-2.7291,-2.6916,-2.6491,-2.6079,-2.6365,-2.6331,-2.5297,-2.5524,-2.5811,-2.5811,-2.5811,-2.5864,-2.5976,-2.5986,-2.5813,-2.5341,-2.5303,-2.5303,-2.5303,-2.5303,-2.5303,-2.5303,-2.5303,-2.5303,-2.5303,-2.5303,-2.5322,-2.5341,-2.5456,-2.5515,-2.5542,-2.5642,-2.5703,-2.5703,-2.5703,-2.5703,-2.5703,-2.5703,-2.5689,-2.5654,-2.5654,-2.5651,-2.5642,-2.5541,-2.5543,-2.5601,-2.5542,-2.5541,-2.5596,-2.5593,-2.5637,-2.5703,-2.5703,-2.5703,-2.5703,-2.5703,-2.5703,-2.5703,-2.5703,-2.5703,-2.5703,-2.5703,-2.6016,-2.6328,-2.6328,-2.6289,-2.6387,-2.6797,-2.7552,-2.7875,-2.7041,-2.7595,-2.7772,-2.6522,-2.6328,-2.6309,-2.6269,-2.5918,-2.5799,-2.6169,-2.6225,-2.6362,-2.6752,-2.6829,-2.6651,-2.6256,-2.6255,-2.61,-2.5722,-2.6523,-2.6602,-2.5723,-2.6953,-2.7178,-2.6218,-2.7052,-2.7221,-2.6746,-2.7129,-2.6841,-2.5909,-2.5495,-2.5234,-2.5152,-2.5152,-2.5107,-2.5043,-2.5043,-2.4987,-2.4929,-2.537,-2.522,-2.4861,-2.5343,-2.5329,-2.5056,-2.6741,-2.6135,-2.5788,-2.5919,-2.5545,-2.5222,-2.5222,-2.5222,-2.5233,-2.5253,-2.5253,-2.5264,-2.5303,-2.5303,-2.5303,-2.5303,-2.5303,-2.5303,-2.5303,-2.5303,-2.5303,-2.5303,-2.5303,-2.5303,-2.5303,-2.5303,-2.5322,-2.539,-2.5466,-2.5538,-2.5583,-2.5664,-2.5703,-2.5703,-2.5703,-2.5703,-2.5703,-2.5703,-2.5662,-2.5622,-2.562,-2.5628,-2.5603,-2.548,-2.5486,-2.5534,-2.5499,-2.5573,-2.5686,-2.5671,-2.5699,-2.5703,-2.5703,-2.5703,-2.5703,-2.5703,-2.5703,-2.5703,-2.5703,-2.5703,-2.5742,-2.5879,-2.6465,-2.707,-2.7383,-2.7324,-2.7422,-2.8144,-2.8984,-2.9336,-2.8457,-2.9004,-2.9082,-2.748,-2.7109,-2.6992,-2.6992,-2.6387,-2.6191,-2.6914,-2.7129,-2.748,-2.8144,-2.8262,-2.7988,-2.7195,-2.7053,-2.668,-2.5957,-2.6602,-2.6602,-2.5723,-2.7246,-2.765,-2.6775,-2.742,-2.7364,-2.6574,-2.6477,-2.6409,-2.6351,-2.563,-2.5303,-2.5303,-2.5303,-2.5303,-2.5303,-2.5303,-2.5203,-2.5046,-2.5046,-2.4981,-2.4896,-2.5018,-2.5152,-2.5303,-2.6631,-2.5579,-2.492,-2.5611,-2.5261,-2.4874,-2.4874,-2.4874,-2.491,-2.5041,-2.5034,-2.5099,-2.5274,-2.5303,-2.5303,-2.5303,-2.5303,-2.5303,-2.5303,-2.5303,-2.5303,-2.5303,-2.5303,-2.5303,-2.5303,-2.5303,-2.5303,-2.5303,-2.5447,-2.5511,-2.5516,-2.5637,-2.5703,-2.5703,-2.5703,-2.5703,-2.5703,-2.5703,-2.5683,-2.5689,-2.5689,-2.5687,-2.5674,-2.5592,-2.5601,-2.5669,-2.5543,-2.5553,-2.5611,-2.5599,-2.5654,-2.5703,-2.5703,-2.5703,-2.5703,-2.5703,-2.5703,-2.5703,-2.5703,-2.5703,-2.5879,-2.6641,-2.6914,-2.7383,-2.8906,-2.8672,-2.8164,-2.8281,-2.8984,-2.9336,-2.8457,-2.9004,-2.9277,-2.8281,-2.748,-2.6992,-2.6992,-2.6894,-2.6875,-2.6992,-2.7676,-2.8164,-2.8281,-2.8281,-2.8242,-2.812,-2.7421,-2.6953,-2.6836,-2.6934,-2.6602,-2.5723,-2.666,-2.6738,-2.5799,-2.5893,-2.5861,-2.5678,-2.5659,-2.5601,-2.5457,-2.5341,-2.5303,-2.5303,-2.5303,-2.5303,-2.5303,-2.5303,-2.5274,-2.5264,-2.5264,-2.5253,-2.5233,-2.5253,-2.5274,-2.5303,-2.5485,-2.5013,-2.4782,-2.5142,-2.5129,-2.5037,-2.493,-2.5012,-2.5103,-2.5152,-2.5163,-2.5203,-2.5284,-2.5303,-2.5303,-2.5303,-2.5303,-2.5303,-2.5303,-2.5303,-2.5303,-2.5303,-2.5303,-2.5322,-2.537,-2.537,-2.537,-2.5409,-2.5466,-2.5523,-2.5553,-2.564,-2.5703,-2.5703,-2.5703,-2.5703,-2.5703,-2.5703,-2.5684,-2.5644,-2.5642,-2.5648,-2.564,-2.5577,-2.5584,-2.564,-2.5582,-2.5592,-2.5667,-2.5667,-2.5679,-2.5682,-2.5667,-2.5638,-2.5634,-2.56,-2.5595,-2.5595,-2.5595,-2.5969,-2.6465,-2.6855,-2.7695,-2.8652,-2.9414,-2.9687,-2.9746,-2.9746,-3.0059,-3.0215,-2.9824,-3.0078,-3.0039,-2.918,-2.8691,-2.8457,-2.8457,-2.8027,-2.791,-2.8398,-2.8789,-2.9219,-2.9707,-2.9746,-2.9551,-2.9062,-2.8672,-2.8027,-2.7051,-2.7461,-2.7324,-2.6445,-2.7734,-2.7793,-2.6406,-2.6822,-2.6547,-2.5563,-2.5522,-2.5437,-2.537,-2.537,-2.5341,-2.5303,-2.5303,-2.5303,-2.5303,-2.5303,-2.5303,-2.5303,-2.5303,-2.5303,-2.5303,-2.5303,-2.5303,-2.5303]}]]